[[{"header":{"parameterUnit":"m.s-1","parameterCategory":1,"la1":30.6,"la2":28.766,"lo1":-90.7593,"lo2":-88.6598,"dy":0.0162,"dx":0.0183,"nx":116,"ny":114,"refTime":"2023-03-03T18:00:00:Z","depth":0,"parameterNumber":2,"parameterNumberName":"U-component_of_WINDS"},"data":[0.0,0.0,0.0,0.0,0.0,0.0,0.0,0.0,0.0,0.0,0.0,0.0,0.0,0.0,0.0,0.0,0.0,0.0,0.0,0.0,0.0,0.0,0.0,0.0,0.0,0.0,0.0,0.0,0.0,0.0,0.0,0.0,0.0,0.0,0.0,0.0,0.0,0.0,0.0,0.0,0.0,0.0,0.0,0.0,0.0,0.0,0.0,0.0,0.0,0.0,0.0,0.0,0.0,0.0,0.0,0.0,0.0,0.0,0.0,0.0,0.0,0.0,0.0,0.0,0.0,0.0,0.0,0.0,0.0,0.0,0.0,0.0,0.0,0.0,0.0,0.0,0.0,0.0,0.0,0.0,0.0,0.0,0.0,0.0,0.0,0.0,0.0,0.0,0.0,0.0,0.0,0.0,0.0,0.0,0.0,0.0,0.0,0.0,0.0,0.0,0.0,0.0,0.0,0.0,0.0,0.0,0.0,0.0,0.0,0.0,0.0,0.0,0.0,0.0,0.0,0.0,0.0,0.0,0.0,0.0,0.0,0.0,0.0,0.0,0.0,0.0,0.0,0.0,0.0,0.0,0.0,0.0,0.0,0.0,0.0,0.0,0.0,0.0,0.0,0.0,0.0,0.0,0.0,0.0,0.0,0.0,0.0,0.0,0.0,0.0,0.0,0.0,0.0,0.0,0.0,0.0,0.0,0.0,0.0,0.0,0.0,0.0,0.0,0.0,0.0,0.0,0.0,0.0,0.0,0.0,0.0,0.0,0.0,0.0,0.0,0.0,0.0,0.0,0.0,0.0,0.0,0.0,0.0,0.0,0.0,0.0,0.0,0.0,0.0,0.0,0.0,0.0,0.0,0.0,0.0,0.0,0.0,0.0,0.0,0.0,0.0,0.0,0.0,0.0,0.0,0.0,0.0,0.0,0.0,0.0,0.0,0.0,0.0,0.0,0.0,0.0,0.0,0.0,0.0,0.0,0.0,0.0,0.0,0.0,0.0,0.0,0.0,0.0,0.0,0.0,0.0,0.0,0.0,0.0,0.0,0.0,0.0,0.0,0.0,0.0,0.0,0.0,0.0,0.0,0.0,0.0,0.0,0.0,0.0,0.0,0.0,0.0,0.0,0.0,0.0,0.0,0.0,0.0,0.0,0.0,0.0,0.0,0.0,0.0,0.0,0.0,0.0,0.0,0.0,0.0,0.0,0.0,0.0,0.0,0.0,0.0,0.0,0.0,0.0,0.0,0.0,0.0,0.0,0.0,0.0,0.0,0.0,0.0,0.0,0.0,0.0,0.0,0.0,0.0,0.0,0.0,0.0,0.0,0.0,0.0,0.0,0.0,0.0,0.0,0.0,0.0,0.0,0.0,0.0,0.0,0.0,0.0,0.0,0.0,0.0,0.0,0.0,0.0,0.0,0.0,0.0,0.0,0.0,0.0,0.0,0.0,0.0,0.0,0.0,0.0,0.0,0.0,0.0,0.0,0.0,0.0,0.0,0.0,0.0,0.0,0.0,0.0,0.0,0.0,0.0,0.0,0.0,0.0,0.0,0.0,0.0,0.0,0.0,0.0,0.0,0.0,0.0,0.0,0.0,0.0,0.0,0.0,0.0,0.0,0.0,0.0,0.0,0.0,0.0,0.0,0.0,0.0,0.0,0.0,0.0,0.0,0.0,0.0,0.0,0.0,0.0,0.0,0.0,0.0,0.0,0.0,0.0,0.0,0.0,0.0,0.0,0.0,0.0,0.0,0.0,0.0,0.0,0.0,0.0,0.0,0.0,0.0,0.0,0.0,0.0,0.0,0.0,0.0,0.0,0.0,0.0,0.0,0.0,0.0,0.0,0.0,0.0,0.0,0.0,0.0,0.0,0.0,0.0,0.0,0.0,0.0,0.0,0.0,0.0,0.0,0.0,0.0,0.0,0.0,0.0,0.0,0.0,0.0,0.0,0.0,0.0,0.0,0.0,0.0,0.0,0.0,0.0,0.0,0.0,0.0,0.0,0.0,0.0,0.0,0.0,0.0,0.0,0.0,0.0,0.0,0.0,0.0,0.0,0.0,0.0,0.0,0.0,0.0,0.0,0.0,0.0,0.0,0.0,0.0,0.0,0.0,0.0,0.0,0.0,0.0,0.0,0.0,0.0,0.0,0.0,0.0,0.0,0.0,0.0,0.0,0.0,0.0,0.0,0.0,0.0,0.0,0.0,0.0,0.0,0.0,0.0,0.0,0.0,0.0,0.0,0.0,0.0,0.0,0.0,0.0,0.0,0.0,0.0,0.0,0.0,0.0,0.0,0.0,0.0,0.0,0.0,0.0,0.0,0.0,0.0,0.0,0.0,0.0,0.0,0.0,0.0,0.0,0.0,0.0,0.0,0.0,0.0,0.0,0.0,0.0,0.0,0.0,0.0,0.0,0.0,0.0,0.0,0.0,0.0,0.0,0.0,0.0,0.0,0.0,0.0,0.0,0.0,0.0,0.0,0.0,0.0,0.0,0.0,0.0,0.0,0.0,0.0,0.0,0.0,0.0,0.0,0.0,0.0,0.0,0.0,0.0,0.0,0.0,0.0,0.0,0.0,0.0,0.0,0.0,0.0,0.0,0.0,0.0,0.0,0.0,0.0,0.0,0.0,0.0,0.0,0.0,0.0,0.0,0.0,0.0,0.0,0.0,0.0,0.0,0.0,0.0,0.0,0.0,0.0,0.0,0.0,0.0,0.0,0.0,0.0,0.0,0.0,0.0,0.0,0.0,0.0,0.0,0.0,0.0,0.0,0.0,0.0,0.0,0.0,0.0,0.0,0.0,0.0,0.0,0.0,0.0,0.0,0.0,0.0,0.0,0.0,0.0,0.0,0.0,0.0,0.0,0.0,0.0,0.0,0.0,0.0,0.0,0.0,0.0,0.0,0.0,0.0,0.0,0.0,0.0,0.0,0.0,0.0,0.0,0.0,0.0,0.0,0.0,0.0,0.0,0.0,0.0,0.0,0.0,0.0,0.0,0.0,0.0,0.0,0.0,0.0,0.0,0.0,0.0,0.0,0.0,0.0,0.0,0.0,0.0,0.0,0.0,0.0,0.0,0.0,0.0,0.0,0.0,0.0,0.0,0.0,0.0,0.0,0.0,0.0,0.0,0.0,0.0,0.0,0.0,0.0,0.0,0.0,0.0,0.0,0.0,0.0,0.0,0.0,0.0,0.0,0.0,0.0,0.0,0.0,0.0,0.0,0.0,0.0,0.0,0.0,0.0,0.0,0.0,0.0,0.0,0.0,0.0,0.0,0.0,0.0,0.0,0.0,0.0,0.0,0.0,0.0,0.0,0.0,0.0,0.0,0.0,0.0,0.0,0.0,0.0,0.0,0.0,0.0,0.0,0.0,0.0,0.0,0.0,0.0,0.0,0.0,0.0,0.0,0.0,0.0,0.0,0.0,0.0,0.0,0.0,0.0,0.0,0.0,0.0,0.0,0.0,0.0,0.0,0.0,0.0,0.0,0.0,0.0,0.0,0.0,0.0,0.0,0.0,0.0,0.0,0.0,0.0,0.0,0.0,0.0,0.0,0.0,0.0,0.0,0.0,0.0,0.0,0.0,0.0,0.0,0.0,0.0,0.0,0.0,0.0,0.0,0.0,0.0,0.0,0.0,0.0,0.0,0.0,0.0,0.0,0.0,0.0,0.0,0.0,0.0,0.0,0.0,0.0,0.0,0.0,0.0,0.0,0.0,0.0,0.0,0.0,0.0,0.0,0.0,0.0,0.0,0.0,0.0,0.0,0.0,0.0,0.0,0.0,0.0,0.0,0.0,0.0,0.0,0.0,0.0,0.0,0.0,0.0,0.0,0.0,0.0,0.0,0.0,0.0,0.0,0.0,0.0,0.0,0.0,0.0,0.0,0.0,0.0,0.0,0.0,0.0,0.0,0.0,0.0,0.0,0.0,0.0,0.0,0.0,0.0,0.0,0.0,0.0,0.0,0.0,0.0,0.0,0.0,0.0,0.0,0.0,0.0,0.0,0.0,0.0,0.0,0.0,0.0,0.0,0.0,0.0,0.0,0.0,0.0,0.0,0.0,0.0,0.0,0.0,0.0,0.0,0.0,0.0,0.0,0.0,0.0,0.0,0.0,0.0,0.0,0.0,0.0,0.0,0.0,0.0,0.0,0.0,0.0,0.0,0.0,0.0,0.0,0.0,0.0,0.0,0.0,0.0,0.0,0.0,0.0,0.0,0.0,0.0,0.0,0.0,0.0,0.0,0.0,0.0,0.0,0.0,0.0,0.0,0.0,0.0,0.0,0.0,0.0,0.0,0.0,0.0,0.0,0.0,0.0,0.0,0.0,0.0,0.0,0.0,0.0,0.0,0.0,0.0,0.0,0.0,0.0,0.0,0.0,0.0,0.0,0.0,0.0,0.0,0.0,0.0,0.0,0.0,0.0,0.0,0.0,0.0,0.0,0.0,0.0,0.0,0.0,0.0,0.0,0.0,0.0,0.0,0.0,0.0,0.0,0.0,0.0,0.0,0.0,0.0,0.0,0.0,0.0,0.0,0.0,0.0,0.0,0.0,0.0,0.0,0.0,0.0,0.0,0.0,0.0,0.0,0.0,0.0,0.0,0.0,0.0,0.0,0.0,0.0,0.0,0.0,0.0,0.0,0.0,0.0,0.0,0.0,0.0,0.0,0.0,0.0,0.0,0.0,0.0,0.0,0.0,0.0,0.0,0.0,0.0,0.0,0.0,0.0,0.0,0.0,0.0,0.0,0.0,0.0,0.0,0.0,0.0,0.0,0.0,0.0,0.0,0.0,0.0,0.0,0.0,0.0,0.0,0.0,0.0,0.0,0.0,0.0,0.0,0.0,0.0,0.0,0.0,0.0,0.0,0.0,0.0,0.0,0.0,0.0,0.0,0.0,0.0,0.0,0.0,0.0,0.0,0.0,0.0,0.0,0.0,0.0,0.0,0.0,0.0,0.0,0.0,0.0,0.0,0.0,0.0,0.0,0.0,0.0,0.0,0.0,0.0,0.0,0.0,0.0,0.0,0.0,0.0,0.0,0.0,0.0,0.0,0.0,0.0,0.0,0.0,0.0,0.0,0.0,0.0,0.0,0.0,0.0,0.0,0.0,0.0,0.0,0.0,0.0,0.0,0.0,0.0,0.0,0.0,0.0,0.0,0.0,0.0,0.0,0.0,0.0,0.0,0.0,0.0,0.0,0.0,0.0,0.0,0.0,0.0,0.0,0.0,0.0,0.0,0.0,0.0,0.0,0.0,0.0,0.0,0.0,0.0,0.0,0.0,0.0,0.0,0.0,0.0,0.0,0.0,0.0,0.0,0.0,0.0,0.0,0.0,0.0,0.0,0.0,0.0,0.0,0.0,0.0,0.0,0.0,0.0,0.0,0.0,0.0,0.0,0.0,0.0,0.0,0.0,0.0,0.0,0.0,0.0,0.0,0.0,0.0,0.0,0.0,0.0,0.0,0.0,0.0,0.0,0.0,0.0,0.0,0.0,0.0,0.0,0.0,0.0,0.0,0.0,0.0,0.0,0.0,0.0,0.0,0.0,0.0,0.0,0.0,0.0,0.0,0.0,0.0,0.0,0.0,0.0,0.0,0.0,0.0,0.0,0.0,0.0,0.0,0.0,0.0,0.0,0.0,0.0,0.0,0.0,0.0,0.0,0.0,0.0,0.0,0.0,0.0,0.0,0.0,0.0,0.0,0.0,0.0,0.0,0.0,0.0,0.0,0.0,0.0,0.0,0.0,0.0,0.0,0.0,0.0,0.0,0.0,0.0,0.0,0.0,0.0,0.0,0.0,0.0,0.0,0.0,0.0,0.0,0.0,0.0,0.0,0.0,0.0,0.0,0.0,0.0,0.0,0.0,0.0,0.0,0.0,0.0,0.0,0.0,0.0,0.0,0.0,0.0,0.0,0.0,0.0,0.0,0.0,0.0,0.0,0.0,0.0,0.0,0.0,0.0,0.0,0.0,0.0,0.0,0.0,0.0,0.0,0.0,0.0,0.0,0.0,0.0,0.0,0.0,0.0,0.0,0.0,0.0,0.0,0.0,0.0,0.0,0.0,0.0,0.0,0.0,0.0,0.0,0.0,0.0,0.0,0.0,0.0,-2.6198,-2.6695,0.0,0.0,0.0,0.0,0.0,0.0,0.0,0.0,0.0,0.0,0.0,0.0,0.0,0.0,0.0,0.0,0.0,0.0,0.0,0.0,0.0,0.0,0.0,0.0,0.0,0.0,0.0,0.0,0.0,0.0,0.0,0.0,0.0,0.0,0.0,0.0,0.0,0.0,0.0,0.0,0.0,0.0,0.0,0.0,0.0,0.0,0.0,0.0,0.0,0.0,0.0,0.0,0.0,0.0,0.0,0.0,0.0,0.0,0.0,0.0,0.0,0.0,0.0,0.0,0.0,0.0,0.0,0.0,0.0,0.0,0.0,0.0,0.0,0.0,0.0,0.0,0.0,0.0,0.0,0.0,0.0,0.0,0.0,0.0,0.0,0.0,0.0,0.0,0.0,0.0,0.0,0.0,0.0,0.0,0.0,0.0,0.0,0.0,0.0,0.0,0.0,0.0,0.0,0.0,0.0,0.0,0.0,0.0,0.0,0.0,0.0,0.0,0.0,0.0,-2.7512,-2.7643,0.0,0.0,0.0,0.0,0.0,0.0,0.0,0.0,0.0,0.0,0.0,0.0,0.0,0.0,0.0,0.0,0.0,0.0,0.0,0.0,0.0,0.0,0.0,0.0,0.0,0.0,0.0,0.0,0.0,0.0,0.0,0.0,0.0,0.0,0.0,0.0,0.0,0.0,0.0,0.0,0.0,0.0,0.0,0.0,0.0,0.0,0.0,0.0,0.0,0.0,0.0,0.0,0.0,0.0,0.0,0.0,0.0,0.0,0.0,0.0,0.0,0.0,0.0,0.0,0.0,0.0,0.0,0.0,0.0,0.0,0.0,0.0,0.0,0.0,0.0,0.0,0.0,0.0,0.0,0.0,0.0,0.0,0.0,0.0,0.0,0.0,0.0,0.0,0.0,0.0,0.0,0.0,0.0,0.0,0.0,0.0,0.0,0.0,0.0,0.0,0.0,0.0,0.0,0.0,0.0,0.0,0.0,0.0,-2.5922,-2.8309,-2.8322,-2.8427,-2.8515,-2.8631,-2.8947,-2.8924,-2.8751,-2.853,0.0,0.0,0.0,0.0,0.0,0.0,0.0,0.0,0.0,0.0,0.0,0.0,0.0,0.0,0.0,0.0,0.0,0.0,0.0,0.0,0.0,0.0,0.0,0.0,0.0,0.0,0.0,0.0,0.0,0.0,0.0,0.0,0.0,0.0,0.0,0.0,0.0,0.0,-0.0701,-0.2549,-0.399,-0.4855,-0.2863,0.0,0.0,0.0,0.0,0.0,0.0,0.0,0.0,0.0,0.0,0.0,0.0,0.0,0.0,0.0,0.0,0.0,0.0,0.0,0.0,0.0,0.0,0.0,0.0,0.0,0.0,0.0,0.0,0.0,0.0,0.0,0.0,0.0,0.0,0.0,0.0,0.0,0.0,0.0,0.0,0.0,0.0,0.0,-1.1445,-1.1836,0.0,0.0,0.0,0.0,0.0,0.0,0.0,0.0,0.0,0.0,0.0,0.0,0.0,-1.9084,-2.404,-2.4305,-2.4343,-2.4723,-2.7301,-2.8619,-2.8495,-2.9474,-3.0013,-3.0097,-3.1867,0.0,-3.1138,-3.0119,0.0,0.0,0.0,0.0,0.0,0.0,0.0,0.0,0.0,0.0,0.0,0.0,0.0,0.0,0.0,0.0,0.0,0.0,0.0,0.0,0.0,0.0,0.0,0.0,0.0,0.0,0.0,0.0,0.0,0.0,0.0,0.0,0.0,0.0,0.0,0.0,0.1392,-0.0971,-0.2769,-0.4805,-0.6275,-0.7416,-0.7369,-0.6974,-0.6383,-0.6417,0.0,0.0,0.0,0.0,0.0,0.0,0.0,0.0,0.0,0.0,0.0,0.0,0.0,0.0,0.0,0.0,0.0,0.0,0.0,0.0,0.0,0.0,0.0,0.0,0.0,0.0,0.0,0.0,0.0,0.0,0.0,0.0,0.0,0.0,0.0,0.0,0.0,0.0,0.0,-0.5034,-0.8641,-1.3298,-1.3971,-1.2991,0.0,0.0,0.0,0.0,0.0,0.0,0.0,0.0,0.0,-1.7111,-1.7526,-2.0752,-2.708,-2.7229,-2.7565,-2.8069,-2.8999,-2.9437,-2.953,-3.0016,-3.0286,-3.0315,-3.1107,-3.1243,-3.0829,-3.0822,-3.0518,-3.0016,0.0,0.0,0.0,0.0,-3.2097,-3.2237,0.0,0.0,0.0,0.0,0.0,0.0,0.0,0.0,0.0,0.0,0.0,0.0,0.0,0.0,0.0,0.8894,0.0,0.0,0.0,0.0,0.0,0.0,0.0,0.0,0.0,0.0,0.0,0.0,-0.1396,-0.3477,-0.4851,-0.6811,-0.8183,-0.878,-1.0627,-1.0516,-0.878,-0.9227,-0.9573,0.0,0.0,0.0,0.0,0.0,0.0,0.0,0.0,0.0,0.0,0.0,0.0,0.0,0.0,0.0,0.0,0.0,0.0,0.0,0.0,0.0,0.0,0.0,0.0,0.0,0.0,0.0,0.0,0.0,0.0,0.0,0.0,0.0,0.0,0.0,0.0,0.0,0.0,-0.2646,-0.5401,-1.2726,-1.3521,-1.2922,0.0,0.0,0.0,0.0,0.0,0.0,-1.4441,-1.523,-1.6214,-1.7569,-1.8192,-2.1527,-2.7686,-2.6904,-2.7704,-3.0154,-3.0478,-3.0553,-3.0238,-3.0117,-3.0271,-3.0238,-3.0177,-3.0222,-3.0166,-3.1076,-3.102,-3.0368,-3.1303,-3.1583,-3.1223,-3.1503,-3.2124,-3.2722,0.0,0.0,0.0,0.0,0.0,0.0,0.0,0.0,0.0,0.0,0.0,0.0,0.0,0.0,0.837,0.8769,0.7868,0.6702,0.0,0.0,0.0,0.0,0.0,0.0,0.0,0.0,0.0,-0.1261,-0.3038,-0.4866,-0.6851,-0.8658,-0.9635,-1.0052,-1.2414,-1.2914,-1.2162,-1.2621,-1.323,-1.3527,0.0,0.0,0.0,0.0,0.0,0.0,0.0,0.0,0.0,0.0,0.0,0.0,0.0,0.0,0.0,0.0,0.0,0.0,0.0,0.0,0.0,0.0,0.0,0.0,0.0,0.0,0.0,0.0,0.0,0.0,0.0,0.0,0.0,0.0,0.0,0.0,0.0,0.0,0.0,-1.0913,-1.172,0.0,0.0,0.0,0.0,-1.4102,-1.419,-1.4598,-1.5121,-1.7553,-1.9158,-1.9137,-1.9195,-2.1325,-2.5565,-2.2387,-2.3952,-3.0279,-3.117,-3.1231,-3.0235,-3.0177,-3.0226,-3.0117,-3.0107,-3.0202,-3.0141,-3.0342,-3.0891,-3.1672,-3.1605,-3.1658,-3.1672,-3.1686,-3.1751,-3.2025,0.0,0.0,0.0,0.0,0.0,0.0,0.0,0.0,0.0,0.0,0.0,0.0,0.0,0.8046,0.7263,0.596,0.5531,0.4465,0.2472,0.0,0.0,0.0,0.0,0.0,0.0,0.0,-0.0981,-0.2943,-0.4215,-0.582,-0.781,-0.9291,-1.0631,-1.1971,-1.2895,-1.331,-1.3399,-1.365,-1.362,-1.3391,-1.2892,-1.2536,0.0,0.0,0.0,0.0,0.0,0.0,0.0,0.0,0.0,0.0,0.0,0.0,0.0,0.0,0.0,0.0,0.0,0.0,0.0,0.0,0.0,0.0,0.0,0.0,0.0,0.0,0.0,0.0,0.0,0.0,0.0,0.0,0.0,0.0,0.0,0.0,0.0,-1.3439,-1.2489,0.0,-1.3757,-1.3865,-1.4277,-1.4746,-1.5204,-1.5478,-1.5712,-1.6652,-1.7886,-1.9251,-1.9774,-2.0629,-2.206,-2.131,-2.2196,-2.4556,-2.5009,-2.4999,-2.4702,-2.9226,-3.0841,-3.0184,-3.0153,-3.0262,-3.0238,-3.0238,-3.035,-3.0813,-3.2247,-3.2834,-3.2536,-3.1158,-3.0986,-3.1419,0.0,0.0,0.0,0.0,0.0,0.0,0.0,0.0,0.0,0.0,0.0,0.9522,0.8046,0.7245,0.6042,0.4171,0.3499,0.2567,0.1228,0.0,0.0,0.0,0.0,0.0,0.0,-0.0708,-0.1977,-0.3388,-0.4712,-0.6217,-0.7906,-0.9452,-1.0993,-1.2359,-1.2977,-1.331,-1.3504,-1.4079,-1.3826,-1.3332,-1.292,-1.2609,-1.2259,0.0,0.0,0.0,0.0,0.0,0.0,0.0,0.0,0.0,0.0,0.0,0.0,0.0,0.0,0.0,0.0,0.0,0.0,0.0,0.0,0.0,0.0,0.0,0.0,0.0,0.0,0.0,0.0,0.0,0.0,0.0,0.0,0.0,0.0,0.0,-1.1815,-1.4166,-1.3584,-1.3743,-1.5272,-1.5235,-1.5127,-1.5465,-1.589,-1.6161,-1.6056,-1.6357,-1.6961,-1.8534,-1.9037,-1.923,-1.953,-1.9993,-2.0388,-2.069,-2.0897,-2.0856,-2.0986,-2.5993,-2.7784,-2.6829,-2.6815,-2.6884,-2.682,-2.682,-2.6832,-2.7146,-3.0827,-3.2272,-3.206,-3.0814,-3.0403,-3.0814,0.0,0.0,0.0,0.0,0.0,0.0,0.0,0.0,0.0,0.0,1.006,0.9123,0.7646,0.6309,0.4836,0.3631,0.2018,0.1226,0.1259,0.1262,0.0,0.0,0.0,0.0,-0.0,-0.1421,-0.243,-0.2861,-0.4774,-0.6155,-0.7129,-0.8975,-1.0213,-1.1119,-1.2337,-1.2708,-1.2514,-1.3669,-1.415,-1.3691,-1.3212,-1.2922,-1.2423,0.0,0.0,0.0,0.0,0.0,0.0,0.0,0.0,0.0,0.0,0.0,0.0,0.0,0.0,0.0,0.0,0.0,0.0,0.0,0.0,0.0,0.0,0.0,0.0,0.0,0.0,0.0,0.0,0.0,0.0,0.0,0.0,0.0,-1.0063,-1.105,-1.1862,-1.2929,-1.4826,-1.6145,-1.6052,-1.6096,-1.6126,-1.6069,-1.622,-1.6225,-1.6101,-1.6742,-1.7078,-1.6944,-1.6944,-1.736,-1.7799,-1.7813,-1.8347,-1.9632,-1.9461,-1.9649,-1.9717,-2.0698,-2.0914,-2.0369,-2.0385,-2.0206,-2.0266,-2.0266,-2.0266,-2.0891,-2.7283,-3.0083,-3.0274,-3.0105,-3.0246,-3.0661,0.0,0.0,0.0,0.0,0.0,0.0,0.0,0.0,0.0,0.0,1.006,0.9256,0.8046,0.6443,0.4702,0.2689,0.2153,0.2161,0.2585,0.0,0.0,0.0,0.0,0.0,0.0569,-0.1285,-0.23,-0.232,-0.3079,-0.3875,-0.5024,-0.6957,-0.815,-0.8563,-0.9088,-0.9197,-0.9071,-0.9716,-0.9751,-0.9843,-1.2106,-1.2688,-1.1913,0.0,0.0,0.0,0.0,0.0,0.0,0.0,0.0,0.0,0.0,0.0,0.0,0.0,0.0,0.0,0.0,0.0,0.0,0.0,0.0,0.0,0.0,0.0,0.0,0.0,0.0,0.0,0.0,0.0,0.0,0.0,0.0,-0.6479,-0.5034,-0.9241,-1.314,-1.5035,-1.5763,-1.6171,-1.6191,-1.6058,-1.6112,-1.6152,-1.649,-1.6653,-1.6842,-1.6965,-1.7066,-1.6929,-1.7358,-1.7696,-1.7912,-1.7909,-1.8019,-1.8267,-1.8776,-1.9002,-1.9119,-1.9792,-2.0505,-2.1021,-2.0483,-2.0304,-2.0247,-2.0247,-2.034,-2.0381,-2.2265,-2.6029,-3.0258,-3.0295,-3.2235,-3.482,0.0,0.0,0.0,0.0,0.0,0.0,0.0,0.0,0.0,0.0,1.006,0.9256,0.7912,0.6711,0.5238,0.3094,0.2957,0.3242,0.3554,0.0,0.0,0.0,0.0,0.1847,0.0715,-0.0576,-0.1452,-0.1764,-0.1933,-0.2417,-0.3387,-0.5011,-0.6349,-0.7069,-0.7233,-0.7327,-0.7368,-0.7839,-0.8089,-0.8285,-1.0218,-1.0645,-0.9918,-0.9662,-0.9458,-0.9104,-0.8199,-0.7876,-0.7585,-0.7044,0.0,0.0,0.0,0.0,0.0,0.0,0.0,0.0,0.0,0.0,0.0,0.0,0.0,0.0,0.0,0.0,0.0,0.0,0.0,0.0,0.0,0.0,0.0,0.0,-0.7915,-0.7313,-0.6961,-1.033,-1.3314,-1.4707,-1.4892,-1.5016,-1.5091,-1.5091,-1.5346,-1.632,-1.6822,-1.7174,-1.7394,-1.7283,-1.6889,-1.6005,-1.6001,-1.6506,-1.708,-1.7751,-1.786,-1.7826,-1.8191,-1.8417,-1.8508,-1.8827,-1.9118,-1.9777,-2.0157,-2.0361,-2.0397,-2.0291,-2.0347,-2.0198,0.0,0.0,0.0,0.0,-3.3679,-3.6516,0.0,0.0,0.0,0.0,0.0,0.0,0.0,0.0,0.0,0.0,0.0,0.9262,0.7917,0.725,0.618,0.4305,0.4297,0.4476,0.0,0.0,0.0,0.4063,0.2982,0.1863,0.0863,0.0436,-0.0147,-0.0895,-0.1055,-0.1373,-0.2168,-0.3008,-0.4344,-0.586,-0.5817,-0.5909,-0.6148,-0.6904,-0.7327,-0.7402,-0.7409,-0.7367,-0.745,-0.7304,-0.6947,-0.6816,-0.6513,-0.6467,-0.6467,-0.6311,0.0,0.0,0.0,0.0,0.0,0.0,0.0,0.0,0.0,0.0,0.0,0.0,0.0,0.0,0.0,0.0,0.0,0.0,0.0,0.0,0.0,0.0,0.0,0.0,-0.9407,-0.9469,-1.2389,-1.3018,-1.2933,-1.3021,-1.3276,-1.3699,-1.3504,-1.3504,-1.444,-1.64,-1.665,-1.6989,-1.748,0.0,0.0,0.0,0.0,-1.4568,-1.6094,-1.7144,-1.788,-1.786,-1.7846,-1.7846,-1.7826,-1.7875,-1.771,-1.7552,-1.9546,-2.0344,-2.0405,-2.0562,-2.102,-2.1586,-2.1492,-2.5408,-3.0948,-3.2772,-3.4927,-3.6559,0.0,0.0,0.0,0.0,0.0,0.0,0.0,0.0,0.0,1.0591,1.006,0.9528,0.9262,0.7922,0.6853,0.6447,0.5904,0.5785,0.0,0.0,0.5688,0.4762,0.3122,0.2022,0.1475,0.1172,0.089,0.0766,-0.0,-0.0308,-0.0477,-0.1288,-0.1958,-0.2311,-0.234,-0.2368,-0.2394,-0.2595,-0.2623,-0.2651,-0.2674,-0.4617,-0.7195,-0.7281,-0.7045,-0.6659,-0.6633,-0.6629,-0.6469,-0.4982,-0.3956,-0.3093,-0.345,0.0,0.0,0.0,0.0,0.0,0.0,0.0,0.0,0.0,0.0,0.0,0.0,0.0,0.0,0.0,0.0,0.0,0.0,0.0,0.0,-0.7159,-0.9555,-1.1677,-1.2802,-1.3137,-1.3385,-1.3537,-1.3613,-1.3498,-1.3583,-1.3589,-1.3819,-1.4304,-1.4611,-1.4902,-1.4948,-1.5395,-1.5185,-1.4321,-1.4081,-1.4775,-1.6557,-1.6917,-1.7216,-1.786,0.0,0.0,-1.7684,-1.7621,-1.7463,-1.76,-1.9469,-2.0299,-2.0314,-2.1528,-2.497,-2.9445,-2.953,-3.1202,-3.3945,-3.4241,-3.5304,-3.667,0.0,0.0,0.0,0.0,0.0,0.0,0.0,0.0,0.0,0.0,1.0193,0.9927,0.9661,0.8856,0.8184,0.7517,0.7291,0.0,0.0,0.7524,0.694,0.6155,0.4395,0.3325,0.3261,0.3099,0.269,0.1849,0.1387,0.1093,0.064,0.0163,-0.0,-0.0,-0.0,-0.0,-0.0,-0.0,-0.0,-0.0,-0.0,-0.1789,-0.426,-0.437,-0.4154,-0.396,-0.394,-0.3934,-0.3771,-0.2425,-0.1745,-0.1404,-0.1235,-0.1241,-0.1246,0.0,0.0,0.0,0.0,0.0,0.0,0.0,0.0,0.0,0.0,0.0,0.0,0.0,0.0,-0.3165,0.0,0.0,-0.5328,-0.7443,-1.0338,-1.1437,-0.8607,-0.8502,-0.9844,-1.3616,-1.3874,-1.3923,-1.3972,-1.3972,-1.3993,-1.4048,-1.4151,-1.4459,-1.4536,-1.4932,-1.4949,-1.4547,-1.4434,-1.4859,-1.6224,-1.6514,-1.695,-1.7305,-1.7465,-1.7827,-1.7954,-1.7641,-1.7475,-1.7412,-1.9403,-2.0798,-2.1813,-2.6474,-3.0303,-3.3118,-3.3284,-3.3919,-3.4781,-3.5428,-3.6167,-3.7184,0.0,0.0,0.0,0.0,0.0,0.0,0.0,0.0,0.0,0.0,1.0193,1.006,0.9794,0.9794,0.9389,0.0,0.0,0.0,0.0,0.8681,0.797,0.7436,0.5969,0.5216,0.5203,0.5345,0.4659,0.3242,0.312,0.2687,0.2085,0.2294,0.2319,0.2326,0.2368,0.24,0.2428,0.2449,0.2296,0.214,0.214,0.125,-0.0,-0.0175,-0.0348,-0.0523,-0.0864,-0.0859,-0.0688,0.0348,0.0704,0.071,0.1077,0.1271,0.1282,0.146,0.1662,0.0,0.0,0.0,0.0,0.0,0.0,0.0,0.0,0.0,0.2392,0.0563,-0.114,-0.2313,-0.237,-0.2416,-0.3691,-0.7104,-0.9206,-0.8505,-0.2853,-0.2893,-0.582,-1.1519,-1.2153,-1.2143,-1.2325,-1.3455,-1.4387,-1.4211,-1.2975,-1.3078,-1.4988,-1.4895,-1.4657,-1.3829,-1.3839,-1.4017,-1.4536,-1.5185,-1.5783,-1.6113,-1.6711,-1.7257,-1.796,-1.7678,-1.7704,-1.7797,-2.0975,-2.3323,-2.5267,-3.1984,-3.4667,-3.4726,-3.4884,-3.5029,-3.5116,-3.6305,-3.714,-3.7805,0.0,0.0,0.0,0.0,0.0,0.0,0.0,0.0,0.0,0.0,0.0,0.0,0.0,0.0,0.0,0.0,0.0,0.0,0.9685,0.9692,0.9265,0.796,0.7778,0.734,0.6477,0.6704,0.6785,0.641,0.5477,0.4907,0.4852,0.5742,0.6145,0.6038,0.6053,0.6096,0.616,0.6169,0.5693,0.5051,0.5051,0.4908,0.4769,0.4013,0.3147,0.2117,0.0528,0.035,0.1219,0.2311,0.2687,0.3053,0.4901,0.5536,0.5787,0.6595,0.0,0.5158,0.5396,0.412,0.0,0.4306,0.3922,0.2995,0.0,0.0,0.176,0.1195,0.0806,0.0611,-0.0,-0.0209,-0.0639,-0.2169,-0.1766,-0.0448,0.2484,-0.0912,-0.3896,-0.4805,-0.4791,-0.4768,-0.4732,-1.0465,-1.4343,-1.4374,-0.8388,-0.7752,-1.4575,-1.5006,-1.3399,-0.9985,-1.0963,-1.1149,-1.0516,-1.1104,-1.2153,-1.3675,-1.4554,-1.5454,-1.6387,-1.8128,-1.8519,-1.8442,-2.676,-3.1618,-3.3448,-3.4283,-3.4694,-3.4722,-3.5924,-3.6368,-3.6398,-3.6495,-3.7421,-3.8448,0.0,0.0,0.0,0.0,0.0,0.0,0.0,0.0,0.0,0.0,0.0,0.0,0.0,0.0,0.0,0.0,0.0,0.0,0.9844,1.0116,0.9835,0.8697,0.9237,0.9118,0.845,0.8561,0.8209,0.7521,0.7095,0.6515,0.594,0.6499,0.6742,0.6652,0.6652,0.6721,0.6833,0.6833,0.6531,0.6249,0.6289,0.6498,0.6706,0.6363,0.6186,0.5998,0.4555,0.382,0.0,0.5646,0.6068,0.629,0.6537,0.6807,0.7052,0.7316,0.6997,0.0,0.6951,0.0,0.0,0.0,0.6435,0.5782,0.5326,0.3775,0.2598,0.243,0.2464,0.2497,0.21,0.2135,0.1957,0.0,0.2017,0.2723,0.3681,0.208,0.0463,-0.0463,-0.0463,-0.1383,-0.3424,-0.6415,-0.8019,-0.8192,-0.5272,-0.5071,-0.8287,-0.6975,-0.6975,-0.8278,-0.9418,-0.9565,-0.8278,-0.8426,-1.0077,-1.2951,-1.3918,-1.566,-1.7725,-1.9501,-2.2255,-2.6177,-2.9959,-3.2599,-3.3886,-3.3872,-3.4013,-3.3907,-3.4562,-3.5533,-3.6758,-3.7465,-3.8455,-3.947,0.0,0.0,0.0,0.0,0.0,0.0,0.0,0.0,0.0,0.0,0.0,0.0,0.0,0.0,0.0,0.0,0.0,0.0,0.0,1.0135,1.0138,0.9314,1.0155,1.0328,0.9816,1.0,0.966,0.8769,0.8869,0.8459,0.7529,0.794,0.7868,0.7628,0.7628,0.7698,0.7819,0.7819,0.7866,0.7945,0.8011,0.8241,0.8464,0.8329,0.8661,0.8773,0.7864,0.6755,0.6019,0.769,0.814,0.7862,0.756,0.7645,0.7713,0.7997,0.8236,0.8504,0.8828,0.0,0.0,0.8622,0.8645,0.8282,0.7374,0.5645,0.4485,0.4734,0.4794,0.5062,0.6174,0.5616,0.4828,0.3792,0.4285,0.4791,0.5092,0.487,0.4401,0.3694,0.3918,0.2527,-0.1373,-0.2068,-0.207,-0.2289,-0.2544,-0.2554,-0.2311,-0.0932,-0.1631,-0.5308,-0.6181,-0.657,-0.6027,-0.6821,-0.887,-1.168,-1.3653,-1.5969,-1.8598,-2.1237,-2.599,-3.2151,-3.1988,-3.2504,-3.3133,-3.3629,-3.3893,-3.3835,-3.41,-3.5239,-3.6749,-3.7545,-3.8913,-4.0295,0.0,0.0,0.0,0.0,0.0,0.0,0.0,0.0,0.0,0.0,0.0,0.0,0.0,0.0,0.0,0.0,0.0,0.0,0.0,0.992,1.0034,0.9862,1.0286,1.0423,1.026,1.069,1.0821,1.0486,1.0611,1.0742,1.0861,1.0655,1.0447,1.0565,1.0565,1.057,1.0576,1.0576,1.0645,1.0927,1.0933,1.1069,1.1084,1.0625,1.0406,1.0249,0.9495,0.8233,0.6935,0.0,0.7523,0.7054,0.8113,0.8413,0.0,1.0243,1.0931,0.0,0.0,0.0,1.043,1.0257,1.0037,0.9616,0.8728,0.8166,0.7764,0.8263,0.8286,0.9595,1.3364,1.1073,0.7673,0.4227,0.5618,0.7494,0.8708,0.7805,0.7314,0.7932,0.9002,0.7864,0.0,0.2302,0.1619,0.1593,0.0465,0.0466,0.1593,0.0693,-0.0,-0.0227,-0.0226,-0.0894,-0.2439,-0.5827,-0.8299,-0.9345,-1.3102,-1.5877,-1.765,-2.3282,-2.85,-3.3037,-3.2695,-3.2667,-3.2776,-3.4339,-3.5012,-3.5111,-3.6173,-3.6458,-3.667,-3.6665,-3.8101,-4.0256,0.0,0.0,0.0,0.0,0.0,0.0,0.0,0.0,0.0,0.0,0.0,0.0,0.0,0.0,0.0,0.0,0.0,0.0,0.0,0.8203,0.7888,0.717,0.7837,0.8416,0.86,0.9091,0.966,1.0175,1.0843,1.0931,1.0423,1.0941,1.0912,1.0617,1.0617,1.0661,1.0742,1.116,1.139,1.1442,1.1607,1.172,1.18,1.1313,1.1063,1.0762,0.0,0.9831,0.9004,0.0,0.0,0.0,1.0091,0.0,0.0,1.0883,0.0,0.0,0.0,0.0,1.2688,1.321,1.306,1.2873,1.2711,1.2405,1.2048,1.1875,1.1885,1.234,1.3526,1.4086,1.4039,1.2957,1.2926,1.2405,1.0449,0.9821,0.9558,0.9587,0.9598,0.0,0.0,0.0,0.0,0.6639,0.3918,0.2308,0.1831,0.2062,0.1596,-0.0,-0.1334,-0.3067,-0.4967,-0.6974,-0.9338,-1.2074,-1.6721,-2.0404,-2.3274,-2.5392,-2.8509,-3.2273,-3.2394,-3.3105,-3.3948,-3.4352,-3.5139,-3.61,-3.5705,-3.5888,-3.6751,-3.8244,-3.9783,-4.1201,0.0,0.0,0.0,0.0,0.0,0.0,0.0,0.0,0.0,0.0,0.0,0.0,0.0,0.0,0.0,0.0,0.0,0.0,0.0,0.0,0.6329,0.5845,0.638,0.6782,0.7199,0.7831,0.8521,0.9274,1.0042,1.044,1.0139,1.0611,1.0742,1.0498,1.0699,1.0766,1.0843,1.1473,1.192,1.2186,1.2306,1.2588,1.2674,1.2138,1.1865,0.0,1.1328,1.0873,1.0414,0.0,0.0,0.0,0.0,0.0,0.0,0.0,0.0,0.0,0.0,1.3814,1.4197,1.4673,1.4947,1.4988,1.4721,1.4788,1.4825,1.4247,1.4357,1.4512,1.4229,1.4759,1.5326,1.5773,1.5392,1.4293,1.2434,1.2061,1.2251,1.2486,1.2273,1.16,0.0,0.0,0.0,0.8152,0.6367,0.4536,0.2473,0.3143,0.2451,0.0219,-0.476,-0.7252,-0.7136,-1.009,-1.3112,-1.5986,-2.0098,-2.3453,-2.6103,-2.724,-2.9078,-3.1646,-3.2502,-3.3505,-3.4619,-3.5125,-3.5648,-3.6158,-3.6187,-3.6356,-3.6795,-3.9058,-4.0715,-4.173,0.0,0.0,0.0,0.0,0.0,0.0,0.0,0.0,0.0,0.0,0.0,0.0,0.0,0.0,0.0,0.0,0.0,0.0,0.0,0.0,0.0,0.5554,0.57,0.5779,0.5934,0.6754,0.7398,0.7849,0.8755,0.9324,1.0008,1.0008,1.0139,1.0373,1.0969,1.1184,1.1195,1.1824,1.2533,1.3114,1.2991,1.3442,1.4007,1.3213,1.2602,1.224,1.1605,1.1059,0.0,0.0,0.0,0.0,0.0,0.0,0.0,0.0,0.0,1.2407,1.3575,1.4326,1.4712,1.4996,1.5665,1.591,1.5023,1.5367,1.5714,1.5016,1.5564,1.5927,0.0,0.0,1.2284,1.2807,1.3038,1.3499,1.4596,1.4637,1.5064,0.0,0.0,0.0,0.0,0.0,0.0,0.6602,0.0,0.7527,0.4107,0.3479,0.2373,-0.0,-0.958,-1.2806,-0.8771,-1.4614,-1.864,-2.0879,-2.2964,-2.4775,-2.5938,-2.8667,-3.0419,-3.1553,-3.2813,-3.3893,-3.4801,-3.6086,-3.6356,-3.5932,-3.7457,-3.767,-3.7015,-3.9085,-4.0685,-4.1858,0.0,0.0,0.0,0.0,0.0,0.0,0.0,0.0,0.0,0.0,0.0,0.0,0.0,0.0,0.0,0.0,0.0,0.0,0.0,0.0,0.0,0.0,0.0,0.0,0.0,0.0,0.0,0.0,0.0,0.9127,0.9883,1.019,1.0274,1.0117,1.0302,1.0363,1.0462,1.1391,1.1867,1.186,1.2426,1.2669,1.2552,1.2315,1.2056,1.18,1.1435,0.0,0.0,0.0,0.0,0.0,0.0,0.0,1.227,0.0,0.0,1.2909,1.2984,1.3645,1.4112,1.4285,1.4574,1.4643,1.468,1.5061,1.5218,1.575,1.5959,1.4839,0.0,0.0,0.0,1.3095,1.3894,0.0,1.5247,1.5362,0.0,1.5574,0.0,1.4692,1.4019,1.3187,0.0,0.0,0.8336,0.86,0.8552,0.3808,-0.0629,-0.4157,-0.828,-1.1951,-1.4991,-1.8309,-2.1136,-2.35,-2.4667,-2.657,-2.9218,-3.0264,-3.1673,-3.3409,-3.4492,-3.5405,-3.6086,-3.6977,-3.7491,-3.7839,-3.8097,-3.8447,-3.909,-4.0715,-4.1575,-4.1842,0.0,0.0,0.0,0.0,0.0,0.0,0.0,0.0,0.0,0.0,0.0,0.0,0.0,0.0,0.0,0.0,0.0,0.0,0.0,0.0,0.0,0.0,0.0,0.0,0.0,0.0,0.0,0.0,0.0,0.0,0.8629,0.8474,0.8526,0.8329,0.852,0.8731,0.8793,0.9687,0.9961,0.0,0.0,1.0443,1.0329,1.0161,0.9957,0.9749,0.0,0.0,0.0,0.0,0.0,1.1605,1.2003,1.211,1.2247,1.2437,0.0,1.2847,1.3049,1.3481,1.3896,1.3969,1.4036,1.4067,1.4398,1.454,1.4865,1.5174,1.5528,0.0,0.9542,0.0,0.0,0.0,0.0,0.0,1.4013,1.4269,1.4246,0.0,1.3736,0.0,1.3048,1.1597,1.0325,0.0,0.9545,0.8983,0.7289,0.1022,-0.4031,-0.7595,-1.0361,-1.4155,-1.8769,-2.1479,-2.3655,-2.5328,-2.7262,-2.9231,-3.141,-3.2083,-3.3503,-3.5269,-3.5846,-3.6501,-3.7416,-3.7946,-3.8463,-3.8569,-3.9059,-3.9937,-4.0806,-4.1436,-4.1799,-4.1815,0.0,0.0,0.0,0.0,0.0,0.0,0.0,0.0,0.0,0.0,0.0,0.0,0.0,0.0,0.0,0.0,0.0,0.0,0.0,0.0,0.0,0.0,0.0,0.0,0.0,0.0,0.0,0.0,0.0,0.0,0.0,0.0,0.0,0.0,0.0,0.0,0.0,0.0,0.7821,0.8059,0.7976,0.7994,0.791,0.0,0.0,0.0,0.0,0.0,0.0,0.0,1.0661,1.1498,1.1629,1.176,1.1914,1.2519,1.2665,1.2593,1.3097,1.3487,1.3662,1.368,1.3759,1.3801,1.3686,1.3755,1.3846,1.3046,0.0,1.2782,0.8982,0.7039,0.6964,0.9636,0.0,1.0564,1.2335,1.2492,1.2456,1.3182,1.227,1.1578,1.1358,0.9836,0.9548,1.0476,0.971,0.7279,0.3215,-0.2367,-0.7163,-1.0814,-1.4825,-1.8298,-2.1217,-2.4287,-2.6108,-2.7075,-3.002,-3.2028,-3.3044,-3.4155,-3.5588,-3.7102,-3.7147,-3.7718,-3.8415,-3.9298,-3.9179,-3.8783,-4.0278,-4.1261,-4.1842,-4.1738,-4.1849,-4.1833,0.0,0.0,0.0,0.0,0.0,0.0,0.0,0.0,0.0,0.0,1.0247,0.9927,0.0,0.0,0.0,0.0,0.0,0.0,0.0,0.0,0.0,0.0,0.0,0.0,0.0,0.0,0.0,0.0,0.0,0.0,0.0,0.0,0.0,0.0,0.0,0.0,0.0,0.0,0.7089,0.7633,0.8526,0.7915,0.6561,0.0,0.0,0.0,0.0,0.0,0.0,0.0,0.9864,1.0883,1.1351,1.1542,1.1737,1.1515,1.1753,1.1982,1.1731,1.2167,1.2606,1.2713,1.2673,1.2416,1.2199,1.1726,0.0,0.0,0.7289,0.7071,0.6308,0.6945,0.0,0.6803,0.0,0.0,0.0,0.0,1.2043,0.0,0.0,0.0,0.0,0.0,0.0,0.0,0.0,0.0193,0.1165,-0.269,-0.7931,-1.4774,-1.9419,-2.2623,-2.4151,-2.6608,-2.8642,-3.0382,-3.1474,-3.3295,-3.5279,-3.6075,-3.6803,-3.7521,-3.8364,-3.8909,-3.9362,-3.9636,-3.999,-4.0442,-4.0689,-4.1288,-4.1842,-4.1738,-4.1849,-4.1833,0.0,0.0,0.0,0.0,0.0,0.0,0.0,1.0109,1.0019,0.9175,0.9226,0.9192,0.8856,0.6711,0.5104,0.0,0.0,0.0,0.0,0.0,0.0,0.0,0.0,0.0,0.0,0.0,0.2642,0.35,0.0,0.3081,0.3937,0.3641,0.3644,0.3937,0.3787,0.3506,0.3529,0.4114,0.4572,0.49,0.5339,0.4744,0.0,0.0,0.0,0.0,0.0,0.0,0.0,0.0,0.6606,0.76,0.988,1.0618,1.0825,1.137,1.1569,1.1731,1.2232,1.2411,1.2567,1.3003,1.2784,1.2516,1.2009,0.0,0.0,0.0,0.5951,0.4322,0.4303,0.0,0.0,0.0,0.0,0.0,0.0,0.0,0.0,0.0,0.0,0.0,0.0,0.0,0.0,0.0,0.0,-0.3618,-0.325,-0.9032,-1.431,-1.8794,-2.2302,-2.5084,-2.705,-2.9256,-3.1125,-3.2611,-3.383,-3.5485,-3.7196,-3.7531,-3.8164,-3.8738,-3.9478,-3.9931,-4.0141,-4.035,-4.0462,-4.0378,-4.061,-4.124,-4.181,-4.1703,-4.1831,-4.1754,0.0,0.0,0.0,0.0,0.0,0.0,0.0,0.9929,0.9563,0.8024,0.7947,0.7902,0.7282,0.5527,0.4182,0.0,0.0,0.0,0.0,0.0,0.0,0.0,0.0,0.0,0.0,0.0,0.0,0.2326,0.1619,0.0,0.0,0.0,0.0,0.0,0.1605,0.1751,0.2337,0.2188,0.2188,0.0,0.0,0.1608,0.0,0.0,0.0,0.0,0.0,0.0,0.0,0.0,0.3213,0.4589,0.7373,0.9003,0.9951,1.0887,1.1262,1.1595,1.2281,1.2623,1.2928,1.3305,1.2904,1.2449,1.2046,1.0321,0.0,0.0,0.5557,0.2689,0.2331,0.0,0.0,0.0,0.0,0.0,0.0,0.0,0.0,0.0,0.0,0.0,0.0,0.0,0.0,0.0,-0.7386,-0.9069,-1.0211,-1.6597,-2.0962,-2.2899,-2.5079,-2.7397,-2.9482,-3.1975,-3.3619,-3.4374,-3.6119,-3.7617,-3.8843,-3.8713,-3.9288,-3.9947,-4.0319,-4.0513,-4.074,-4.0821,-4.069,-4.0234,-4.0467,-4.0832,-4.132,-4.1601,-4.2044,-4.2522,0.0,0.0,0.0,0.0,0.0,0.0,0.0,0.9671,0.9337,0.8,0.7193,0.6164,0.4792,0.4382,0.4226,0.0,0.0,0.0,0.0,0.0,0.0,0.0,0.0,0.0,0.0,0.0,0.0,0.2294,0.1598,0.0,0.0,0.0,0.0,0.0,0.0,0.1606,0.2191,0.1606,0.0,0.0,0.0,0.0,0.0,0.0,0.0,0.0,0.0,0.0,0.0,0.0,0.0,0.4015,0.3883,0.6329,0.9107,0.939,0.0,0.0,1.1028,1.161,1.2361,1.2361,1.1903,1.1605,1.1868,0.0,0.0,0.5032,0.3047,0.1614,0.0538,0.018,0.0,0.0,0.0,-0.1513,0.0,0.0,0.0,0.0,0.0,0.0,0.0,0.0,0.0,-0.9539,-1.6926,-2.1317,-2.151,-2.2109,-2.3892,-2.6902,-2.933,-3.0616,-3.1009,-3.3922,-3.5764,-3.6458,-3.7686,-3.8811,-3.9836,-3.9771,-3.9915,-4.0513,-4.0513,-4.0724,-4.1111,-4.074,-4.0756,-4.1177,-4.0234,-3.9952,-4.0063,-4.1312,-4.3038,-4.4868,0.0,0.0,0.0,0.0,0.0,0.0,0.9293,0.9166,0.8542,0.674,0.6537,0.5812,0.3847,0.4008,0.3719,0.2967,0.0,0.0,0.0,0.0,0.0,0.0,0.0,0.0,0.0,0.0,0.0582,0.0869,0.0587,0.0,0.0,0.0,0.0,0.0,0.0,0.0882,0.1606,0.1314,0.0,0.0,0.0,0.0,0.0,0.0,0.0,0.0,0.0,0.0,0.0,0.0,0.0,0.0,0.0343,0.1571,0.0,0.0,0.8181,1.0268,1.0998,1.1416,1.16,1.1406,1.147,1.1515,1.0364,0.0,0.0,0.359,0.1614,-0.0179,-0.1436,-0.1795,-0.1803,0.0,0.0,0.0,0.0,0.0,0.0,0.0,0.0,0.0,0.0,0.0,0.0,-1.4984,-2.1105,-2.5707,-2.822,-2.7037,-2.7476,-3.0515,-3.2163,-3.3715,-3.5488,-3.6845,-3.7943,-3.8593,-3.9099,-3.9739,-4.0721,-4.0465,-4.053,-4.1111,-4.2059,-4.2443,-4.2635,-4.2426,-4.1975,-4.1298,-4.0819,-4.0984,-4.2097,-4.6181,-4.6519,-4.5179,0.0,0.0,0.0,0.0,0.0,0.9381,0.8658,0.8402,0.7508,0.5679,0.5726,0.5276,0.3318,0.3471,0.3318,0.2307,0.2207,0.0,0.0,0.0,0.0,0.0,0.0,0.0,0.0,0.0,0.0292,0.0438,0.0148,-0.0,0.0,0.0,-0.0,-0.0,0.0,0.0,0.0,0.0,0.0,0.0,0.0,0.0,0.0,0.0,0.0,0.0,0.0,0.0,0.0,0.0,0.0,0.0,0.0,0.0,0.0,0.0,0.5308,0.7361,0.8848,0.9278,0.9274,0.8888,0.9157,0.9228,0.0,0.0,0.0,0.1435,-0.0359,-0.1795,-0.2694,-0.2874,-0.2874,-0.3053,0.0,-0.3075,0.0,0.0,0.0,0.0,0.0,0.0,0.0,0.0,0.0,-2.0496,-2.5139,-2.9028,-3.231,-3.1762,-3.2253,-3.4066,-3.5234,-3.6589,-3.8322,-3.905,-3.9546,-3.9979,-4.0238,-4.0819,-4.169,-4.1094,-4.1288,-4.2443,-4.3209,-4.3764,-4.3955,-4.3712,-4.2638,-4.134,-4.0925,-4.2311,-4.5077,-4.9755,-4.9535,-4.7023,0.0,0.0,0.0,0.0,0.0,0.0,0.778,0.7385,0.6623,0.4955,0.449,0.4001,0.2938,0.3045,0.3023,0.2199,0.22,0.0,0.0,0.0,0.0,0.0,0.0,0.0,0.0,0.0,0.1168,0.1314,0.0444,-0.0,-0.0,-0.0,-0.0,-0.0,0.0,0.0,0.0,0.0,0.0,0.0,0.0,0.0,0.0,0.0,0.0,0.0,0.0,0.0,0.0,0.0,0.0,0.0,0.0,0.0,0.0,0.0,0.1793,0.2525,0.3532,0.4306,0.4678,0.4491,0.4088,0.368,0.0,0.0,0.1076,-0.2154,-0.2874,-0.2874,-0.2874,-0.2874,-0.3053,-0.359,-0.3588,0.0,0.0,0.0,0.0,0.0,0.0,0.0,0.0,0.0,-2.1324,-2.5736,-2.9681,0.0,-3.3823,-3.6678,-3.8337,-3.8131,-3.8815,-3.9021,-3.8893,-3.9991,-4.0361,-3.9979,-4.095,-4.1913,-4.2827,-4.169,-4.2635,-4.5093,-4.3955,-4.4145,-4.5074,-4.414,-4.2898,-4.1149,-4.0203,-4.3486,-4.9026,-5.0822,-5.1308,-5.1266,0.0,0.0,0.0,0.0,0.0,0.0,0.0,0.6781,0.6256,0.5209,0.4799,0.4354,0.359,0.3579,0.3433,0.2613,0.2634,0.0,0.0,0.0,0.0,0.0,0.0,0.0,0.0,0.2057,0.2069,0.2069,0.1812,0.107,-0.0,-0.0,-0.0,-0.0,-0.0,-0.0,0.0,0.0,0.0,0.0,0.0,0.0,0.0,0.0,0.0,0.0,0.0,0.0,0.0,0.0,0.0,0.0,0.0,0.0,0.0,0.0,0.0,0.0,0.1266,0.2202,0.2966,0.2597,0.2198,0.1631,0.0546,0.0,-0.1601,-0.269,-0.2874,-0.2874,-0.2874,-0.3231,-0.359,-0.3949,-0.4305,0.0,0.0,0.0,0.0,0.0,0.0,0.0,0.0,0.0,-2.7558,-3.0794,-3.3782,-3.6168,-3.7456,-3.884,-3.9422,-3.8922,-3.9336,-3.9905,-4.041,-4.1136,-4.1817,-4.2639,-4.2898,-4.3659,-4.4939,-4.4145,-4.4542,-4.5677,-4.6035,-4.641,-4.6597,-4.6336,-4.637,-4.6342,-4.5273,-4.7165,-5.061,-5.1172,-5.1328,-5.1387,0.0,0.0,0.0,0.0,0.0,0.0,0.0,0.6039,0.562,0.4668,0.4243,0.3922,0.3431,0.3554,0.3283,0.263,0.2651,0.0,0.0,0.0,0.0,0.0,0.0,0.0,0.1898,0.2216,0.2384,0.2395,0.2457,0.2019,0.0932,0.0629,0.0471,0.0466,-0.0155,-0.0461,0.0,0.0,0.0,0.0,0.0,0.0,-0.2517,0.0,0.0,0.0,0.0,0.0,0.0,0.0,0.0,0.0,0.0,0.0,0.0,0.0,0.0,0.0,0.0,-0.1636,-0.0735,-0.1107,-0.1095,0.0,0.0,0.0,-0.3385,-0.3228,-0.3233,-0.3412,-0.3412,-0.359,-0.4128,-0.5201,-0.5557,0.0,0.0,0.0,0.0,0.0,0.0,0.0,0.0,-2.9499,-3.2304,-3.4922,-3.6845,-3.8366,-3.9291,-4.0074,-4.0458,-4.022,-4.0492,-4.12,-4.2504,-4.2406,-4.3076,-4.4544,-4.4257,-4.4948,-4.6053,-4.5677,-4.6053,-4.7009,-4.7364,-4.7626,0.0,-4.8171,-4.8535,-4.8881,-4.8805,-4.9762,-5.1406,-5.1404,-5.1483,-5.1329,0.0,0.0,0.0,0.0,0.0,0.0,0.0,0.5474,0.4784,0.3806,0.3064,0.2704,0.2742,0.2984,0.2857,0.2237,0.0,0.0,0.0,0.0,0.0,0.0,0.0,0.0,0.1168,0.1922,0.2395,0.2575,0.2485,0.2515,0.2518,0.1749,0.143,0.1258,-0.0311,-0.1235,0.0,0.0,0.0,0.0,-0.2545,-0.2541,0.0,0.0,0.0,0.0,0.0,0.0,0.0,0.0,0.0,0.0,0.0,0.0,0.0,0.0,0.0,0.0,0.0,0.0,0.0,0.0,0.0,0.0,0.0,0.0,0.0,-0.3947,-0.4128,-0.4487,-0.4666,-0.4666,-0.5201,-0.7156,-0.7517,0.0,0.0,0.0,0.0,0.0,0.0,0.0,0.0,-3.3929,-3.5634,-3.794,-3.8958,-3.9503,-4.0038,-4.0402,-4.1127,-4.2029,-4.1988,-4.2732,-4.4425,-4.3713,-4.4095,-4.5792,-4.5648,-4.5871,-4.6785,-4.6241,-4.7196,-4.8867,-4.7941,-4.819,-4.9531,-4.959,-4.9525,-4.9052,-5.0781,-5.1326,-5.1426,-5.1426,-5.1309,-5.1445,0.0,0.0,0.0,0.0,0.0,0.0,0.0,0.0,0.0,0.0,0.3282,0.2931,0.2702,0.2564,0.2304,0.0,0.0,0.0,0.0,0.0,0.0,0.0,0.0,0.0,0.0292,0.1193,0.1812,0.2575,0.2485,0.2526,0.2548,0.2373,0.2216,0.223,0.173,0.0156,0.0,0.0,0.0,0.0,-0.2846,-0.3008,0.0,0.0,0.0,0.0,-0.3447,-0.397,0.0,0.0,0.0,0.0,0.0,0.0,0.0,0.0,-1.0083,0.0,-1.0585,0.0,-0.7373,-0.7034,-0.6665,-0.6476,0.0,0.0,0.0,0.0,0.0,-0.6806,-0.7513,-0.7517,-0.8207,-0.9897,-1.0313,0.0,0.0,0.0,0.0,0.0,0.0,0.0,0.0,-3.6834,-3.8164,-3.9447,-3.9932,-4.0679,-4.1489,-4.1669,-4.2029,-4.3087,-4.343,-4.3723,-4.4143,-4.4362,-4.5096,-4.6521,-4.6727,-4.7455,-4.8293,-4.8293,-4.8478,-4.8867,-4.9033,-4.9247,-4.9551,-4.9902,-5.0064,-5.0011,-5.03,-5.0823,-5.1426,-5.1426,-5.1445,-5.1095,0.0,0.0,0.0,0.0,0.0,0.0,0.0,0.0,0.0,0.0,0.0,0.0,0.0,0.0,0.0,0.0,0.0,0.0,0.0,0.0,0.0,0.0,0.0,0.1606,-0.0,0.0449,0.1363,0.2575,0.2499,0.2219,0.1745,0.1267,0.1109,0.1269,0.0787,-0.0785,-0.2987,-0.2985,-0.3164,-0.3198,-0.3353,0.0,0.0,0.0,0.0,0.0,-0.3668,-0.4034,0.0,-0.5682,-0.6413,-0.7118,0.0,0.0,0.0,0.0,-0.9446,-1.056,-1.056,-0.9665,-0.8773,-0.8595,-0.8238,-0.7702,-0.752,0.0,0.0,0.0,0.0,-0.8579,-0.9061,-0.9441,-1.015,-1.1794,-1.2408,0.0,0.0,0.0,0.0,0.0,0.0,0.0,0.0,-3.8662,-3.9881,-4.0797,-4.1186,-4.1669,-4.2551,-4.2551,-4.3266,-4.4314,-4.4857,-4.5318,-4.5754,-4.5981,-4.6964,-4.8679,-4.873,-4.9032,-4.9604,-4.9433,-4.9511,-4.9551,-4.9816,-4.9941,-5.0137,-5.0371,-5.0492,-5.0823,-5.0823,-5.0998,-5.1426,-5.1426,-5.1367,-5.1189,0.0,0.0,0.0,0.0,0.0,0.0,0.0,0.0,0.0,0.0,0.0,0.0,0.0,0.0,0.0,0.0,0.0,0.0,0.0,0.0,0.0,0.0,0.1898,0.1315,-0.0,-0.0,0.0758,0.2127,0.2045,0.1593,0.0474,-0.0478,-0.0796,-0.063,-0.1734,-0.2678,-0.3458,-0.3776,-0.3805,-0.385,-0.405,0.0,0.0,0.0,0.0,0.0,0.0,0.0,0.0,-0.5438,-0.6001,-0.6539,-0.7317,0.0,0.0,0.0,0.0,0.0,-0.9308,-0.9683,-1.0049,-0.9857,-0.9491,-0.8952,-0.8413,0.0,0.0,0.0,0.0,0.0,0.0,-1.1009,0.0,0.0,0.0,0.0,0.0,0.0,0.0,0.0,0.0,0.0,-3.8502,-3.9456,-4.0549,-4.1814,-4.2029,-4.2551,-4.3623,-4.3678,-4.4389,-4.5744,-4.6385,-4.699,-4.7898,-4.7976,-4.8952,-5.0884,-5.0337,-5.0194,-5.0274,-5.008,-5.0092,-5.0171,-5.0267,-5.0469,-5.0801,-5.0879,-5.1113,-5.1426,-5.1426,-5.1426,-5.1445,-5.1367,-5.1444,-5.1237,0.0,0.0,0.0,0.0,0.0,0.0,0.0,0.0,0.0,0.0,0.0,0.0,0.0,0.0,0.0,0.0,0.0,0.0,0.0,0.0,0.0,0.0438,0.0292,0.0294,-0.0,-0.0,0.0152,0.0308,0.0316,-0.0161,-0.1132,-0.1458,-0.2256,-0.319,-0.3705,-0.4001,-0.4086,-0.3969,-0.3852,-0.3895,-0.4385,0.0,0.0,0.0,0.0,0.0,0.0,0.0,0.0,-0.5449,-0.6001,-0.6363,-0.6071,0.0,0.0,0.0,0.0,0.0,-0.9491,-1.0092,-1.0135,-0.9509,-1.0204,-1.0738,-0.9843,-1.0733,0.0,0.0,0.0,0.0,0.0,0.0,0.0,0.0,0.0,0.0,0.0,0.0,0.0,0.0,0.0,-3.792,-3.8213,-3.9278,-4.0549,-4.1814,-4.2029,-4.2748,-4.4529,-4.5045,-4.5598,-4.6832,-4.7957,-4.8751,-4.9344,-4.9371,-4.9471,-4.9787,-4.9787,-4.9967,-5.0139,-4.9846,-4.9914,-5.0287,-5.0527,-5.0742,-5.084,-5.1191,-5.1367,-5.1426,-5.1426,-5.1426,-5.1309,-5.13,-5.1371,-5.0848,0.0,0.0,0.0,0.0,0.0,0.0,0.0,0.0,0.0,0.0,0.0,0.0,0.0,0.0,0.0,0.0,0.0,0.0,0.0,0.0,0.161,-0.0,-0.0885,-0.0888,-0.0,-0.0909,-0.1385,-0.1402,-0.1436,-0.2426,-0.4061,-0.4059,-0.4048,-0.4194,-0.4381,-0.4526,-0.4481,-0.4344,-0.4221,-0.427,0.0,0.0,0.0,0.0,0.0,0.0,0.0,0.0,0.0,0.0,-0.4809,-0.5169,-0.4655,0.0,0.0,0.0,0.0,0.0,-0.8595,-0.988,-1.064,-0.9927,-1.065,-1.1357,-1.0931,-1.1804,-1.2698,0.0,0.0,0.0,0.0,0.0,0.0,0.0,0.0,0.0,0.0,0.0,0.0,0.0,0.0,-3.8313,-3.8674,-3.9745,-4.1023,-4.3018,-4.3054,-4.4046,-4.6261,-4.6453,-4.7009,-4.772,-4.8871,-4.955,-4.9729,-5.0175,-5.0499,-5.0337,-5.0558,-5.0779,-5.063,-5.0566,-5.0712,-5.0928,-5.1149,-5.1133,-5.1152,-5.1348,-5.1426,-5.1426,-5.1426,-5.1465,-5.1026,-4.8249,-4.7243,-4.7042,0.0,0.0,0.0,0.0,0.0,0.0,0.0,0.0,0.0,0.0,0.0,0.0,0.0,0.0,0.0,0.0,0.0,0.0,0.0,0.1879,0.1171,-0.0,-0.1338,-0.1494,-0.0301,-0.1843,-0.281,-0.3011,-0.3394,-0.4418,-0.6085,-0.5751,-0.5254,-0.4424,-0.4424,-0.4411,-0.439,-0.4402,-0.4436,-0.4489,0.0,0.0,0.0,0.0,0.0,0.0,0.0,0.0,0.0,0.0,0.0,0.0,0.0,0.0,0.0,-0.4305,-0.5557,-0.7167,-0.8056,-0.9683,-1.0794,-1.067,-1.1231,-1.1765,-1.1542,-1.2407,-1.3102,-1.328,0.0,0.0,0.0,0.0,0.0,0.0,0.0,0.0,0.0,0.0,0.0,-3.5347,-3.7193,-3.8595,-3.9419,-4.0317,-4.1552,-4.3651,-4.4141,-4.505,-4.7199,-4.7495,-4.7856,-4.8295,-4.9192,-4.9613,-4.9693,-5.0479,-5.0925,-5.1047,-5.1188,-5.1287,-5.1156,-5.1269,-5.1435,-5.1553,-5.1483,-5.1426,-5.1426,-5.1426,-5.1017,-5.0608,-5.0919,-5.0554,-4.9092,-4.5376,-4.3979,-4.3915,0.0,0.0,0.0,0.0,0.0,0.0,0.0,0.0,0.0,0.0,0.0,0.0,0.0,0.0,0.0,0.0,0.0,0.0,0.0,0.0573,0.0145,-0.0148,-0.0743,-0.1058,-0.1251,-0.2195,-0.3174,-0.3895,-0.5417,-0.584,-0.545,-0.511,-0.4576,-0.4029,-0.4027,-0.398,-0.3907,-0.395,-0.3993,-0.404,-0.4083,0.0,0.0,0.0,0.0,0.0,0.0,0.0,0.0,0.0,0.0,0.0,0.0,0.0,0.0,-0.5918,-0.6454,-0.6991,-0.9313,-0.9379,-0.9428,-1.1493,-1.2177,-1.2056,-1.1903,-1.2776,-1.3778,-1.4316,-1.4854,0.0,0.0,0.0,0.0,0.0,0.0,0.0,0.0,0.0,-3.5527,-3.753,-3.8448,-3.9242,-3.9839,-4.0726,-4.1683,-4.2597,-4.3851,-4.5185,-4.6114,-4.7405,-4.8169,-4.8315,-4.9108,-4.9731,-4.9693,-5.0116,-5.0558,-5.096,-5.059,-5.0674,-5.1487,-5.0973,-5.1016,-5.1387,-5.1426,-5.1426,-5.1426,-5.1426,-5.016,-4.8515,-4.9771,-4.7826,-4.4348,-4.4028,-4.3799,-4.3867,0.0,0.0,0.0,0.0,0.0,0.0,0.0,0.0,0.0,0.0,0.0,0.0,0.0,0.0,0.0,0.0,0.0,0.0,0.0,-0.1292,-0.1466,-0.1653,-0.1805,-0.1983,-0.2042,-0.2375,-0.3064,-0.3823,-0.5409,-0.5951,-0.5417,-0.5623,-0.491,-0.3832,-0.3856,-0.4017,-0.3987,-0.3671,-0.3535,-0.3573,-0.3416,-0.325,0.0,0.0,0.0,0.0,0.0,0.0,0.0,0.0,0.0,0.0,0.0,0.0,0.0,0.0,-0.6988,-0.7702,-0.9491,-1.0416,-1.1167,-1.246,-1.2942,-1.2924,-1.2746,-1.3288,-1.397,-1.433,-1.5047,-1.6099,0.0,0.0,0.0,0.0,0.0,0.0,0.0,-3.4563,-3.6246,-3.7312,-3.8364,-3.9391,-4.0175,-4.0896,-4.1724,-4.3289,-4.3838,-4.4964,-4.6871,-4.6856,-4.6875,-4.724,-4.7401,-4.7702,-4.7857,-4.7949,-4.8367,-4.8918,-5.0071,-5.0783,-5.1012,-5.1074,-5.1289,-5.1426,-5.1426,-5.0822,-4.9825,-4.9825,-4.8805,-4.7238,-4.8136,-4.7199,-4.5389,-4.4369,-4.3954,-4.3931,0.0,0.0,0.0,0.0,0.0,0.0,0.0,0.0,0.0,0.0,0.0,0.0,0.0,0.0,0.0,0.0,0.0,0.0,-0.1411,-0.2011,-0.2348,-0.2406,-0.2409,-0.2442,-0.2512,-0.2544,-0.2923,-0.3515,-0.4977,-0.5507,-0.5243,-0.528,-0.4579,-0.3346,-0.3539,-0.3544,-0.3533,-0.3377,-0.3229,-0.3081,-0.292,-0.2747,0.0,0.0,0.0,0.0,0.0,0.0,0.0,0.0,0.0,0.0,0.0,0.0,0.0,0.0,-0.7345,-0.806,-1.003,-1.0921,-1.1649,-1.2812,-1.3121,-1.3261,-1.3944,-1.419,-1.4397,-1.4944,-1.6144,-1.7712,-1.931,0.0,0.0,0.0,0.0,0.0,0.0,-3.5,-3.6432,-3.7289,-3.8343,-3.9389,-4.0007,-4.0815,-4.1731,-4.2999,-4.3704,-4.4634,-4.6204,-4.5975,-4.5859,-4.6012,-4.6016,-4.6088,-4.6213,-4.6361,-4.6707,-4.7222,-4.8573,-4.9377,-4.9428,-5.0298,-5.0432,-4.9825,-4.9825,-4.9217,-4.8212,-4.8212,-4.7564,-4.646,-4.6183,-4.6069,-4.5789,-4.4511,-4.3931,-4.3931,0.0,0.0,0.0,0.0,0.0,0.0,0.0,0.0,0.0,0.0,0.0,0.0,0.0,0.0,0.0,0.0,0.0,0.0,-0.0,-0.1432,-0.2318,-0.2226,-0.2378,-0.2421,-0.2511,-0.2544,-0.2751,-0.3311,-0.3763,-0.4319,-0.4611,-0.3934,-0.325,-0.2737,-0.2737,-0.2721,-0.2695,-0.2725,-0.2737,-0.274,-0.277,-0.2765,-0.2742,0.0,0.0,0.0,0.0,0.0,0.0,0.0,0.0,0.0,0.0,0.0,0.0,-0.7881,-0.7885,-0.7889,-1.0743,-1.0382,0.0,0.0,0.0,0.0,-1.5363,-1.5701,-1.5643,-1.6189,-1.8373,-2.0538,-2.1419,-2.46,0.0,0.0,-3.067,-3.2937,-3.4095,-3.5119,-3.6159,-3.7439,-3.8328,-3.9112,-3.9686,-4.0724,-4.1537,-4.1537,-4.321,-4.418,-4.3591,-4.4899,-4.5286,-4.4885,-4.5081,-4.5293,-4.5293,-4.5293,-4.5487,-4.6055,-4.6055,-4.625,-4.6623,-4.8212,-4.8014,-4.6623,-4.6623,-4.6623,-4.6623,-4.6623,-4.6293,-4.5752,-4.3705,-4.3767,-4.5053,-4.4162,-4.3931,-4.3931,0.0,0.0,0.0,0.0,0.0,0.0,0.0,0.0,0.0,0.0,0.0,0.0,0.0,0.0,0.0,0.0,0.0,0.0,-0.0,-0.1005,-0.1456,-0.1467,-0.209,-0.2423,-0.245,-0.2522,-0.2935,-0.3389,-0.3765,-0.4103,-0.4396,-0.3551,-0.2527,-0.1673,-0.236,-0.2701,-0.2692,-0.2702,-0.2718,-0.2739,-0.2747,-0.2759,-0.2769,0.0,0.0,0.0,0.0,0.0,0.0,0.0,0.0,0.0,0.0,0.0,0.0,-0.8063,-0.8421,-0.8599,-1.0921,0.0,0.0,0.0,0.0,0.0,0.0,-1.6331,-1.658,-1.9213,-2.0923,-2.225,-2.4029,-2.6534,0.0,-2.9145,-3.1833,-3.3978,-3.4721,-3.5868,-3.6622,-3.7085,-3.8143,-3.9023,-3.947,-4.0479,-4.105,-4.1332,-4.1833,-4.2562,-4.3362,-4.3112,-4.3105,-4.3556,-4.3354,-4.3023,-4.3152,-4.3473,-4.3658,-4.3924,-4.4962,-4.5735,-4.6623,-4.7021,-4.7021,-4.6623,-4.6623,-4.6023,-4.4868,-4.3935,-4.3698,-4.3721,-4.3363,-4.3747,-4.4162,-4.3947,-4.3931,-4.3947,0.0,0.0,0.0,0.0,0.0,0.0,0.0,0.0,0.0,0.0,0.1014,0.1161,0.0,0.0,0.0,0.0,0.0,0.0,-0.0,-0.0433,-0.073,-0.073,-0.1786,-0.2424,-0.2459,-0.2537,-0.2782,-0.3208,-0.3223,-0.3374,-0.3656,-0.2694,-0.2021,-0.1501,-0.2382,-0.2733,-0.2712,-0.2724,-0.2732,-0.2739,-0.2751,-0.2767,-0.2782,0.0,0.0,0.0,0.0,0.0,0.0,0.0,0.0,0.0,0.0,0.0,0.0,-0.8773,-0.8952,-0.9134,-1.1277,0.0,0.0,0.0,0.0,0.0,0.0,0.0,0.0,0.0,-2.2955,-2.4113,-2.6018,-2.818,0.0,-3.063,-3.2648,-3.4279,-3.4729,-3.5972,-3.6745,-3.6745,-3.8103,-3.905,-3.9275,-4.0186,-4.0672,-4.0901,-4.1242,-4.1796,-4.2385,-4.2097,-4.1964,-4.2376,-4.202,-4.1819,-4.1993,-4.1883,-4.1932,-4.2123,-4.3071,-4.3825,-4.4613,-4.5369,-4.5237,-4.4632,-4.4632,-4.4109,-4.3067,-4.2692,-4.245,-4.2682,-4.3327,-4.3415,-4.3515,-4.35,-4.3515,-4.3547,0.0,0.0,0.0,0.0,0.0,0.0,0.0,0.0,0.0,0.0,0.1719,0.1584,0.0,0.0,0.0,0.0,0.0,0.0,0.0,-0.0,-0.0,-0.0,-0.1334,-0.2281,-0.2363,-0.2413,-0.245,-0.2639,-0.2667,-0.2657,-0.2615,-0.1851,-0.1529,-0.2025,-0.2612,-0.2792,-0.274,-0.2767,-0.2763,-0.274,-0.2772,-0.2785,-0.2791,-0.2815,0.0,0.0,0.0,0.0,0.0,0.0,0.0,0.0,0.0,0.0,-0.7885,-1.0016,-0.9843,-0.9313,0.0,0.0,0.0,0.0,0.0,0.0,0.0,0.0,0.0,0.0,0.0,-2.585,-2.7571,-2.9601,-3.1315,-3.238,-3.3268,-3.4036,-3.4666,-3.593,-3.6692,-3.6723,-3.8243,-3.9228,-3.9228,-3.9949,-4.0352,-4.0319,-4.1261,-4.149,-4.1113,-4.1577,-4.173,-4.1309,-4.1309,-4.1293,-4.1261,-4.0944,-4.0785,-4.0785,-4.115,-4.1309,-4.1325,-4.3083,-4.3247,-4.1849,-4.1849,-4.1628,-4.1526,-4.2197,-4.2398,-4.2554,-4.3225,-4.3232,-4.3083,-4.2836,-4.2651,-4.2712,0.0,0.0,0.0,0.0,0.0,0.0,0.0,0.0,0.0,0.0,0.0,0.0,0.0,0.0,0.0,0.0,0.0,0.0,0.0,-0.0,-0.0,-0.0,-0.0304,-0.0786,-0.1615,-0.2253,-0.2572,-0.2578,-0.2585,-0.2617,-0.2506,-0.1835,-0.1849,-0.2559,-0.2773,-0.2773,-0.2737,-0.2744,-0.2744,-0.274,-0.2772,-0.2797,-0.2816,-0.28,-0.2785,0.0,0.0,0.0,0.0,0.0,0.0,0.0,-0.8417,-0.8773,-0.913,-1.0372,-1.0728,0.0,0.0,0.0,0.0,0.0,0.0,0.0,0.0,0.0,0.0,0.0,0.0,0.0,-2.9624,-3.128,-3.2633,-3.3457,-3.4103,-3.4809,-3.5583,-3.6254,-3.6973,-3.7629,-3.8591,-3.9228,-3.9228,-3.98,-4.0054,-3.9378,-4.0324,-4.0873,-4.029,-4.1087,-4.1325,-4.1309,-4.1309,-4.1182,-4.0896,-4.0832,-4.0785,-4.0785,-4.115,-4.1309,-4.1325,-4.2083,-4.2038,-4.1849,-4.1423,-4.1628,-4.2197,-4.266,-4.3025,-4.3225,-4.308,-4.3237,-4.3083,-4.2419,-4.2171,-4.1939,0.0,0.0,0.0,0.0,0.0,0.0,0.0,0.0,0.0,0.0,0.0,0.0,0.0,0.0,0.0,0.0,0.0,0.0,0.0,0.0,-0.0,-0.0,-0.0,-0.0481,-0.1291,-0.1774,-0.2091,-0.256,-0.2545,-0.257,-0.263,-0.2159,-0.2189,-0.274,-0.2785,-0.2788,-0.2761,-0.2776,-0.2773,-0.2762,-0.2792,-0.2814,-0.2826,-0.3512,-0.3655,-0.3962,-0.5301,0.0,0.0,0.0,0.0,0.0,0.0,0.0,-1.0555,-1.1799,-1.2154,0.0,0.0,0.0,0.0,0.0,0.0,0.0,0.0,0.0,0.0,0.0,0.0,0.0,0.0,-3.1826,-3.2816,-3.3844,-3.4175,-3.4823,-3.5862,-3.6625,-3.7233,-3.8161,-3.8682,-3.9079,-3.9079,-3.9229,-3.9252,-3.9221,-3.9746,-4.0212,-4.0385,-4.0759,-4.1055,-4.1055,-4.0912,-4.0737,-4.0546,-4.0388,-4.0292,-4.0308,-4.0817,-4.1246,-4.1579,-4.1754,-4.1849,-4.1849,-4.1218,-4.1421,-4.1974,-4.211,-4.2258,-4.2601,-4.2728,-4.2419,-4.2217,-4.1985,-4.1535,-4.1085,0.0,0.0,0.0,0.0,0.0,0.0,0.0,0.0,0.0,0.0,0.0,0.0,0.0,0.0,0.0,0.0,0.0,0.0,0.0,0.0,0.0,-0.0462,-0.0479,-0.0648,-0.1284,-0.1458,-0.1942,-0.256,-0.2534,-0.254,-0.2577,-0.2656,-0.2714,-0.2755,-0.2806,-0.2987,-0.3132,-0.3153,-0.3325,-0.3479,-0.3505,-0.3522,-0.3709,-0.4756,-0.5046,-0.5314,-0.6915,-0.7465,-0.766,-0.9306,0.0,0.0,0.0,0.0,-1.1976,-1.323,-1.3407,0.0,0.0,0.0,0.0,0.0,0.0,0.0,0.0,0.0,0.0,0.0,0.0,0.0,0.0,-3.2139,-3.2903,-3.3901,-3.4347,-3.4981,-3.5996,-3.6959,-3.7678,-3.8388,-3.8878,-3.908,-3.8931,-3.8507,-3.8614,-3.9349,-3.9579,-3.9887,-4.0569,-4.0785,-4.0753,-4.0705,-4.0435,-4.026,-4.0197,-3.9911,-3.9768,-3.9768,-4.0467,-4.0933,-4.1549,-4.1613,-4.1644,-4.1833,-4.1218,-4.1199,-4.1541,-4.1283,-4.1408,-4.1744,-4.1848,-4.1768,-4.1333,-4.1115,-4.0897,-4.0285,0.0,0.0,0.0,0.0,0.0,0.0,0.0,0.0,0.0,0.0,0.3299,0.3047,0.0,0.0,0.0,0.0,0.0,0.0,0.0,0.0,0.0,-0.2158,-0.2237,-0.1952,-0.1299,-0.2115,-0.2428,-0.256,-0.2556,-0.2582,-0.2637,-0.2675,-0.2736,-0.2816,-0.2825,-0.3512,-0.4513,-0.4478,-0.5171,-0.6416,-0.6369,-0.6419,-0.6517,-0.6631,-0.6596,-0.6925,-0.8663,-0.9412,-0.984,-1.1614,-1.2232,0.0,0.0,0.0,-1.3407,-1.3591,-1.4115,0.0,0.0,0.0,0.0,0.0,0.0,0.0,0.0,0.0,0.0,0.0,0.0,0.0,0.0,-3.2645,-3.3787,-3.4799,-3.5439,-3.6026,-3.6684,-3.7837,-3.876,-3.8721,-3.9194,-3.9334,-3.9212,-3.8783,-3.8553,-3.85,-3.9335,-3.9752,-3.9381,-4.0385,-4.0658,-4.0372,-4.0324,-4.0149,-3.9847,-3.9784,-3.9768,-3.9768,-4.007,-4.0404,-4.0591,-4.0477,-4.1012,-4.1833,-4.0806,-4.08,-4.1541,-4.1283,-4.1408,-4.1729,-4.1415,-4.1333,-4.1333,-4.0708,-4.0271,-3.9818,0.0,0.0,0.0,0.0,0.0,0.0,0.0,0.0,0.0,0.0,0.0,0.3626,0.0,0.0,0.0,0.2248,0.1563,0.0862,-0.0,-0.074,0.0,-0.5245,-0.4416,-0.4001,-0.3866,-0.4188,-0.4323,-0.3957,-0.3957,-0.4031,-0.4174,-0.3715,-0.3273,-0.2829,-0.2829,-0.3524,-0.4905,-0.4013,-0.4867,-0.6765,-0.6085,-0.6274,-0.6989,-0.7868,-0.8193,-0.833,-0.9773,-1.0524,-1.093,-1.1704,-1.2473,-1.2875,-1.3236,0.0,0.0,0.0,-1.4646,0.0,0.0,0.0,0.0,0.0,0.0,0.0,0.0,0.0,0.0,0.0,0.0,0.0,0.0,-3.337,-3.4262,-3.5105,-3.55,-3.6238,-3.7087,-3.7704,-3.8386,-3.8905,-3.8798,-3.8553,-3.849,-3.7805,-3.7745,-3.8089,-3.8339,-3.8707,-3.9289,-3.9334,-3.9361,-3.9598,-3.9205,-3.9143,-3.8987,-3.9174,-3.947,-3.9844,-3.9736,-3.9952,-4.0106,-4.0056,-4.0225,-4.0821,-4.0187,-4.0072,-4.0639,-4.0153,-4.0167,-4.0756,-4.0654,-4.0311,-3.9747,-3.9907,-3.947,-3.892,0.0,0.0,0.0,0.0,0.0,0.0,0.0,0.0,0.0,0.0,0.0,0.0,0.0,0.0,0.0,0.0,0.113,0.0286,-0.087,-0.1916,0.0,0.0,-0.5767,-0.5361,-0.5725,-0.5743,-0.5402,-0.5022,-0.5036,-0.5166,-0.5401,-0.4781,-0.4187,-0.3769,-0.357,-0.4089,-0.5314,-0.423,-0.5438,-0.7694,-0.6124,-0.6454,-0.7815,-0.8424,-0.8939,-0.9586,-1.0044,-1.0791,-1.1505,-1.1776,-1.2343,-1.323,-1.3761,-1.4115,0.0,0.0,0.0,-1.5786,0.0,0.0,0.0,0.0,0.0,0.0,0.0,0.0,0.0,0.0,0.0,0.0,0.0,-3.3884,-3.4855,-3.5485,-3.5927,-3.6504,-3.7368,-3.7655,-3.8064,-3.8837,-3.835,-3.7969,-3.7933,-3.7089,-3.6971,-3.7799,-3.764,-3.7946,-3.9073,-3.8583,-3.8399,-3.8776,-3.8476,-3.8295,-3.8203,-3.8539,-3.8905,-3.9115,-3.9079,-3.9109,-3.883,-3.8702,-3.8881,-3.912,-3.912,-3.9371,-3.9683,-3.9181,-3.9163,-3.9492,-3.9641,-3.907,-3.8497,-3.9038,-3.8617,-3.7971,0.0,0.0,0.0,0.0,0.0,0.0,0.0,0.0,0.0,0.0,0.0,0.2902,0.1145,0.0429,0.0142,0.0138,-0.181,-0.2963,-0.3286,-0.3368,-0.4183,-0.5755,-0.5736,0.0,-0.5025,-0.5082,-0.5082,-0.5022,-0.5079,-0.5229,-0.5466,-0.5526,-0.5887,-0.6727,-0.5498,-0.5602,-0.6439,-0.6832,-0.8253,-1.0342,-0.7792,-0.8089,-0.9903,-0.7899,-0.8456,-1.0399,-0.9623,-1.055,-1.2154,-1.2698,-1.323,-1.3761,-1.4646,-1.4992,-1.4999,0.0,0.0,0.0,0.0,0.0,0.0,0.0,0.0,0.0,0.0,0.0,0.0,0.0,0.0,0.0,0.0,-3.4754,-3.5456,-3.6378,-3.6948,-3.7383,-3.7633,-3.853,-3.8867,-3.8207,-3.8081,-3.7948,-3.8163,-3.7153,-3.6875,-3.7504,-3.7561,-3.7551,-3.788,-3.8189,-3.8203,-3.8203,-3.8508,-3.8524,-3.8203,-3.8539,-3.8356,-3.7491,-3.7717,-3.7244,-3.6551,-3.623,-3.6181,-3.6399,-3.7825,-3.8423,-3.8325,-3.8426,-3.8539,-3.8422,-3.854,-3.844,-3.7811,-3.8146,-3.786,-3.7045,0.0,0.0,0.0,0.0,0.0,0.0,0.0,0.0,0.0,0.0,0.0,0.0,0.0,-0.0724,-0.1444,-0.1431,-0.4052,-0.5716,-0.5937,-0.5388,-0.5591,-0.6735,-0.6379,-0.6298,-0.6662,-0.6691,-0.6691,-0.6662,-0.685,-0.7004,-0.7612,-0.6716,-0.6892,-0.7471,-0.5644,-0.5652,-0.6932,-0.5149,-0.6341,-0.9559,-0.7356,-0.769,-0.9472,-0.9396,-0.9791,-1.0155,-1.0272,-1.1389,-1.2843,-1.274,-1.3071,-1.3898,-1.4792,-1.5077,-1.5168,-1.5873,-1.6832,-1.7848,-1.9276,0.0,0.0,0.0,0.0,0.0,0.0,0.0,0.0,0.0,0.0,0.0,0.0,-3.5695,-3.6202,-3.6553,-3.7163,-3.7589,-3.7826,-3.8116,-3.8175,-3.7881,-3.7607,-3.727,-3.7287,-3.6851,-3.67,-3.6934,-3.6942,-3.7051,-3.7581,-3.7264,-3.7506,-3.7914,-3.7835,-3.7844,-3.8156,-3.7648,-3.7446,-3.7331,-3.675,-3.639,-3.5876,-3.5787,-3.5327,-3.4931,-3.5748,-3.645,-3.676,-3.7273,-3.7221,-3.7192,-3.749,-3.7363,-3.6628,-3.7339,-3.7032,-3.6342,0.0,0.0,0.0,0.0,0.0,0.0,0.0,0.0,0.0748,0.0748,0.0,0.0,0.0,0.0,-0.3688,-0.3962,-0.592,-0.7331,-0.772,-0.7141,-0.7205,-0.7946,-0.7413,-0.7342,-0.7911,-0.8105,-0.8105,-0.8076,-0.8105,-0.8561,-0.8959,-0.8293,-0.8313,-0.8873,-0.6725,-0.6419,-0.7415,-0.5796,-0.6806,-0.9299,-0.6908,-0.723,-0.9356,-0.8807,-0.9208,-1.0097,-1.0058,-1.118,-1.2618,-1.2694,-1.3029,-1.3861,-1.5125,-1.5742,-1.5948,-1.6417,-1.7411,-1.8475,-2.0018,-2.1532,0.0,0.0,0.0,0.0,0.0,0.0,0.0,0.0,0.0,0.0,0.0,0.0,-3.6694,-3.7095,-3.7258,-3.7637,-3.7971,-3.7533,-3.727,-3.7273,-3.6793,-3.6565,-3.6564,-3.6621,-3.6516,-3.6414,-3.6501,-3.6516,-3.6809,-3.64,-3.6404,-3.7241,-3.6737,-3.6738,-3.727,-3.675,-3.6244,-3.6343,-3.5837,-3.5208,-3.4716,-3.4716,-3.4405,-3.4014,-3.4523,-3.5055,-3.5758,-3.6369,-3.6551,-3.6385,-3.6788,-3.6408,-3.5891,-3.6394,-3.6356,-3.5979,0.0,0.0,0.0,0.0,0.0,0.0,0.0,0.0,-0.0152,-0.0152,0.0,0.0,0.0,0.0,0.0,-0.715,-0.7285,-0.7625,-0.8629,-0.8731,-0.8726,-0.8926,-0.8719,-0.8499,-0.8596,-0.8694,-0.8694,-0.8596,-0.9188,-0.9459,-0.9564,-0.9773,-1.0392,-1.1069,-0.9503,-0.8469,-0.7874,-0.9078,-0.9959,-0.994,-0.6433,-0.7061,-0.9564,-0.603,-0.6977,-1.0039,-0.8756,-0.9879,-1.2013,-1.238,-1.2925,-1.3657,-1.5651,-1.6806,-1.7348,-1.7169,-1.7596,-1.8627,0.0,0.0,0.0,0.0,0.0,0.0,0.0,0.0,0.0,0.0,0.0,0.0,0.0,0.0,-3.6824,-3.7869,-3.7649,-3.7337,-3.7652,-3.7008,-3.6397,-3.6397,-3.5865,-3.5688,-3.6306,-3.6306,-3.6163,-3.5863,-3.612,-3.6163,-3.5834,-3.5224,-3.5305,-3.5893,-3.5641,-3.5641,-3.5921,-3.5627,-3.5118,-3.4227,-3.4514,-3.4299,-3.3414,-3.3414,-3.3414,-3.3427,-3.3748,-3.4449,-3.5103,-3.573,-3.5886,-3.6033,-3.6033,-3.5612,-3.5231,-3.5525,-3.5631,-3.5725,0.0,0.0,0.0,0.0,0.0,-0.1898,-0.1913,-0.1902,-0.2206,0.0,0.0,0.0,-0.5832,-0.6179,-0.6893,-0.7848,-0.7802,-0.8119,-0.9021,-0.8983,-0.9016,-0.915,-0.9095,-0.9198,-0.93,-0.9328,-0.9296,-0.9198,-0.9392,-0.9588,-0.9953,-0.9831,-1.0063,-1.084,-1.0967,-1.0509,-0.9447,-0.8371,-0.8344,-0.894,-0.7721,-0.7743,-0.8754,-0.8584,-0.916,-0.9954,-1.0722,-1.2284,-1.359,-1.3602,-1.4172,-1.4979,-1.5935,-1.6626,-1.7372,-1.7679,-1.8857,-2.0252,-2.2036,0.0,0.0,0.0,0.0,0.0,0.0,0.0,0.0,0.0,0.0,0.0,0.0,0.0,0.0,-3.715,-3.715,-3.6969,-3.7054,-3.6801,-3.6273,-3.6092,-3.5995,-3.5703,-3.572,-3.5949,-3.5998,-3.59,-3.6376,-3.6276,-3.5562,-3.5557,-3.5655,-3.5599,-3.5949,-3.6075,-3.5935,-3.5221,-3.4826,-3.4542,-3.4003,-3.3695,-3.3414,-3.3414,-3.3414,-3.3427,-3.3748,-3.4042,-3.4528,-3.4963,-3.5152,-3.5119,-3.5321,-3.5401,-3.5231,-3.5525,-3.5765,-3.6006,0.0,0.0,0.0,0.0,0.0,-0.4557,-0.3275,-0.3925,-0.473,0.0,0.0,0.0,-0.826,-0.8176,-0.8293,-0.9127,-0.925,-0.9424,-0.9868,-0.9818,-0.9828,-1.0111,-0.9884,-0.9968,-1.0027,-1.0076,-1.0047,-0.9938,-1.0114,-1.0259,-1.0556,-1.0391,-1.0544,-1.103,-1.1394,-1.1299,-1.0745,-0.9536,-0.9191,-0.9273,-0.8497,-0.8537,-0.9003,-0.9434,-1.0046,-1.0865,-1.1852,-1.3112,-1.4335,-1.4498,-1.5081,-1.5904,-1.6175,-1.7157,-1.8059,-1.8647,-2.0134,-2.1732,-2.3178,-2.5003,-2.6759,-2.7938,0.0,0.0,-3.0531,-3.0929,-3.1692,0.0,0.0,0.0,0.0,0.0,0.0,-3.6246,-3.6259,-3.6092,-3.6425,-3.6078,-3.5787,-3.5423,-3.554,-3.5349,-3.539,-3.5431,-3.554,-3.5554,-3.5823,-3.5396,-3.4688,-3.518,-3.5263,-3.4881,-3.5225,-3.5321,-3.5156,-3.4422,-3.4071,-3.4071,-3.3695,-3.3414,-3.3414,-3.3414,-3.3414,-3.3427,-3.3748,-3.4055,-3.4336,-3.4643,-3.483,-3.4977,-3.5271,-3.5378,-3.5418,-3.5698,-3.6006,-3.6273,0.0,0.0,-0.2482,-0.2455,-0.5946,-0.7493,-0.4323,-0.5703,-0.7066,0.0,-0.831,-0.9808,-1.0661,-1.0398,-1.0289,-1.0645,-1.0802,-1.084,-1.0784,-1.0949,-1.0992,-1.1118,-1.0872,-1.0755,-1.0765,-1.0692,-1.0687,-1.075,-1.1095,-1.1215,-1.1107,-1.1221,-1.127,-1.1275,-1.1577,-1.1632,-1.1455,-1.1632,-1.1167,-1.0192,-0.9277,-0.9472,-1.0259,-0.9232,-1.028,-1.2416,-1.2665,-1.3418,-1.4508,-1.5342,-1.6144,-1.6861,-1.7154,-1.7962,-1.9238,-2.0208,-2.1615,-2.3273,-2.4747,-2.626,-2.7852,-2.9633,-3.002,0.0,-3.1899,-3.1797,-3.1623,-3.3456,0.0,0.0,0.0,0.0,0.0,-3.5143,-3.5058,-3.5039,-3.5782,-3.5428,-3.5137,-3.4843,-3.4843,-3.4944,-3.5061,-3.4993,-3.4966,-3.4979,-3.4667,-3.4138,-3.3467,-3.4138,-3.4274,-3.3828,-3.3868,-3.3868,-3.3841,-3.3547,-3.3414,-3.3414,-3.3414,-3.3414,-3.3414,-3.3414,-3.3414,-3.3427,-3.3788,-3.4082,-3.4349,-3.467,-3.495,-3.5217,-3.5485,-3.5605,-3.5672,-3.5965,-3.6259,-3.65,-0.2611,-0.2649,-0.2517,-0.2007,-0.5575,-0.7684,-0.4986,-0.6209,-0.7417,-0.757,-0.9045,-1.0418,-1.1118,-1.1074,-1.0934,-1.0771,-1.1047,-1.1004,-1.0682,-1.0945,-1.1118,-1.1232,-1.1259,-1.1143,-1.1239,-1.1266,-1.1218,-1.1095,-1.1275,-1.1215,-1.1107,-1.1221,-1.127,-1.1275,-1.1754,-1.181,-1.1632,-1.2343,-1.2062,-1.1278,-1.073,-1.0653,-1.1011,-1.1355,-1.2227,-1.3118,-1.3869,-1.4818,-1.6096,-1.7473,-1.8216,-1.8955,-1.9957,-2.0277,-2.0681,-2.3262,-2.4245,-2.4798,-2.6454,-2.8102,-2.9307,-2.94,-3.0135,0.0,-3.059,-3.0616,-3.0962,0.0,0.0,0.0,0.0,0.0,0.0,0.0,-3.3935,-3.4589,-3.5334,-3.5391,-3.5431,-3.5151,-3.5324,-3.5351,-3.5267,-3.4594,-3.4045,-3.4045,-3.3341,-3.3016,-3.3774,-3.3625,-3.3343,-3.3507,-3.3748,-3.3761,-3.3507,-3.344,-3.3414,-3.3414,-3.3414,-3.3414,-3.3414,-3.3414,-3.3414,-3.344,-3.4002,-3.4269,-3.4362,-3.4897,-3.5151,-3.5204,-3.5257,-3.5418,-3.5672,-3.5965,-3.6259,-3.654,-0.2005,-0.2369,-0.2397,-0.1711,-0.3797,-0.576,-0.5822,-0.7095,-0.8361,-0.8534,-0.9554,-1.0249,-1.0651,-1.0661,-1.0505,-1.0382,-1.0697,-1.0666,-1.0303,-1.0967,-1.1138,-1.1009,-1.1186,-1.1389,-1.1455,-1.1455,-1.1427,-1.1362,-1.1362,-1.1511,-1.1631,-1.1511,-1.1748,-1.2165,-1.2165,-1.2022,-1.2079,-1.255,-1.2419,-1.1645,-1.1699,-1.1862,-1.2091,-1.3037,-1.3807,-1.4801,-1.5757,-1.6646,-1.7667,-1.788,-1.8447,-1.9392,-2.067,-2.1027,-2.1748,-2.5356,-2.6272,-2.6476,-2.8113,-2.9296,-3.0193,-3.0193,-3.0587,0.0,0.0,-3.0509,-3.0342,-3.0877,0.0,0.0,0.0,0.0,0.0,-3.2933,-3.3614,-3.4255,-3.4267,-3.4913,-3.5152,-3.4795,-3.49,-3.4714,-3.4359,-3.3745,-3.3227,-3.3085,-3.2943,-3.2993,-3.3055,-3.3101,-3.2956,-3.2624,-3.297,-3.3171,-3.3013,-3.3013,-3.3213,-3.3414,-3.3414,-3.3494,-3.3654,-3.3654,-3.3734,-3.3895,-3.4349,-3.4536,-3.4576,-3.5017,-3.5191,-3.5231,-3.5511,-3.5725,-3.5899,-3.634,-3.6687,-3.6981,-0.154,-0.1726,-0.1914,-0.1395,-0.2107,-0.3367,-0.5375,-0.7588,-0.8915,-0.9494,-0.9862,-0.9839,-0.9247,-0.9295,-0.9317,-0.9092,-0.9572,-0.9545,-0.8853,-1.0252,-1.1115,-1.0926,-1.1099,-1.1455,-1.1455,-1.1455,-1.1455,-1.1632,-1.1632,-1.181,-1.2165,-1.1988,-1.2223,-1.2861,-1.2598,-1.2454,-1.2571,-1.3004,-1.2717,-1.2369,-1.2829,-1.2952,-1.3104,-1.4018,-1.527,-1.6316,-1.7523,-1.8611,-1.9189,-1.8336,-1.8708,-1.9615,-2.0824,-2.1604,-2.2832,-2.6397,-2.7273,-2.7375,-2.8403,-2.9403,-3.0047,-2.9999,-3.0137,-3.028,0.0,0.0,0.0,-3.0725,0.0,0.0,0.0,0.0,0.0,0.0,0.0,0.0,0.0,-3.398,0.0,-3.3965,-3.428,-3.4095,-3.3345,-3.2824,-3.2186,-3.1755,-3.2315,-3.2545,-3.1959,-3.254,-3.2611,-3.1819,-3.2358,-3.2559,-3.2611,-3.2559,-3.296,-3.3414,-3.3467,-3.3641,-3.3895,-3.3948,-3.4095,-3.4336,-3.4629,-3.4763,-3.479,-3.5084,-3.5231,-3.5324,-3.5805,-3.6019,-3.6139,-3.6647,-3.7088,-3.7382,-0.1542,-0.069,-0.0523,-0.1233,-0.1412,-0.1594,-0.1969,-0.5926,-0.9234,-1.0147,-1.017,-0.9292,-0.6597,-0.6193,-0.6207,-0.612,-0.6675,-0.6407,-0.5032,-0.8005,-1.0223,-1.1298,-1.0926,-1.1099,-1.1455,-1.1455,-1.1632,-1.2165,-1.2165,-1.2165,-1.2165,-1.252,-1.2532,-1.2372,-1.283,-1.3132,-1.3248,0.0,-1.4075,-1.4552,-1.5142,-1.4172,-1.3005,-1.4592,-1.5645,-1.6557,-1.8737,-1.9983,-2.0388,-2.0619,-2.1012,-2.1694,-2.2767,-2.3386,-2.369,-2.5818,-2.6102,-2.6047,-2.6368,-2.7235,-2.777,-2.6338,-2.7589,-2.9056,-2.8157,0.0,-2.9243,-2.9997,0.0,0.0,0.0,0.0,0.0,0.0,0.0,0.0,-3.1777,-3.2443,-3.2955,-3.2955,-3.3823,-3.3939,-3.2798,-3.1843,-3.1098,-3.0465,-3.0258,-3.0423,-3.1049,-3.1226,-3.1416,-3.1819,-3.2177,-3.2364,-3.2611,-3.2762,-3.316,-3.3414,-3.3694,-3.3855,-3.3895,-3.4148,-3.4282,-3.4336,-3.4629,-3.4763,-3.479,-3.5084,-3.5351,-3.5591,-3.5658,-3.5845,-3.6112,-3.6433,-3.6901,-3.7382,-0.0524,-0.0176,-0.0177,-0.0535,0.0,-0.0537,-0.0542,-0.3857,-0.6511,-0.6901,-0.7008,-0.6128,-0.3835,-0.3074,-0.3466,-0.483,-0.514,-0.5084,-0.4314,-0.5713,-0.7134,-0.8648,-0.9946,-1.065,-1.047,-1.1199,-1.1665,-1.2275,-1.2206,-1.252,-1.3053,-1.2875,-1.3183,-1.3776,-1.3751,0.0,-1.4304,0.0,-1.4513,0.0,-1.5003,-1.4555,-1.3438,-1.6307,-1.8055,-1.9265,-2.0269,-2.1108,-2.1199,-2.0826,-2.1132,-2.185,-2.3224,-2.3295,-2.3435,-2.6124,-2.6275,-2.5433,-2.6142,-2.6579,-2.6969,-2.6457,-2.7131,-2.7695,-2.736,-2.7728,-2.8322,-2.8938,0.0,0.0,0.0,0.0,0.0,0.0,-3.1394,-3.1918,0.0,0.0,-3.2226,-3.1981,0.0,0.0,-3.1135,-3.079,-3.0587,-3.0226,-3.0307,-3.0411,-3.0374,-3.0977,-3.1177,-3.1177,-3.1463,-3.1926,-3.2611,-3.2694,-3.2986,-3.3694,-3.3828,-3.4068,-3.4389,-3.4523,-3.467,-3.4843,-3.5137,-3.5059,-3.4848,-3.4966,-3.4977,-3.4795,-3.4795,-3.541,-3.6366,-3.6207,-3.6682,-3.6958,0.0887,0.0357,-0.0,-0.0,-0.0,-0.0,-0.0,-0.1848,-0.3189,-0.2447,-0.2496,-0.195,-0.0588,-0.0,-0.0395,-0.2374,-0.2353,-0.2525,-0.3078,-0.3394,-0.4491,-0.6429,-0.8492,-0.9373,-0.8987,-1.048,-1.1475,-1.1859,-1.2495,-1.3004,-1.3765,-1.3541,-1.3913,-1.4839,0.0,-1.4669,-1.5165,0.0,-1.5159,-1.4342,-1.5486,-1.566,-1.534,-1.7573,-1.94,-2.1088,-2.1357,-2.159,-2.1799,-2.1176,-2.147,-2.217,-2.3001,-2.2984,-2.3259,-2.5507,-2.5395,-2.4679,-2.4854,-2.5271,-2.5702,-2.5634,-2.5798,-2.6205,-2.6192,-2.6627,-2.7267,-2.8054,-2.8249,0.0,0.0,0.0,-3.0119,-3.0328,0.0,-3.1428,0.0,-3.0764,0.0,0.0,0.0,0.0,0.0,-3.0202,-3.031,-3.0117,-3.0362,-3.0228,-2.9695,-3.0491,-3.0727,-3.0615,-3.12,-3.1739,-3.2611,-3.2812,-3.3171,-3.3895,-3.4055,-3.4349,-3.4763,-3.4843,-3.5044,-3.5112,-3.5325,-3.5029,-3.4665,-3.4678,-3.4617,-3.4426,-3.4426,-3.5042,-3.622,-3.5975,-3.6181,-3.67,0.2867,0.1257,-0.0,-0.0,0.0,-0.0,-0.0,-0.0,0.0547,0.2655,0.2862,0.2915,0.3051,0.3043,0.3061,0.314,0.2845,0.2005,-0.0,-0.0977,-0.2867,-0.5792,-0.6499,-0.7002,-0.731,-0.9445,-1.0708,-1.1054,-1.3072,-1.4068,-1.4203,-1.4611,-1.4514,-1.4617,-1.5133,-1.5642,-1.6076,-1.6218,-1.6612,-1.7148,-1.7311,-1.795,-1.8839,-1.7827,-1.8644,-2.035,-2.0963,-2.1362,-2.1525,-2.2209,-2.2553,-2.2659,-2.2489,-2.2909,-2.3318,-2.2473,-2.2988,-2.3233,-2.2229,-2.2703,-2.3291,-2.1985,-2.2929,-2.3952,-2.3568,-2.4202,-2.5691,-2.8016,-2.6934,-2.6713,-3.0302,-2.9671,-2.8924,-2.9975,-3.0815,0.0,0.0,-2.9543,0.0,-2.9441,-2.9646,0.0,0.0,-2.9972,-2.9815,-2.9803,-2.9332,-2.9163,-2.9405,-2.9417,-2.9736,-3.0602,-3.12,-3.1739,-3.2611,-3.3013,-3.3574,-3.3895,-3.4469,-3.475,-3.4776,-3.5057,-3.4914,-3.475,-3.4763,-3.4489,-3.4312,-3.4312,-3.4464,-3.4731,-3.4731,-3.4884,-3.5138,-3.5164,-3.5533,-3.6016,0.2872,0.2335,0.1975,0.1975,0.0,0.144,0.0181,0.0547,0.0,0.0,0.0,0.0,0.0,0.3375,0.3393,0.3425,0.1906,0.0629,-0.0,-0.2451,-0.4052,-0.4091,-0.6206,-0.7153,-0.682,-0.9669,-1.0925,-1.0271,-1.3186,-1.4121,-1.3483,-1.4584,-1.5242,-1.5435,0.0,-1.5954,0.0,0.0,0.0,0.0,0.0,-1.7827,-1.8932,-1.8649,-1.9381,-2.043,-2.0606,-2.0848,-2.1164,-2.1285,-2.1503,-2.158,-2.1741,-2.1564,-2.1564,-2.1503,-2.1426,-2.1525,-2.1685,-2.2194,-2.2547,-2.2553,-2.289,-2.3222,-2.2902,-2.3889,-2.501,-2.5579,-2.5858,-2.6458,-2.7282,-2.7059,-2.6702,-2.6969,-2.7208,-2.7318,0.0,-2.6002,-2.6089,-2.7056,-2.8215,0.0,0.0,0.0,-2.9057,-2.7893,-2.8516,-2.8982,-2.8898,-2.9055,-2.9665,-3.0922,-3.1132,-3.1836,-3.3519,-3.3316,-3.3363,-3.3849,-3.3837,-3.3823,-3.4004,-3.4095,-3.4077,-3.4132,-3.2989,-3.2579,-3.2147,-3.1275,-3.1424,-3.2102,-3.2372,-3.3135,-3.4048,-3.447,-3.4719,-3.5118,0.2919,0.2904,0.2886,0.2875,0.2883,0.2535,0.0,0.0,0.0,0.0,0.3423,0.0,0.2775,0.0,0.3029,0.0,-0.0,-0.13,-0.1282,-0.4243,-0.53,-0.384,-0.629,-0.7078,-0.6073,-0.9098,-1.0401,-0.9828,-1.2908,-1.4256,-1.3893,-1.4983,-1.5635,-1.6015,0.0,-1.6266,-1.6714,0.0,-1.6961,0.0,0.0,-1.6862,-1.7778,-1.8013,-1.8967,-2.0073,-2.0255,-2.0416,-2.0864,-2.1108,-2.1131,-2.1145,-2.1362,-2.1168,-2.0914,-2.1131,-2.1086,-2.0952,-2.1422,-2.1666,-2.2234,-2.2769,-2.2604,-2.2391,-2.2489,-2.3312,-2.3994,-2.4539,-2.479,-2.543,-2.6485,-2.5831,-2.5263,-2.5771,-2.575,-2.5356,0.0,-2.37,-2.3668,-2.4832,-2.6089,0.0,0.0,-2.7266,-2.73,-2.5862,-2.6677,-2.7249,-2.758,-2.7897,-2.8788,-3.0436,-3.0935,-3.179,-3.3258,-3.2648,-3.2515,-3.3078,-3.2114,-3.1826,-3.1984,-3.1771,-3.1737,-3.1856,-3.0608,-3.0186,-2.9841,-2.8947,-2.948,-3.052,-3.0913,-3.1643,-3.2455,-3.3588,-3.4269,-3.4436,0.3001,0.2962,0.2916,0.2886,0.3082,0.0,0.0,0.0,0.078,0.0,0.3277,0.2946,0.1729,0.2384,0.2175,-0.0,-0.2431,-0.3984,-0.3957,-0.6141,-0.68,-0.5053,-0.6581,-0.675,-0.5353,-0.7596,-0.8996,-0.9644,-1.259,-1.4434,-1.5335,-1.5837,-1.6049,-1.6334,-1.6334,0.0,-1.7012,-1.725,-1.7471,-1.7004,-1.5532,-1.498,-1.5249,-1.5818,-1.7293,-1.8992,-2.0084,-2.0295,-2.0224,-2.1247,-2.1593,-2.1593,-2.1593,-2.1254,-2.1114,-2.1114,-2.1232,-2.1291,-2.1004,-2.1159,-2.1745,-2.244,-2.2071,-2.1689,-2.256,-2.2621,-2.2924,-2.4579,-2.365,-2.3546,-2.7338,-2.5704,-2.4237,-2.594,-2.5801,-2.4989,-2.3906,-2.2779,-2.243,-2.3174,-2.3665,-2.4803,0.0,-2.5513,-2.4497,-2.4224,-2.385,0.0,0.0,-2.6005,-2.7159,-2.9578,-3.0378,-3.1135,-3.2034,-3.1328,-3.1174,-3.1186,-2.9709,-2.9178,-2.8963,-2.8522,-2.8119,-2.8091,-2.7673,-2.7618,-2.7601,-2.7601,-2.8723,-3.0332,-3.0565,-3.0676,-3.089,-3.2715,-3.3726,-3.4221,0.3005,0.226,0.2068,0.2791,0.2924,0.2908,0.0,0.0,0.0,0.0,0.17,0.0656,0.0451,-0.0226,-0.0906,-0.1363,-0.4549,-0.7077,-0.8028,-0.8698,-0.8724,-0.8087,-0.9236,-0.8734,-0.6145,-1.0588,-1.1159,-0.7965,-1.3487,-1.5054,-1.3062,-1.5352,-1.6245,-1.6014,0.0,0.0,-1.5741,-1.6263,-1.6163,-1.5543,-1.3739,-1.3444,-1.4133,-1.4325,-1.4587,-1.5624,-1.8362,-1.9626,-1.977,-1.9977,-2.0053,-2.0144,-2.0144,-2.0109,-2.0088,-2.0088,-2.0178,-2.0311,-2.0836,-2.1254,-2.1589,-2.2803,-2.2546,-2.2258,-2.2118,-2.2323,-2.252,-2.2213,-2.1988,-2.2088,-2.2459,-2.178,-2.1358,-2.1707,-2.1789,-2.1397,-2.0725,-2.032,-2.0637,-2.2051,-2.1282,-2.1264,-2.2779,-2.3938,-2.3899,-2.2038,-2.3138,-2.3871,-2.4041,-2.4266,-2.5009,-2.6223,-2.6923,-2.7697,-2.8752,-2.8434,-2.8251,-2.8446,-2.7639,-2.7228,-2.7228,-2.7012,-2.7176,-2.7214,-2.5855,-2.5402,-2.5573,-2.6024,-2.724,-2.8523,-2.9038,-2.9164,-2.9093,-3.092,-3.2732,-3.4221,0.3063,0.2502,0.2317,0.2894,0.2673,0.0,0.2904,0.0,0.0,0.3157,0.0217,0.0,-0.1817,-0.2304,-0.3254,-0.4413,-0.5824,-0.7246,-0.8889,-0.8973,-0.8785,-0.8094,-1.0051,-0.9795,-0.7092,-1.0518,-1.1299,-0.9073,-1.2997,-1.4542,-1.4073,0.0,0.0,0.0,0.0,-1.5425,0.0,-1.4941,-1.3812,-1.2483,-1.1227,-1.1115,0.0,-1.2209,-1.2749,-1.3763,-1.6064,-1.7532,-1.8338,-1.8307,-1.8856,-1.9664,-1.9664,-1.9664,-1.9678,-1.9732,-1.9854,-2.0251,-2.0907,-2.1055,-2.1146,-2.2574,-2.2159,-2.1689,-2.185,-2.191,-2.1749,-2.157,-2.163,-2.163,-2.1302,-2.0758,-2.0328,-1.9946,-2.0149,-2.0133,-1.9589,-1.9427,-1.9776,-2.0587,-2.005,-1.9784,-2.0294,-2.1461,-2.1575,-2.0089,-2.1009,-2.1732,-2.2072,-2.2713,-2.3493,-2.4505,-2.545,-2.6077,-2.6755,-2.6327,-2.6126,-2.6373,-2.5288,-2.4636,-2.4636,-2.4418,-2.4539,-2.4734,-2.3639,-2.3379,-2.3658,-2.3971,-2.5185,-2.665,-2.7082,-2.7748,-2.843,-2.8732,-3.026,-3.2492,0.3144,0.3159,0.3172,0.2992,0.2423,0.0,0.0,0.3099,0.0,0.2577,0.0,-0.3636,-0.3863,-0.3963,-0.4742,-0.7105,-0.6201,-0.6207,-0.7594,-0.8704,-0.8537,-0.7281,-1.0063,-1.0319,-0.776,-0.918,-1.0191,-1.0732,-1.1952,-1.3497,-1.5533,0.0,0.0,0.0,0.0,0.0,0.0,-1.2888,-1.09,-0.9109,-0.8664,-0.8493,-0.8713,-1.0063,-1.11,-1.2333,-1.3078,-1.4735,-1.6588,-1.6692,-1.7977,-1.9712,-1.9712,-1.9712,-1.9752,-1.9875,-2.001,-2.0159,-2.1055,-2.0936,-2.0786,-2.2062,-2.1555,-2.0971,-2.1705,-2.1391,-2.1149,-2.1647,-2.1667,-2.1549,-2.1763,-2.0901,-2.008,-1.9785,-2.0118,-2.0055,-1.9792,-1.9687,-1.9605,-1.9484,-1.9719,0.0,-1.9163,-1.9199,-1.9013,-1.8744,-1.8744,-1.9179,-2.0136,-2.0941,-2.2153,-2.3189,-2.4392,-2.5067,-2.5348,-2.4854,-2.4613,-2.4465,-2.2927,-2.2253,-2.2253,-2.1636,-2.1514,-2.166,-2.1684,-2.1806,-2.2017,-2.2366,-2.3578,-2.5013,-2.5396,-2.636,-2.7718,-2.6253,-2.7302,-2.9437,0.3185,0.3239,0.3276,0.3032,0.0,0.302,0.3108,0.3108,0.2226,0.0453,-0.141,-0.2889,-0.3848,-0.3891,-0.4163,-0.4654,-0.6371,-0.7613,-0.7894,-0.9904,-1.0699,-0.9507,-1.053,-0.9776,-0.7261,-0.9322,-0.9174,-0.6918,-1.1037,-1.2525,-1.1431,0.0,0.0,0.0,0.0,0.0,-1.0555,-0.9012,0.0,-0.8548,-0.697,-0.7051,-0.8112,-0.8433,-0.8713,-0.8965,-1.1015,-1.3724,-1.6842,-1.6859,-1.8182,-2.0031,-2.0031,-2.0031,-2.0031,-2.0051,-2.0173,-2.0295,-2.0315,-2.0438,-2.08,-2.1555,-2.1555,-2.1534,-2.1737,-2.147,-2.1477,-2.0971,-2.0683,-2.0539,-2.0217,-1.9972,-1.9641,-1.961,-2.0016,-2.0308,-2.0856,-2.0588,-2.024,-1.993,-2.0296,-1.9839,-1.8526,-1.9386,-1.954,-1.8785,-1.8858,-1.9044,-1.9021,-1.9295,-1.9782,-2.0249,-2.1052,-2.1627,-2.1931,-2.1967,-2.2159,-2.2268,-2.1685,-2.1612,-2.1612,-2.1538,-2.1636,-2.166,-2.1831,-2.2066,-2.2596,-2.3823,-2.4867,-2.5424,-2.5661,-2.5173,-2.4146,-2.4435,-2.5024,-2.5875,0.0,0.0,0.0,0.0,0.0,0.0,0.0,0.2363,0.0,-0.1878,-0.287,-0.3397,-0.3884,-0.3949,-0.4495,-0.5489,-0.599,-0.6747,-0.8027,-0.856,-0.8592,-0.8117,-0.8907,-0.865,-0.6597,-0.825,-0.8591,-0.7222,-0.9561,-1.064,-1.0372,-1.1712,0.0,0.0,0.0,-0.9748,0.0,0.0,-0.7186,-0.7072,-0.6529,-0.6616,-0.6918,-0.7748,-0.8278,-0.8782,-1.0071,-1.2838,-1.6092,-1.6784,-1.83,-2.0098,-2.0098,-2.0098,-2.0119,-2.0187,-2.0275,-2.0349,-2.0922,-2.0752,-2.08,-2.1294,-2.1308,-2.1047,-2.1047,-2.1047,-2.1047,-2.0546,-2.0539,-2.0404,-1.9963,-1.9803,-1.9683,-1.9511,-2.0079,-2.0529,-2.0961,-2.0955,-2.0787,-2.0139,-2.0198,-1.9672,-1.8336,-1.877,-1.8831,-1.7889,-1.8052,-1.8083,-1.8208,-1.8535,-1.8845,-1.9107,-2.0007,-2.0505,-2.0555,-2.1132,-2.1579,-2.166,-2.1579,-2.1579,-2.1676,-2.1766,-2.1806,-2.1806,-2.2082,-2.2253,-2.2326,-2.3343,-2.4053,-2.4415,-2.4501,-2.3942,-2.3406,-2.3638,-2.3928,-2.4493,0.0,0.2588,0.0,0.0,0.3205,0.0,0.0724,0.1981,0.1495,-0.2667,-0.3646,-0.4156,-0.4156,-0.3998,-0.4565,-0.6333,-0.5322,-0.5576,-0.7094,-0.6626,-0.6141,-0.6141,-0.7199,-0.7204,-0.5901,-0.6869,-0.7249,-0.7518,-0.7355,-0.8063,-0.9539,-0.9404,0.0,0.0,0.0,0.0,-0.6468,-0.6658,-0.6303,-0.5423,-0.6349,-0.6192,-0.5959,-0.731,-0.8112,-0.8612,-1.0149,-1.2466,-1.5063,-1.6972,-1.8442,-1.9693,-1.9693,-1.9693,-1.9727,-2.0124,-2.0178,-2.0451,-2.1322,-2.1103,-2.058,-2.1308,-2.1047,-2.0539,-2.0539,-2.0539,-2.0539,-2.0539,-2.0539,-2.0404,-1.9963,-2.0033,-1.9866,-1.9733,-2.012,-2.0568,-2.0717,-2.1001,-2.082,-2.0012,-2.0023,-1.944,-1.8203,-1.8115,-1.7732,-1.6663,-1.7024,-1.7463,-1.7612,-1.7951,-1.8244,-1.8452,-1.9752,-2.0221,-1.9999,-2.1172,-2.1684,-2.1725,-2.1725,-2.179,-2.1936,-2.1977,-2.2001,-2.2001,-2.2359,-2.2464,-2.2383,-2.274,-2.3041,-2.3252,-2.3301,-2.3406,-2.3528,-2.3528,-2.3528,-2.3786,0.0,0.0,0.0,0.0,0.0,0.0,0.1967,0.2021,0.1535,-0.0252,-0.2529,-0.4065,-0.4065,-0.4099,-0.4121,-0.4379,-0.4379,-0.4379,-0.4374,-0.5667,-0.619,-0.6184,-0.619,-0.6211,-0.5465,-0.4911,-0.4585,-0.448,-0.4404,-0.4975,-0.6565,-0.8067,-0.8186,0.0,-0.6978,-0.6195,-0.4768,-0.485,-0.497,-0.4868,-0.5199,-0.551,-0.6053,-0.6143,-0.6431,-0.6952,-1.0869,-1.2454,-1.3216,-1.6967,-1.8467,-1.8708,-1.8708,-1.8708,-1.8746,-1.9657,-1.9696,-1.9959,-2.075,-2.0756,-2.0716,-2.058,-2.0539,-2.0539,-2.0539,-2.0539,-2.0539,-2.0539,-2.0539,-2.0404,-1.9963,-2.0051,-2.0127,-1.9847,-1.9889,-2.0188,-2.0586,-2.0393,-2.0229,-1.9396,-1.9559,-1.8999,-1.6831,-1.7031,-1.6942,-1.5849,-1.6609,-1.7255,-1.7367,-1.7277,-1.7569,-1.768,-1.8952,-1.9672,-1.9999,-2.1172,-2.1741,-2.1912,-2.1912,-2.1912,-2.1936,-2.2107,-2.2172,-2.2188,-2.2553,-2.2789,-2.296,-2.3317,-2.3382,-2.3276,-2.3447,-2.3512,-2.3528,-2.3528,-2.3528,-2.3552,0.0,0.0,0.0,0.0,0.0,0.0,0.0,0.3331,0.3095,0.2577,0.0259,-0.1822,-0.2864,-0.2861,-0.3124,-0.3398,-0.3114,-0.3362,-0.4155,-0.4676,-0.4676,-0.3896,-0.4434,-0.4452,-0.3413,-0.3142,-0.2847,-0.2785,-0.3471,-0.4096,-0.4873,-0.544,-0.5362,-0.4886,-0.4963,-0.458,-0.4188,-0.4534,-0.4859,-0.4924,-0.5547,-0.5596,-0.56,-0.5937,-0.6491,-0.7007,-0.9103,-1.0438,-1.1516,-1.3043,-1.5798,-1.8497,-1.8497,-1.8497,-1.8515,-1.8826,-1.9101,-1.9101,-1.935,-1.935,-1.9593,-1.979,-1.9776,-2.0037,-2.0285,-2.0539,-2.0539,-2.0539,-2.0539,-2.0485,-2.0315,-2.0153,-1.9942,-1.9859,-2.0155,-2.0259,-2.0361,-2.0591,-2.0326,-1.9391,-1.8964,-1.8102,-1.6714,-1.6481,-1.6234,-1.6042,-1.6265,-1.6529,-1.6882,-1.6918,-1.7042,-1.7261,-1.8617,-1.9501,-1.9418,-2.0794,-2.1636,-2.1936,-2.1936,-2.2042,-2.2253,-2.2424,-2.2618,-2.283,-2.287,-2.3041,-2.3317,-2.3358,-2.3382,-2.3422,-2.3504,-2.3528,-2.3528,-2.3528,-2.3593,-2.3699,0.8664,0.0,0.8719,0.0,0.4999,0.4757,0.4124,0.4668,0.4944,0.4448,0.2638,0.0795,-0.0792,-0.131,-0.157,-0.1845,-0.2347,-0.2859,-0.2878,-0.288,-0.2619,-0.2094,-0.2631,-0.2904,-0.2647,-0.1853,-0.1575,-0.1546,-0.2779,-0.345,-0.3343,-0.3247,-0.3205,-0.3214,-0.3503,-0.3788,-0.3831,-0.4412,-0.4723,-0.4766,-0.5387,-0.5161,-0.4885,-0.5478,-0.6027,-0.654,-0.7597,-0.8677,-0.9501,-1.0268,-1.303,-1.6238,-1.6761,-1.7023,-1.7268,-1.8053,-1.8303,-1.8303,-1.8564,-1.8564,-1.8552,-1.9025,-1.9267,-1.9528,-2.0037,-2.0285,-2.0539,-2.0298,-2.0037,-2.0031,-2.0292,-2.0037,-1.9796,-1.9976,-2.0269,-2.0267,-2.0049,-2.0296,-2.0015,-1.9191,-1.8361,-1.7475,-1.6714,-1.6218,-1.6029,-1.6293,-1.611,-1.6138,-1.6419,-1.6482,-1.6581,-1.6736,-1.8268,-1.9105,-1.8969,-2.0818,-2.1676,-2.1936,-2.2082,-2.2294,-2.2553,-2.2724,-2.2976,-2.3252,-2.313,-2.3252,-2.3528,-2.3382,-2.3406,-2.3528,-2.3528,-2.3528,-2.3528,-2.3528,-2.3658,-2.3804,1.0412,0.8465,0.7291,0.7254,0.7247,0.6459,0.4426,0.6031,0.6584,0.4483,0.4271,0.3749,0.2378,0.0786,-0.0,-0.0,-0.262,-0.3142,-0.0264,-0.0,-0.0791,-0.211,-0.0791,-0.1323,-0.4,-0.1333,-0.0,-0.0,-0.1299,-0.2034,-0.1972,-0.1927,-0.1915,-0.1929,-0.3376,-0.3893,-0.3949,-0.3981,-0.4048,-0.4131,-0.4159,-0.4173,-0.418,-0.424,-0.4242,-0.4486,-0.6633,-0.745,-0.7703,-0.9755,-1.0472,-1.0664,-1.2737,-1.3522,-1.4036,-1.6905,-1.7679,-1.7943,-1.8441,-1.8705,-1.8674,-1.8534,-1.9007,-1.9528,-1.9528,-2.0037,-2.0278,-1.9535,-1.9019,-1.8758,-1.9267,-1.9528,-1.9587,-1.9766,-1.9908,-1.9834,-1.9094,-1.8993,-1.883,-1.8375,-1.765,-1.7019,-1.6564,-1.6252,-1.6144,-1.63,-1.6307,-1.63,-1.63,-1.6164,-1.6151,-1.63,-1.8135,-1.8977,-1.9148,-2.0906,-2.1936,-2.1936,-2.2464,-2.2724,-2.2724,-2.2911,-2.3081,-2.3252,-2.3252,-2.3358,-2.3528,-2.3528,-2.3528,-2.3528,-2.3528,-2.3528,-2.3528,-2.3528,-2.3658,-2.3829,1.439,1.3452,1.2512,1.1601,1.1091,1.0333,0.8844,0.8612,0.8115,0.6578,0.6087,0.5301,0.3694,0.3158,0.2109,0.0,-0.0785,-0.1822,-0.2899,-0.1055,-0.0264,-0.0531,-0.0266,-0.0533,-0.1343,-0.0535,-0.0,-0.0,-0.0524,-0.0511,-0.0741,-0.0493,-0.0493,-0.0494,-0.0998,-0.227,-0.4075,-0.4082,-0.4103,-0.4135,-0.4162,-0.4162,-0.4152,-0.4211,-0.4225,-0.4222,-0.5047,-0.5343,-0.5362,-0.5885,-0.6136,-0.665,-0.8682,-1.1197,-1.3682,-1.4453,-1.5746,-1.7034,-1.704,-1.7296,-1.7285,-1.7744,-1.7993,-1.8254,-1.8758,-1.9007,-1.9007,-1.8764,-1.8678,-1.8647,-1.9255,-1.9361,-1.9417,-1.999,-1.9963,-1.9752,-1.9217,-1.8959,-1.862,-1.8077,-1.7439,-1.691,-1.6558,-1.6347,-1.6098,-1.5838,-1.6165,-1.6307,-1.6307,-1.6456,-1.6469,-1.6313,-1.7932,-1.8604,-1.8661,-2.0516,-2.1378,-2.1599,-2.2225,-2.274,-2.3081,-2.3146,-2.3276,-2.3447,-2.3447,-2.3463,-2.3528,-2.3528,-2.3295,-2.3045,-2.3278,-2.3295,-2.3061,-2.3431,-2.3829,-2.3999,1.6358,1.5393,1.4424,1.3425,1.3151,1.2131,1.0657,1.0674,1.0428,0.8649,0.7884,0.685,0.5533,0.4999,0.3952,0.1856,0.1047,-0.0261,-0.2636,-0.1055,-0.0,-0.0,-0.0,-0.0,-0.0,-0.0,-0.0,-0.0,-0.0,-0.0,-0.0,-0.0,-0.0,-0.0,-0.0,-0.103,-0.2581,-0.3105,-0.363,-0.4152,-0.418,-0.418,-0.4169,-0.4218,-0.4236,-0.424,-0.4271,-0.4292,-0.4309,-0.4309,-0.4296,-0.4534,-0.5812,-0.8344,-1.1322,-1.2091,-1.3129,-1.4154,-1.4154,-1.4671,-1.5183,-1.5429,-1.6211,-1.6978,-1.7993,-1.7993,-1.7732,-1.7993,-1.7898,-1.7821,-1.8405,-1.8743,-1.8822,-1.9535,-1.9689,-1.9698,-1.9203,-1.8864,-1.8464,-1.786,-1.7351,-1.6965,-1.672,-1.6714,-1.656,-1.6439,-1.6627,-1.6788,-1.6727,-1.6741,-1.6741,-1.6727,-1.8023,-1.8679,-1.8864,-2.0358,-2.1362,-2.165,-2.2475,-2.2976,-2.3358,-2.3358,-2.3422,-2.3528,-2.3528,-2.3278,-2.3053,-2.3053,-2.2811,-2.2327,-2.2569,-2.2811,-2.2585,-2.3252,-2.3632,-2.3975,1.6734,1.4922,1.366,0.0,1.3691,0.0,1.0916,1.2227,1.275,1.0674,0.9947,0.8939,0.7627,0.6796,0.6005,0.4471,0.3139,0.157,0.0264,0.0264,-0.0,-0.0,-0.0,-0.0,-0.0,-0.0,-0.0,-0.0,-0.0,-0.0,-0.0,-0.0,-0.0,-0.0,-0.0,-0.0,-0.0,-0.1301,-0.261,-0.3919,-0.3944,-0.3958,-0.3958,-0.4253,-0.4264,-0.4267,-0.4298,-0.4309,-0.4309,-0.4305,-0.4267,-0.4222,-0.4215,-0.5478,-0.7481,-0.9528,-1.0295,-1.0299,-1.0299,-1.1333,-1.236,-1.236,-1.3646,-1.5444,-1.6978,-1.6717,-1.6717,-1.7228,-1.6877,-1.6529,-1.7287,-1.7672,-1.8293,-1.891,-1.9363,-1.9624,-1.9061,-1.8708,-1.8054,-1.7684,-1.7385,-1.7161,-1.7012,-1.727,-1.7446,-1.7439,-1.7568,-1.7582,-1.7426,-1.7039,-1.7012,-1.7426,-1.8191,-1.9028,-1.9247,-2.0802,-2.1666,-2.1829,-2.2877,-2.3358,-2.3528,-2.3528,-2.3528,-2.3528,-2.3528,-2.3053,-2.2561,-2.2561,-2.2085,-2.1593,-2.1593,-2.1835,-2.2577,-2.2764,-2.3063,-2.3576,0.0,0.0,1.5705,1.5731,1.5715,1.5726,1.5065,1.509,1.4572,1.3009,1.2243,1.0934,0.9065,0.8792,0.8273,0.7254,0.4919,0.3376,0.3139,0.2093,0.1049,-0.0,-0.0,-0.0,-0.0,-0.0,-0.0,-0.0,-0.0,-0.0,-0.0,-0.0,-0.0,-0.0,-0.0,-0.0,-0.0,-0.0261,-0.0783,-0.1044,-0.2103,-0.2638,-0.264,-0.3722,-0.4264,-0.4267,-0.4298,-0.4309,-0.4305,-0.4281,-0.4264,-0.4247,-0.4197,-0.4434,-0.5195,-0.723,-0.9014,-1.0299,-1.0299,-1.0555,-1.0816,-1.0816,-1.1843,-1.3385,-1.4145,-1.4922,-1.595,-1.6472,-1.6304,-1.643,-1.7275,-1.7275,-1.7334,-1.8644,-1.8377,-1.8046,-1.8163,-1.7536,-1.6856,-1.6733,-1.6792,-1.7001,-1.7168,-1.7514,-1.7498,-1.6942,-1.7404,-1.7364,-1.6779,-1.7317,-1.7595,-1.7595,-1.8445,-1.8836,-1.8946,-1.9903,-2.1071,-2.218,-2.311,-2.3487,-2.3528,-2.3528,-2.3528,-2.3528,-2.3045,-2.2811,-2.2561,-2.2077,-2.135,-2.0865,-2.1343,-2.1343,-2.113,-2.1772,-2.2091,-2.2336,1.7993,1.7744,1.7228,1.6978,1.6978,1.675,1.6554,1.6308,1.5798,1.5011,1.4238,1.3181,1.1333,1.0816,1.0305,0.928,0.6706,0.4911,0.4152,0.3376,0.2601,0.1828,0.1301,0.0784,-0.0,-0.0,-0.0,-0.0,-0.0,-0.0,-0.0,-0.0,-0.0,-0.0,-0.0,-0.0,-0.0,-0.0,-0.0,-0.0,-0.0785,-0.105,-0.1313,-0.2115,-0.2654,-0.3187,-0.3208,-0.3746,-0.4267,-0.4264,-0.4253,-0.4236,-0.4204,-0.4184,-0.4426,-0.5428,-0.6717,-0.7508,-0.7508,-0.8025,-0.8539,-0.9277,-0.9788,-1.0555,-1.1325,-1.2868,-1.4154,-1.4922,-1.5518,-1.6124,-1.6687,-1.6693,-1.6959,-1.7642,-1.7391,-1.7296,-1.7135,-1.6608,-1.6286,-1.6589,-1.6737,-1.7046,-1.7609,-1.7948,-1.788,-1.751,-1.7577,-1.7577,-1.7491,-1.7696,-1.7947,-1.7968,-1.8477,-1.8871,-1.9061,-2.0238,-2.1362,-2.2421,-2.2997,-2.3045,-2.3045,-2.2811,-2.2569,-2.2561,-2.2327,-2.2077,-2.16,-2.1358,-2.0872,-2.0144,-2.063,-2.063,-2.0651,-2.1283,-2.1535,-2.1749,1.8758,1.8503,1.8242,1.7732,1.7744,1.7483,1.6978,1.6717,1.6717,1.6717,1.6211,1.5183,1.3884,1.3385,1.236,1.1065,0.8503,0.6442,0.4898,0.4644,0.439,0.4131,0.3097,0.1819,0.0527,0.0524,0.0262,-0.0,-0.0,-0.0,-0.0,-0.0,-0.0,-0.0,-0.0,-0.0,-0.0,-0.0,-0.0,-0.0,-0.0,-0.0,-0.0,-0.0,-0.0791,-0.1848,-0.1859,-0.2651,-0.3697,-0.3984,-0.424,-0.4218,-0.4211,-0.4193,-0.417,-0.4146,-0.4159,-0.4177,-0.417,-0.4948,-0.6235,-0.723,-0.7733,-0.7993,-0.8763,-1.0555,-1.2103,-1.3116,-1.4487,-1.5847,-1.6103,-1.6384,-1.6617,-1.6398,-1.6668,-1.6603,-1.6346,-1.6138,-1.5986,-1.6525,-1.6898,-1.7301,-1.8145,-1.8409,-1.8531,-1.8228,-1.8093,-1.7909,-1.8369,-1.8046,-1.8245,-1.8464,-1.8728,-1.9061,-1.9468,-2.08,-2.1843,-2.2327,-2.2312,-2.2561,-2.2319,-2.1827,-2.1593,-2.1593,-2.1593,-2.1115,-2.063,-2.038,-2.0144,-1.9664,-1.9664,-1.9894,-2.0401,-2.0772,-2.0973,-2.1402,1.9267,1.8764,1.8497,1.8242,1.8242,1.8242,1.8254,1.8254,1.8254,1.8254,1.7489,1.6978,1.6195,1.5444,1.4676,1.3893,1.236,1.0555,0.8497,0.7476,0.5931,0.4124,0.387,0.363,0.3398,0.2364,0.1321,-0.0,-0.0,-0.0,-0.0,-0.0,-0.0,-0.0,-0.0,-0.0,-0.0,-0.0,-0.0,-0.0,-0.0,-0.0,-0.0,-0.0,-0.0264,-0.0264,-0.0264,-0.0528,-0.0791,-0.264,-0.3693,-0.4215,-0.4187,-0.4177,-0.4173,-0.417,-0.4187,-0.4202,-0.4152,-0.4139,-0.4393,-0.4648,-0.5677,-0.6706,-0.7476,-0.876,-1.0555,-1.2868,-1.347,-1.4096,-1.5847,-1.5825,-1.5795,-1.638,-1.5737,-1.5112,-1.55,-1.526,-1.5313,-1.5729,-1.6709,-1.7484,-1.8443,-1.862,-1.859,-1.8346,-1.8509,-1.8677,-1.8209,-1.8575,-1.9108,-1.9061,-1.9237,-1.9434,-1.9624,-2.038,-2.088,-2.0865,-2.1593,-2.1843,-2.1843,-2.16,-2.1593,-2.1593,-2.1108,-2.063,-2.0622,-2.0144,-1.9664,-1.9664,-1.9664,-1.9664,-1.9908,-1.9928,-1.9928,-1.9935,2.0037,1.9776,1.9528,1.9007,1.9007,1.9019,1.8503,1.8497,1.8497,1.8497,1.8254,1.7732,1.7222,1.6717,1.6211,1.57,1.4922,1.4154,1.2608,0.9788,0.7469,0.5927,0.5415,0.4919,0.4177,0.3418,0.2907,0.2386,0.0798,-0.0,-0.0,-0.0,-0.0,-0.0,-0.0,-0.0,-0.0,-0.0,-0.0,-0.0,-0.0,-0.0,-0.0,-0.0,-0.0,-0.0,-0.0,-0.0,-0.0261,-0.1833,-0.341,-0.4195,-0.418,-0.4187,-0.4193,-0.418,-0.4184,-0.4191,-0.418,-0.4155,-0.4131,-0.4131,-0.4648,-0.5161,-0.5419,-0.6959,-0.8489,-0.973,-1.167,-1.3322,-1.4274,-1.5088,-1.5861,-1.5902,-1.5221,-1.4845,-1.4887,-1.4646,-1.477,-1.601,-1.6377,-1.6918,-1.8046,-1.7975,-1.788,-1.777,-1.7719,-1.7713,-1.7782,-1.8097,-1.8394,-1.8953,-1.9274,-1.959,-1.9664,-2.0394,-2.063,-2.063,-2.0865,-2.1108,-2.1108,-2.063,-2.063,-2.0622,-2.0151,-2.0144,-2.0144,-1.9908,-1.9664,-1.9664,-1.9664,-1.9664,-1.9664,-1.9664,-1.9712,-1.98,2.0438,2.0471,2.0245,1.9744,1.9757,1.9528,1.9007,1.9007,1.9007,1.9007,1.8764,1.8503,1.7993,1.7744,1.7228,1.6717,1.6472,1.6211,1.5705,1.2608,1.0045,0.8245,0.6959,0.5692,0.4684,0.4448,0.4204,0.4211,0.2117,0.0531,-0.0,-0.0,-0.0,-0.0,-0.0,-0.0,-0.0,-0.0,-0.0,-0.0,-0.0,-0.0,-0.0,-0.0,-0.0,-0.0,-0.0,-0.0,-0.0258,-0.1301,-0.2871,-0.4177,-0.3915,-0.3666,-0.3679,-0.4173,-0.4166,-0.417,-0.4191,-0.4166,-0.4131,-0.4131,-0.4124,-0.4121,-0.4121,-0.5396,-0.6661,-0.7125,-0.9597,-1.1783,-1.2212,-1.3342,-1.4406,-1.3946,-1.3586,-1.3295,-1.3167,-1.3471,-1.4108,-1.5225,-1.5797,-1.6543,-1.765,-1.7281,-1.7115,-1.7145,-1.6912,-1.6719,-1.7302,-1.7544,-1.7847,-1.8428,-1.9177,-1.9414,-1.9414,-1.9894,-2.0151,-2.038,-2.038,-2.038,-2.038,-1.9914,-1.9664,-1.9664,-1.9664,-1.9664,-1.9664,-1.9664,-1.9664,-1.9664,-1.9664,-1.9664,-1.9664,-1.9664,-1.9752,-1.9888,2.0139,2.0241,2.0349,2.0343,2.0451,2.0285,2.0285,2.0285,2.0285,2.0285,1.9776,1.9528,1.9267,1.8254,1.7483,1.7483,1.6978,1.6472,1.6472,1.5444,1.3651,1.1076,0.7993,0.6188,0.5937,0.4653,0.4152,0.418,0.3922,0.2623,-0.0,-0.0,-0.0,-0.0,-0.0,-0.0,-0.0,-0.0,-0.0,-0.0,-0.0,-0.0,-0.0,-0.0,-0.0,-0.0,-0.0,-0.0,-0.0,-0.0,-0.1827,-0.3915,-0.261,-0.2348,-0.2608,-0.3885,-0.4135,-0.4135,-0.4137,-0.4135,-0.4131,-0.4131,-0.411,-0.409,-0.409,-0.4068,-0.4803,-0.6812,-0.7273,-0.7978,-0.9965,-1.0091,-1.018,-0.9784,-0.9624,-0.9463,-0.932,-1.1388,-1.2611,-1.2267,-1.4575,-1.623,-1.6473,-1.6513,-1.6559,-1.668,-1.7191,-1.7441,-1.6709,-1.7441,-1.769,-1.7709,-1.844,-1.8677,-1.8677,-1.8921,-1.9158,-1.9664,-1.9664,-1.9664,-1.9664,-1.9664,-1.9664,-1.9664,-1.9664,-1.9664,-1.9664,-1.9664,-1.9664,-1.9664,-1.9664,-1.9664,-1.9664,-1.9664,-1.9752,-1.9888,2.0098,2.0227,2.0329,2.0329,2.0451,2.0539,2.0539,2.0539,2.0539,2.0539,2.0278,2.0031,1.9528,1.9025,1.8515,1.7489,1.7228,1.6978,1.6472,1.6211,1.4676,1.1333,0.9271,0.7488,0.6231,0.5716,0.4952,0.4202,0.4202,0.3681,0.2638,0.0785,-0.0,-0.0,-0.0,-0.0,-0.0,-0.0,-0.0,-0.0,-0.0,-0.0,-0.0,-0.0,-0.0,-0.0,-0.0,-0.0,-0.0,-0.0,-0.1815,-0.3889,-0.363,-0.2861,-0.2347,-0.3902,-0.4155,-0.4152,-0.4135,-0.4131,-0.4131,-0.4131,-0.4106,-0.4086,-0.4086,-0.4061,-0.4286,-0.5016,-0.5996,-0.7217,-0.7929,-0.9109,-0.9791,-0.9737,-0.9321,-0.9195,-0.9179,-1.0055,-1.051,-1.0825,-1.1708,-1.2322,-1.288,-1.3677,-1.4222,-1.4261,-1.5738,-1.6488,-1.6238,-1.6727,-1.6977,-1.6977,-1.7209,-1.7709,-1.819,-1.819,-1.844,-1.9171,-1.8677,-1.8927,-1.9664,-1.9164,-1.9408,-1.9664,-1.9752,-1.9786,-1.9786,-1.9786,-1.9548,-1.9297,-1.9211,-1.8921,-1.844,-1.844,-1.8774,-1.9396,1.9963,2.0085,2.0207,2.0241,2.0383,2.0485,2.0539,2.0539,2.0539,2.0539,2.0539,2.0278,1.9776,1.9528,1.9025,1.8254,1.7744,1.7228,1.6723,1.6728,1.5183,1.236,1.0816,0.9035,0.7533,0.6757,0.5731,0.4714,0.4452,0.4191,0.4193,0.1825,0.052,-0.0,-0.0,-0.0,-0.0,-0.0,-0.0,-0.0,-0.0,-0.0,-0.0,-0.0,-0.0,-0.0,-0.0,-0.0,-0.0,-0.0,-0.1291,-0.2839,-0.2839,-0.285,-0.2861,-0.3899,-0.4152,-0.4142,-0.4121,-0.411,-0.4103,-0.4114,-0.4093,-0.4068,-0.4058,-0.4034,-0.4005,-0.3985,-0.4974,-0.5953,-0.5927,-0.7152,-0.8126,-0.8106,-0.7755,-0.7679,-0.7698,-0.8129,-0.8569,-0.8826,-0.9199,-0.9521,-0.9983,-1.1031,-1.1817,-1.2793,-1.4027,-1.501,-1.5755,-1.6238,-1.6488,-1.6488,-1.6443,-1.6663,-1.7161,-1.7191,-1.7709,-1.844,-1.7959,-1.819,-1.9171,-1.8671,-1.8677,-1.9171,-1.9277,-1.931,-1.931,-1.931,-1.8832,-1.8574,-1.8472,-1.819,-1.7709,-1.7709,-1.8039,-1.8637,1.9664,1.9766,1.9922,2.0064,2.0227,2.0383,2.0526,2.0539,2.0539,2.0539,2.0539,2.0539,2.0539,2.0031,1.9528,1.9528,1.8254,1.7489,1.7489,1.6978,1.595,1.4415,1.236,1.1073,1.0305,0.7733,0.619,0.619,0.4902,0.4131,0.4131,0.2839,0.1291,-0.0,-0.0,-0.0,-0.0,-0.0,-0.0,-0.0,-0.0,-0.0,-0.0,-0.0,-0.0,-0.0,-0.0,-0.0,-0.0,-0.0,-0.0,-0.0,-0.0,-0.1807,-0.4131,-0.4131,-0.411,-0.4086,-0.4086,-0.4065,-0.4048,-0.4079,-0.4061,-0.4034,-0.4003,-0.397,-0.3949,-0.3949,-0.3949,-0.3949,-0.3949,-0.3949,-0.3938,-0.3911,-0.3904,-0.3893,-0.3862,-0.558,-0.6563,-0.5792,-0.7574,-0.8845,-0.8775,-0.883,-0.9853,-1.2548,-1.2793,-1.3777,-1.5755,-1.5755,-1.5755,-1.5755,-1.5641,-1.557,-1.557,-1.6414,-1.6977,-1.7709,-1.7709,-1.7709,-1.7709,-1.7709,-1.7709,-1.7709,-1.7709,-1.7709,-1.7709,-1.7709,-1.7709,-1.7709,-1.7709,-1.7709,-1.7709,-1.7709,-1.7788,-1.7898,1.9664,1.9766,1.9922,2.0064,2.0139,2.0261,2.0505,2.0451,2.0438,2.0526,2.0539,2.0539,2.0539,2.0191,1.9932,1.9516,1.8843,1.8228,1.7217,1.6804,1.6083,1.5068,1.4117,1.236,1.0305,0.9537,0.8251,0.619,0.5673,0.5161,0.4131,0.2839,0.1291,-0.0,-0.0,-0.0,-0.0,-0.0,-0.0,-0.0,-0.0,-0.0,-0.0,-0.0,-0.0,-0.0,-0.0,-0.0,-0.0,-0.0,-0.0,-0.0,-0.0,-0.0516,-0.1289,-0.2309,-0.3325,-0.4082,-0.4061,-0.4048,-0.4043,-0.405,-0.403,-0.4005,-0.3998,-0.397,-0.3949,-0.3949,-0.3949,-0.3949,-0.3949,-0.3949,-0.3947,-0.3938,-0.3936,-0.3925,-0.3893,-0.4404,-0.4649,-0.4587,-0.5108,-0.5366,-0.5326,-0.6575,-0.7826,-0.8555,-1.1287,-1.3042,-1.3777,-1.5021,-1.5755,-1.5755,-1.5641,-1.557,-1.557,-1.5845,-1.6352,-1.6836,-1.6448,-1.6727,-1.7709,-1.7209,-1.7209,-1.7709,-1.78,-1.7837,-1.7837,-1.7837,-1.7597,-1.7094,-1.7006,-1.6727,-1.6488,-1.6488,-1.675,-1.7018,1.9664,1.9732,1.9841,1.9976,2.001,2.0085,2.0329,2.0295,2.0275,2.0349,2.0363,2.0383,2.0451,2.0383,2.0111,1.9945,1.9238,1.8355,1.7114,1.6435,1.5987,1.5271,1.4784,1.3811,1.1843,1.0816,0.9531,0.8245,0.6959,0.5415,0.4128,0.2839,0.1289,-0.0,-0.0,-0.0,-0.0,-0.0,-0.0,-0.0,-0.0,-0.0,-0.0,-0.0,-0.0,-0.0,-0.0,-0.0,-0.0,-0.0,-0.0,-0.0,-0.0,-0.0,-0.0257,-0.1023,-0.1779,-0.2529,-0.3271,-0.3761,-0.4005,-0.4005,-0.3998,-0.3992,-0.3981,-0.3963,-0.3949,-0.3949,-0.3949,-0.3947,-0.3932,-0.3943,-0.3943,-0.3918,-0.3925,-0.3922,-0.3891,-0.39,-0.3898,-0.3848,-0.3869,-0.3876,-0.3844,-0.5075,-0.6075,-0.6825,-0.9781,-1.1535,-1.1567,-1.2726,-1.3429,-1.3481,-1.3336,-1.3261,-1.3261,-1.3261,-1.426,-1.6053,-1.5889,-1.6193,-1.6971,-1.6488,-1.6488,-1.6971,-1.7047,-1.7076,-1.7076,-1.7076,-1.6842,-1.6591,-1.6272,-1.6238,-1.5755,-1.5755,-1.5988,-1.6244,1.9664,1.9664,1.9712,1.9854,1.9854,1.9908,2.0085,2.0085,2.0085,2.0098,2.0119,2.0173,2.0295,2.0309,2.0309,2.0309,1.8924,1.7851,1.7102,1.6586,1.5896,1.5513,1.5153,1.4937,1.4647,1.1831,1.0805,1.1322,0.8243,0.5667,0.4121,0.2835,0.1285,-0.0,-0.0,-0.0,-0.0,-0.0,-0.0,-0.0,-0.0,-0.0,-0.0,-0.0,-0.0,-0.0,-0.0,-0.0,-0.0,-0.0,-0.0,-0.0,-0.0,-0.0,-0.0,-0.0,-0.0252,-0.0749,-0.2245,-0.3226,-0.3949,-0.3949,-0.397,-0.3985,-0.3956,-0.3949,-0.3949,-0.3947,-0.3947,-0.3936,-0.3904,-0.3922,-0.3922,-0.3869,-0.3883,-0.3891,-0.3859,-0.3859,-0.3848,-0.3817,-0.3838,-0.3844,-0.3817,-0.3842,-0.4596,-0.6575,-0.8531,-0.9527,-0.9587,-0.9703,-0.9899,-0.973,-0.9591,-0.9512,-0.9512,-0.9502,-1.1486,-1.5065,-1.5081,-1.5392,-1.5505,-1.5505,-1.5755,-1.5744,-1.5744,-1.5728,-1.5728,-1.5728,-1.5728,-1.5744,-1.5744,-1.5744,-1.5744,-1.5755,-1.5755,-1.5744,1.9664,1.9664,1.9712,1.9854,1.9786,1.98,2.0064,1.9997,1.9963,2.0085,2.0207,2.0241,2.0153,2.0153,2.0153,2.0153,1.9365,1.8567,1.7712,1.7199,1.6558,1.6035,1.5327,1.5327,1.5813,1.3788,1.2253,1.1236,1.0022,0.7708,0.409,0.2813,0.1277,-0.0,-0.0,-0.0,-0.0,-0.0,-0.0,-0.0,-0.0,-0.0,-0.0,-0.0,-0.0,-0.0,-0.0,-0.0,-0.0,-0.0,-0.0,-0.0,-0.0,-0.0,-0.0,-0.0,-0.1502,-0.2993,-0.2231,-0.2964,-0.3949,-0.3949,-0.3953,-0.3956,-0.3949,-0.3949,-0.3943,-0.3918,-0.3914,-0.3904,-0.3873,-0.3873,-0.3873,-0.3862,-0.3866,-0.3859,-0.3831,-0.3844,-0.3838,-0.3788,-0.3806,-0.3813,-0.3786,-0.3828,-0.4103,-0.4591,-0.6354,-0.7587,-0.751,-0.897,-0.9696,-0.9892,-0.9563,-0.9512,-0.9512,-0.9458,-1.0216,-1.1584,-1.1899,-1.2713,-1.4286,-1.4286,-1.472,-1.5613,-1.5613,-1.5559,-1.5472,-1.5472,-1.5532,-1.5613,-1.5613,-1.5613,-1.563,-1.5711,-1.57,-1.563,1.9664,1.9664,1.9678,1.9766,1.9712,1.9712,1.9875,1.982,1.98,1.9875,1.9963,2.001,1.9997,1.9997,1.9997,1.9997,1.9502,1.8707,1.7819,1.7188,1.6795,1.6108,1.5751,1.5518,1.6206,1.4646,1.3632,1.2669,1.1191,0.9672,0.7864,0.4565,0.2027,-0.0,-0.0,-0.0,-0.0,-0.0,-0.0,-0.0,-0.0,-0.0,-0.0,-0.0,-0.0,-0.0,-0.0,-0.0,-0.0,-0.0,-0.0,-0.0,-0.0,-0.0,-0.0,-0.0,-0.1744,-0.3722,-0.2964,-0.3456,-0.3949,-0.3949,-0.3949,-0.3949,-0.3949,-0.3938,-0.3925,-0.3907,-0.3893,-0.3876,-0.3844,-0.3851,-0.3851,-0.382,-0.3831,-0.3827,-0.3799,-0.3806,-0.3806,-0.3775,-0.3786,-0.3788,-0.3772,-0.3813,-0.3838,-0.3838,-0.4834,-0.5332,-0.5304,-0.6487,-0.695,-0.695,-0.6893,-0.6868,-0.6868,-0.6836,-0.7105,-0.7904,-0.9408,-1.07,-1.1995,-1.1995,-1.2213,-1.2894,-1.3813,-1.425,-1.4185,-1.5141,-1.5434,-1.5488,-1.5488,-1.5488,-1.5488,-1.5559,-1.5543,-1.5488,1.9664,1.9664,1.9664,1.9664,1.9664,1.9664,1.9664,1.9664,1.9664,1.9664,1.9678,1.9732,1.982,1.9841,1.9841,1.9841,1.9349,1.8574,1.7739,1.7453,1.6784,1.5951,1.5934,1.5978,1.6076,1.546,1.4717,1.4337,1.2329,1.1588,1.1843,0.7303,0.3262,0.0499,0.0249,-0.0,-0.0,-0.0,-0.0,-0.0,-0.0,-0.0,-0.0,-0.0,-0.0,-0.0,-0.0,-0.0,-0.0,-0.0,-0.0,-0.0,-0.0,-0.0,-0.0,-0.0,-0.1488,-0.3452,-0.3703,-0.3949,-0.3949,-0.3943,-0.3943,-0.3943,-0.369,-0.3673,-0.39,-0.3646,-0.3627,-0.3604,-0.3575,-0.3591,-0.3831,-0.3779,-0.3793,-0.3799,-0.3775,-0.3772,-0.3772,-0.3772,-0.3772,-0.3772,-0.3772,-0.3799,-0.3813,-0.381,-0.3817,-0.3831,-0.3844,-0.3803,-0.3788,-0.381,-0.3786,-0.3772,-0.3772,-0.3772,-0.4018,-0.4759,-0.7423,-0.893,-0.9494,-0.9494,-0.9484,-0.9955,-1.1319,-1.2236,-1.2466,-1.4135,-1.486,-1.5119,-1.5119,-1.5358,-1.5363,-1.5363,-1.5363,-1.5363,1.9908,1.9664,1.9664,1.9664,1.9664,1.9664,1.9664,1.9664,1.9664,1.9664,1.9766,1.98,1.9698,1.9698,1.9698,1.9698,1.9691,1.8999,1.7868,1.791,1.7234,1.6081,1.5978,1.5934,1.5951,1.5836,1.5339,1.497,1.3563,1.2308,1.0989,0.9487,0.6491,0.2245,0.0744,-0.0,-0.0,-0.0,-0.0,-0.0,-0.0,-0.0,-0.0,-0.0,-0.0,-0.0,-0.0,-0.0,-0.0,-0.0,-0.0,-0.0,-0.0,-0.0,-0.0,-0.0,-0.0246,-0.0979,-0.3206,-0.3949,-0.3943,-0.3918,-0.3914,-0.3663,-0.2424,-0.316,-0.365,-0.2398,-0.2152,-0.2383,-0.2599,-0.3309,-0.3782,-0.3772,-0.3775,-0.3775,-0.3772,-0.3772,-0.3772,-0.3772,-0.3772,-0.3772,-0.3772,-0.3799,-0.3806,-0.3779,-0.3824,-0.3835,-0.3786,-0.3799,-0.3799,-0.3779,-0.3775,-0.3772,-0.3772,-0.3772,-0.3775,-0.4015,-0.4283,-0.5769,-0.8042,-0.8042,-0.8735,-0.9631,-0.9795,-1.0675,-1.1545,-1.1784,-1.2782,-1.4523,-1.4523,-1.4765,-1.5249,-1.5249,-1.5249,-1.526,2.0151,1.9894,1.9664,1.9664,1.9664,1.9664,1.9664,1.9664,1.9664,1.9664,1.9712,1.9732,1.9664,1.9664,1.9664,1.9664,1.9732,1.9277,1.7788,1.7929,1.7482,1.5912,1.5923,1.5896,1.5825,1.5782,1.5782,1.5339,1.4404,1.3411,1.2375,1.1886,0.9141,0.4675,0.2943,0.1701,0.0959,0.024,-0.0,-0.0,-0.0,-0.0,-0.0,-0.0,-0.0,-0.0,-0.0,-0.0,-0.0,-0.0,-0.0,-0.0,-0.0,-0.0,-0.0,-0.0,-0.0,-0.0243,-0.1461,-0.2193,-0.2922,-0.2914,-0.3397,-0.3873,-0.3124,-0.3608,-0.3848,-0.3106,-0.1901,-0.1184,-0.2123,-0.3064,-0.3772,-0.3772,-0.3772,-0.3772,-0.3772,-0.3772,-0.3772,-0.3772,-0.3772,-0.3772,-0.3772,-0.3782,-0.3786,-0.3772,-0.3795,-0.3799,-0.3772,-0.3786,-0.3786,-0.3772,-0.3772,-0.3772,-0.3772,-0.3772,-0.3772,-0.3772,-0.3803,-0.4306,-0.5539,-0.5539,-0.5765,-0.6464,-0.7357,-0.8728,-0.9876,-1.0805,-1.2249,-1.3699,-1.3699,-1.3939,-1.4644,-1.4884,-1.5124,-1.5124]},{"header":{"parameterUnit":"m.s-1","parameterCategory":1,"la1":30.6,"la2":28.766,"lo1":-90.7593,"lo2":-88.6598,"dy":0.0162,"dx":0.0183,"nx":116,"ny":114,"refTime":"2023-03-03T18:00:00:Z","depth":0,"parameterNumber":3,"parameterNumberName":"V-component_of_WINDS"},"data":[0.0,0.0,0.0,0.0,0.0,0.0,0.0,0.0,0.0,0.0,0.0,0.0,0.0,0.0,0.0,0.0,0.0,0.0,0.0,0.0,0.0,0.0,0.0,0.0,0.0,0.0,0.0,0.0,0.0,0.0,0.0,0.0,0.0,0.0,0.0,0.0,0.0,0.0,0.0,0.0,0.0,0.0,0.0,0.0,0.0,0.0,0.0,0.0,0.0,0.0,0.0,0.0,0.0,0.0,0.0,0.0,0.0,0.0,0.0,0.0,0.0,0.0,0.0,0.0,0.0,0.0,0.0,0.0,0.0,0.0,0.0,0.0,0.0,0.0,0.0,0.0,0.0,0.0,0.0,0.0,0.0,0.0,0.0,0.0,0.0,0.0,0.0,0.0,0.0,0.0,0.0,0.0,0.0,0.0,0.0,0.0,0.0,0.0,0.0,0.0,0.0,0.0,0.0,0.0,0.0,0.0,0.0,0.0,0.0,0.0,0.0,0.0,0.0,0.0,0.0,0.0,0.0,0.0,0.0,0.0,0.0,0.0,0.0,0.0,0.0,0.0,0.0,0.0,0.0,0.0,0.0,0.0,0.0,0.0,0.0,0.0,0.0,0.0,0.0,0.0,0.0,0.0,0.0,0.0,0.0,0.0,0.0,0.0,0.0,0.0,0.0,0.0,0.0,0.0,0.0,0.0,0.0,0.0,0.0,0.0,0.0,0.0,0.0,0.0,0.0,0.0,0.0,0.0,0.0,0.0,0.0,0.0,0.0,0.0,0.0,0.0,0.0,0.0,0.0,0.0,0.0,0.0,0.0,0.0,0.0,0.0,0.0,0.0,0.0,0.0,0.0,0.0,0.0,0.0,0.0,0.0,0.0,0.0,0.0,0.0,0.0,0.0,0.0,0.0,0.0,0.0,0.0,0.0,0.0,0.0,0.0,0.0,0.0,0.0,0.0,0.0,0.0,0.0,0.0,0.0,0.0,0.0,0.0,0.0,0.0,0.0,0.0,0.0,0.0,0.0,0.0,0.0,0.0,0.0,0.0,0.0,0.0,0.0,0.0,0.0,0.0,0.0,0.0,0.0,0.0,0.0,0.0,0.0,0.0,0.0,0.0,0.0,0.0,0.0,0.0,0.0,0.0,0.0,0.0,0.0,0.0,0.0,0.0,0.0,0.0,0.0,0.0,0.0,0.0,0.0,0.0,0.0,0.0,0.0,0.0,0.0,0.0,0.0,0.0,0.0,0.0,0.0,0.0,0.0,0.0,0.0,0.0,0.0,0.0,0.0,0.0,0.0,0.0,0.0,0.0,0.0,0.0,0.0,0.0,0.0,0.0,0.0,0.0,0.0,0.0,0.0,0.0,0.0,0.0,0.0,0.0,0.0,0.0,0.0,0.0,0.0,0.0,0.0,0.0,0.0,0.0,0.0,0.0,0.0,0.0,0.0,0.0,0.0,0.0,0.0,0.0,0.0,0.0,0.0,0.0,0.0,0.0,0.0,0.0,0.0,0.0,0.0,0.0,0.0,0.0,0.0,0.0,0.0,0.0,0.0,0.0,0.0,0.0,0.0,0.0,0.0,0.0,0.0,0.0,0.0,0.0,0.0,0.0,0.0,0.0,0.0,0.0,0.0,0.0,0.0,0.0,0.0,0.0,0.0,0.0,0.0,0.0,0.0,0.0,0.0,0.0,0.0,0.0,0.0,0.0,0.0,0.0,0.0,0.0,0.0,0.0,0.0,0.0,0.0,0.0,0.0,0.0,0.0,0.0,0.0,0.0,0.0,0.0,0.0,0.0,0.0,0.0,0.0,0.0,0.0,0.0,0.0,0.0,0.0,0.0,0.0,0.0,0.0,0.0,0.0,0.0,0.0,0.0,0.0,0.0,0.0,0.0,0.0,0.0,0.0,0.0,0.0,0.0,0.0,0.0,0.0,0.0,0.0,0.0,0.0,0.0,0.0,0.0,0.0,0.0,0.0,0.0,0.0,0.0,0.0,0.0,0.0,0.0,0.0,0.0,0.0,0.0,0.0,0.0,0.0,0.0,0.0,0.0,0.0,0.0,0.0,0.0,0.0,0.0,0.0,0.0,0.0,0.0,0.0,0.0,0.0,0.0,0.0,0.0,0.0,0.0,0.0,0.0,0.0,0.0,0.0,0.0,0.0,0.0,0.0,0.0,0.0,0.0,0.0,0.0,0.0,0.0,0.0,0.0,0.0,0.0,0.0,0.0,0.0,0.0,0.0,0.0,0.0,0.0,0.0,0.0,0.0,0.0,0.0,0.0,0.0,0.0,0.0,0.0,0.0,0.0,0.0,0.0,0.0,0.0,0.0,0.0,0.0,0.0,0.0,0.0,0.0,0.0,0.0,0.0,0.0,0.0,0.0,0.0,0.0,0.0,0.0,0.0,0.0,0.0,0.0,0.0,0.0,0.0,0.0,0.0,0.0,0.0,0.0,0.0,0.0,0.0,0.0,0.0,0.0,0.0,0.0,0.0,0.0,0.0,0.0,0.0,0.0,0.0,0.0,0.0,0.0,0.0,0.0,0.0,0.0,0.0,0.0,0.0,0.0,0.0,0.0,0.0,0.0,0.0,0.0,0.0,0.0,0.0,0.0,0.0,0.0,0.0,0.0,0.0,0.0,0.0,0.0,0.0,0.0,0.0,0.0,0.0,0.0,0.0,0.0,0.0,0.0,0.0,0.0,0.0,0.0,0.0,0.0,0.0,0.0,0.0,0.0,0.0,0.0,0.0,0.0,0.0,0.0,0.0,0.0,0.0,0.0,0.0,0.0,0.0,0.0,0.0,0.0,0.0,0.0,0.0,0.0,0.0,0.0,0.0,0.0,0.0,0.0,0.0,0.0,0.0,0.0,0.0,0.0,0.0,0.0,0.0,0.0,0.0,0.0,0.0,0.0,0.0,0.0,0.0,0.0,0.0,0.0,0.0,0.0,0.0,0.0,0.0,0.0,0.0,0.0,0.0,0.0,0.0,0.0,0.0,0.0,0.0,0.0,0.0,0.0,0.0,0.0,0.0,0.0,0.0,0.0,0.0,0.0,0.0,0.0,0.0,0.0,0.0,0.0,0.0,0.0,0.0,0.0,0.0,0.0,0.0,0.0,0.0,0.0,0.0,0.0,0.0,0.0,0.0,0.0,0.0,0.0,0.0,0.0,0.0,0.0,0.0,0.0,0.0,0.0,0.0,0.0,0.0,0.0,0.0,0.0,0.0,0.0,0.0,0.0,0.0,0.0,0.0,0.0,0.0,0.0,0.0,0.0,0.0,0.0,0.0,0.0,0.0,0.0,0.0,0.0,0.0,0.0,0.0,0.0,0.0,0.0,0.0,0.0,0.0,0.0,0.0,0.0,0.0,0.0,0.0,0.0,0.0,0.0,0.0,0.0,0.0,0.0,0.0,0.0,0.0,0.0,0.0,0.0,0.0,0.0,0.0,0.0,0.0,0.0,0.0,0.0,0.0,0.0,0.0,0.0,0.0,0.0,0.0,0.0,0.0,0.0,0.0,0.0,0.0,0.0,0.0,0.0,0.0,0.0,0.0,0.0,0.0,0.0,0.0,0.0,0.0,0.0,0.0,0.0,0.0,0.0,0.0,0.0,0.0,0.0,0.0,0.0,0.0,0.0,0.0,0.0,0.0,0.0,0.0,0.0,0.0,0.0,0.0,0.0,0.0,0.0,0.0,0.0,0.0,0.0,0.0,0.0,0.0,0.0,0.0,0.0,0.0,0.0,0.0,0.0,0.0,0.0,0.0,0.0,0.0,0.0,0.0,0.0,0.0,0.0,0.0,0.0,0.0,0.0,0.0,0.0,0.0,0.0,0.0,0.0,0.0,0.0,0.0,0.0,0.0,0.0,0.0,0.0,0.0,0.0,0.0,0.0,0.0,0.0,0.0,0.0,0.0,0.0,0.0,0.0,0.0,0.0,0.0,0.0,0.0,0.0,0.0,0.0,0.0,0.0,0.0,0.0,0.0,0.0,0.0,0.0,0.0,0.0,0.0,0.0,0.0,0.0,0.0,0.0,0.0,0.0,0.0,0.0,0.0,0.0,0.0,0.0,0.0,0.0,0.0,0.0,0.0,0.0,0.0,0.0,0.0,0.0,0.0,0.0,0.0,0.0,0.0,0.0,0.0,0.0,0.0,0.0,0.0,0.0,0.0,0.0,0.0,0.0,0.0,0.0,0.0,0.0,0.0,0.0,0.0,0.0,0.0,0.0,0.0,0.0,0.0,0.0,0.0,0.0,0.0,0.0,0.0,0.0,0.0,0.0,0.0,0.0,0.0,0.0,0.0,0.0,0.0,0.0,0.0,0.0,0.0,0.0,0.0,0.0,0.0,0.0,0.0,0.0,0.0,0.0,0.0,0.0,0.0,0.0,0.0,0.0,0.0,0.0,0.0,0.0,0.0,0.0,0.0,0.0,0.0,0.0,0.0,0.0,0.0,0.0,0.0,0.0,0.0,0.0,0.0,0.0,0.0,0.0,0.0,0.0,0.0,0.0,0.0,0.0,0.0,0.0,0.0,0.0,0.0,0.0,0.0,0.0,0.0,0.0,0.0,0.0,0.0,0.0,0.0,0.0,0.0,0.0,0.0,0.0,0.0,0.0,0.0,0.0,0.0,0.0,0.0,0.0,0.0,0.0,0.0,0.0,0.0,0.0,0.0,0.0,0.0,0.0,0.0,0.0,0.0,0.0,0.0,0.0,0.0,0.0,0.0,0.0,0.0,0.0,0.0,0.0,0.0,0.0,0.0,0.0,0.0,0.0,0.0,0.0,0.0,0.0,0.0,0.0,0.0,0.0,0.0,0.0,0.0,0.0,0.0,0.0,0.0,0.0,0.0,0.0,0.0,0.0,0.0,0.0,0.0,0.0,0.0,0.0,0.0,0.0,0.0,0.0,0.0,0.0,0.0,0.0,0.0,0.0,0.0,0.0,0.0,0.0,0.0,0.0,0.0,0.0,0.0,0.0,0.0,0.0,0.0,0.0,0.0,0.0,0.0,0.0,0.0,0.0,0.0,0.0,0.0,0.0,0.0,0.0,0.0,0.0,0.0,0.0,0.0,0.0,0.0,0.0,0.0,0.0,0.0,0.0,0.0,0.0,0.0,0.0,0.0,0.0,0.0,0.0,0.0,0.0,0.0,0.0,0.0,0.0,0.0,0.0,0.0,0.0,0.0,0.0,0.0,0.0,0.0,0.0,0.0,0.0,0.0,0.0,0.0,0.0,0.0,0.0,0.0,0.0,0.0,0.0,0.0,0.0,0.0,0.0,0.0,0.0,0.0,0.0,0.0,0.0,0.0,0.0,0.0,0.0,0.0,0.0,0.0,0.0,0.0,0.0,0.0,0.0,0.0,0.0,0.0,0.0,0.0,0.0,0.0,0.0,0.0,0.0,0.0,0.0,0.0,0.0,0.0,0.0,0.0,0.0,0.0,0.0,0.0,0.0,0.0,0.0,0.0,0.0,0.0,0.0,0.0,0.0,0.0,0.0,0.0,0.0,0.0,0.0,0.0,0.0,0.0,0.0,0.0,0.0,0.0,0.0,0.0,0.0,0.0,0.0,0.0,0.0,0.0,0.0,0.0,0.0,0.0,0.0,0.0,0.0,0.0,0.0,0.0,0.0,0.0,0.0,0.0,0.0,0.0,0.0,0.0,0.0,0.0,0.0,0.0,0.0,0.0,0.0,0.0,0.0,0.0,0.0,0.0,0.0,0.0,0.0,0.0,0.0,0.0,0.0,0.0,0.0,0.0,0.0,0.0,0.0,0.0,0.0,0.0,0.0,0.0,0.0,0.0,0.0,0.0,0.0,0.0,0.0,0.0,0.0,0.0,0.0,0.0,0.0,0.0,0.0,0.0,0.0,0.0,0.0,0.0,0.0,0.0,0.0,0.0,0.0,0.0,0.0,0.0,0.0,0.0,0.0,0.0,0.0,0.0,0.0,0.0,0.0,0.0,0.0,0.0,0.0,0.0,0.0,0.0,0.0,0.0,0.0,0.0,0.0,0.0,0.0,0.0,0.0,0.0,0.0,0.0,0.0,0.0,0.0,0.0,0.0,0.0,0.0,0.0,0.0,0.0,0.0,0.0,0.0,-7.5547,-7.5911,0.0,0.0,0.0,0.0,0.0,0.0,0.0,0.0,0.0,0.0,0.0,0.0,0.0,0.0,0.0,0.0,0.0,0.0,0.0,0.0,0.0,0.0,0.0,0.0,0.0,0.0,0.0,0.0,0.0,0.0,0.0,0.0,0.0,0.0,0.0,0.0,0.0,0.0,0.0,0.0,0.0,0.0,0.0,0.0,0.0,0.0,0.0,0.0,0.0,0.0,0.0,0.0,0.0,0.0,0.0,0.0,0.0,0.0,0.0,0.0,0.0,0.0,0.0,0.0,0.0,0.0,0.0,0.0,0.0,0.0,0.0,0.0,0.0,0.0,0.0,0.0,0.0,0.0,0.0,0.0,0.0,0.0,0.0,0.0,0.0,0.0,0.0,0.0,0.0,0.0,0.0,0.0,0.0,0.0,0.0,0.0,0.0,0.0,0.0,0.0,0.0,0.0,0.0,0.0,0.0,0.0,0.0,0.0,0.0,0.0,0.0,0.0,0.0,0.0,-7.8233,-7.7524,0.0,0.0,0.0,0.0,0.0,0.0,0.0,0.0,0.0,0.0,0.0,0.0,0.0,0.0,0.0,0.0,0.0,0.0,0.0,0.0,0.0,0.0,0.0,0.0,0.0,0.0,0.0,0.0,0.0,0.0,0.0,0.0,0.0,0.0,0.0,0.0,0.0,0.0,0.0,0.0,0.0,0.0,0.0,0.0,0.0,0.0,0.0,0.0,0.0,0.0,0.0,0.0,0.0,0.0,0.0,0.0,0.0,0.0,0.0,0.0,0.0,0.0,0.0,0.0,0.0,0.0,0.0,0.0,0.0,0.0,0.0,0.0,0.0,0.0,0.0,0.0,0.0,0.0,0.0,0.0,0.0,0.0,0.0,0.0,0.0,0.0,0.0,0.0,0.0,0.0,0.0,0.0,0.0,0.0,0.0,0.0,0.0,0.0,0.0,0.0,0.0,0.0,0.0,0.0,0.0,0.0,0.0,0.0,-8.0376,-8.1637,-8.4645,-8.3744,-8.4003,-8.4953,-8.1745,-8.001,-7.9533,-8.0566,0.0,0.0,0.0,0.0,0.0,0.0,0.0,0.0,0.0,0.0,0.0,0.0,0.0,0.0,0.0,0.0,0.0,0.0,0.0,0.0,0.0,0.0,0.0,0.0,0.0,0.0,0.0,0.0,0.0,0.0,0.0,0.0,0.0,0.0,0.0,0.0,0.0,0.0,-6.4293,-6.4872,-6.523,-6.5328,-6.5562,0.0,0.0,0.0,0.0,0.0,0.0,0.0,0.0,0.0,0.0,0.0,0.0,0.0,0.0,0.0,0.0,0.0,0.0,0.0,0.0,0.0,0.0,0.0,0.0,0.0,0.0,0.0,0.0,0.0,0.0,0.0,0.0,0.0,0.0,0.0,0.0,0.0,0.0,0.0,0.0,0.0,0.0,0.0,-7.4359,-7.58,0.0,0.0,0.0,0.0,0.0,0.0,0.0,0.0,0.0,0.0,0.0,0.0,0.0,-8.0262,-8.1814,-8.2714,-8.3517,-8.4138,-8.4652,-8.4916,-8.5164,-8.4995,-8.5345,-8.6185,-8.6379,0.0,-8.2732,-8.2194,0.0,0.0,0.0,0.0,0.0,0.0,0.0,0.0,0.0,0.0,0.0,0.0,0.0,0.0,0.0,0.0,0.0,0.0,0.0,0.0,0.0,0.0,0.0,0.0,0.0,0.0,0.0,0.0,0.0,0.0,0.0,0.0,0.0,0.0,0.0,0.0,-6.3774,-6.3547,-6.3416,-6.4665,-6.5167,-6.5087,-6.5957,-6.6353,-6.6295,-6.6645,0.0,0.0,0.0,0.0,0.0,0.0,0.0,0.0,0.0,0.0,0.0,0.0,0.0,0.0,0.0,0.0,0.0,0.0,0.0,0.0,0.0,0.0,0.0,0.0,0.0,0.0,0.0,0.0,0.0,0.0,0.0,0.0,0.0,0.0,0.0,0.0,0.0,0.0,0.0,-7.4322,-7.5837,-7.639,-7.7262,-7.7631,0.0,0.0,0.0,0.0,0.0,0.0,0.0,0.0,0.0,-8.2263,-8.2455,-8.3233,-8.4599,-8.4429,-8.5469,-8.7687,-8.7302,-8.7979,-8.9553,-8.9062,-8.9218,-8.9951,-9.0341,-8.9467,-8.7667,-8.5845,-8.5,-8.4764,0.0,0.0,0.0,0.0,-8.4165,-8.453,0.0,0.0,0.0,0.0,0.0,0.0,0.0,0.0,0.0,0.0,0.0,0.0,0.0,0.0,0.0,-6.2298,0.0,0.0,0.0,0.0,0.0,0.0,0.0,0.0,0.0,0.0,0.0,0.0,-6.3969,-6.3694,-6.3408,-6.4799,-6.5467,-6.5587,-6.7093,-6.7348,-6.669,-6.6709,-6.7054,0.0,0.0,0.0,0.0,0.0,0.0,0.0,0.0,0.0,0.0,0.0,0.0,0.0,0.0,0.0,0.0,0.0,0.0,0.0,0.0,0.0,0.0,0.0,0.0,0.0,0.0,0.0,0.0,0.0,0.0,0.0,0.0,0.0,0.0,0.0,0.0,0.0,0.0,-7.5774,-7.7233,-7.7081,-7.869,-7.9345,0.0,0.0,0.0,0.0,0.0,0.0,-8.19,-8.3187,-8.4394,-8.5399,-8.5588,-8.6341,-8.7809,-8.7316,-8.854,-9.1445,-9.0432,-9.1313,-9.376,-9.2691,-9.2476,-9.3062,-9.2876,-9.2328,-9.1483,-8.8988,-8.7599,-8.6959,-8.6004,-8.561,-8.5783,-8.6554,-8.7076,-8.752,0.0,0.0,0.0,0.0,0.0,0.0,0.0,0.0,0.0,0.0,0.0,0.0,0.0,0.0,-6.1503,-6.2394,-6.1845,-6.2454,0.0,0.0,0.0,0.0,0.0,0.0,0.0,0.0,0.0,-6.4206,-6.3247,-6.3603,-6.5188,-6.5761,-6.6453,-6.7261,-6.8652,-6.8838,-6.8102,-6.8098,-6.8062,-6.8004,0.0,0.0,0.0,0.0,0.0,0.0,0.0,0.0,0.0,0.0,0.0,0.0,0.0,0.0,0.0,0.0,0.0,0.0,0.0,0.0,0.0,0.0,0.0,0.0,0.0,0.0,0.0,0.0,0.0,0.0,0.0,0.0,0.0,0.0,0.0,0.0,0.0,0.0,0.0,-7.8897,-8.0834,0.0,0.0,0.0,0.0,-8.1008,-8.2579,-8.3856,-8.4676,-8.5322,-8.6417,-8.8141,-8.8409,-8.9687,-9.2185,-9.3249,-9.431,-9.5306,-9.5223,-9.5409,-9.5893,-9.4272,-9.3723,-9.4086,-9.3351,-9.2951,-9.2765,-9.0683,-8.9713,-8.944,-8.8635,-8.8782,-8.944,-8.9477,-8.9661,-8.9812,0.0,0.0,0.0,0.0,0.0,0.0,0.0,0.0,0.0,0.0,0.0,0.0,0.0,-6.1113,-6.1368,-6.1901,-6.1666,-6.1909,-6.292,0.0,0.0,0.0,0.0,0.0,0.0,0.0,-6.425,-6.419,-6.4315,-6.4896,-6.5985,-6.7173,-6.8081,-6.877,-7.0431,-7.095,-7.0575,-6.9413,-6.9259,-6.9702,-6.8723,-6.8471,0.0,0.0,0.0,0.0,0.0,0.0,0.0,0.0,0.0,0.0,0.0,0.0,0.0,0.0,0.0,0.0,0.0,0.0,0.0,0.0,0.0,0.0,0.0,0.0,0.0,0.0,0.0,0.0,0.0,0.0,0.0,0.0,0.0,0.0,0.0,0.0,0.0,-8.1398,-8.3564,0.0,-8.3325,-8.398,-8.4188,-8.3632,-8.5137,-8.6675,-8.7983,-8.8764,-8.9918,-9.1552,-9.204,-9.3053,-9.461,-9.5142,-9.6143,-9.7582,-9.6701,-9.6663,-9.7264,-9.5593,-9.492,-9.5008,-9.4198,-9.3834,-9.376,-9.3062,-9.2039,-9.0772,-8.9816,-8.9603,-9.0003,-9.0489,-9.0631,-9.0605,0.0,0.0,0.0,0.0,0.0,0.0,0.0,0.0,0.0,0.0,0.0,-6.098,-6.1113,-6.1213,-6.1344,-6.1578,-6.1619,-6.19,-6.2527,0.0,0.0,0.0,0.0,0.0,0.0,-6.4879,-6.4696,-6.4638,-6.5338,-6.6075,-6.6799,-6.8334,-6.9408,-7.009,-7.1766,-7.2698,-7.2861,-7.1597,-7.1129,-7.1065,-6.9711,-6.9728,-7.0425,0.0,0.0,0.0,0.0,0.0,0.0,0.0,0.0,0.0,0.0,0.0,0.0,0.0,0.0,0.0,0.0,0.0,0.0,0.0,0.0,0.0,0.0,0.0,0.0,0.0,0.0,0.0,0.0,0.0,0.0,0.0,0.0,0.0,0.0,0.0,-8.2754,-8.3534,-8.5767,-8.677,-8.5522,-8.6401,-8.6896,-8.6599,-8.7872,-8.9371,-9.1056,-9.1598,-9.264,-9.4249,-9.4627,-9.5585,-9.7078,-9.7183,-9.8019,-9.9472,-9.8311,-9.812,-9.8732,-9.7007,-9.6103,-9.5928,-9.508,-9.4533,-9.4307,-9.4307,-9.3573,-9.2383,-9.1468,-9.1134,-9.1167,-9.1431,-9.1528,-9.1431,0.0,0.0,0.0,0.0,0.0,0.0,0.0,0.0,0.0,0.0,-6.0933,-6.1041,-6.1164,-6.1317,-6.145,-6.1573,-6.1647,-6.241,-6.4128,-6.4245,0.0,0.0,0.0,0.0,-6.4375,-6.5102,-6.5502,-6.5523,-6.6195,-6.6983,-6.7829,-6.9343,-7.0435,-7.1207,-7.275,-7.3955,-7.478,-7.4657,-7.3653,-7.211,-7.1286,-7.1458,-7.23,0.0,0.0,0.0,0.0,0.0,0.0,0.0,0.0,0.0,0.0,0.0,0.0,0.0,0.0,0.0,0.0,0.0,0.0,0.0,0.0,0.0,0.0,0.0,0.0,0.0,0.0,0.0,0.0,0.0,0.0,0.0,0.0,0.0,-8.0506,-8.2545,-8.4405,-8.5236,-8.7423,-8.8182,-8.6611,-8.7914,-8.9178,-8.9983,-9.0829,-9.2018,-9.3705,-9.3751,-9.4445,-9.6095,-9.6095,-9.7212,-9.9673,-9.975,-10.0209,-10.1,-10.0118,-9.9922,-10.0267,-9.8433,-9.7349,-9.6866,-9.5904,-9.5064,-9.4332,-9.4332,-9.4332,-9.4235,-9.3605,-9.3277,-9.3174,-9.2653,-9.2402,-9.2306,0.0,0.0,0.0,0.0,0.0,0.0,0.0,0.0,0.0,0.0,-6.0933,-6.1021,-6.1113,-6.1303,-6.1461,-6.1582,-6.1642,-6.1876,-6.2329,0.0,0.0,0.0,0.0,0.0,-6.5232,-6.5456,-6.5858,-6.6444,-6.7156,-6.8249,-6.9663,-7.0635,-7.1529,-7.2346,-7.4014,-7.4906,-7.5236,-7.6376,-7.6648,-7.6045,-7.4333,-7.384,-7.4166,0.0,0.0,0.0,0.0,0.0,0.0,0.0,0.0,0.0,0.0,0.0,0.0,0.0,0.0,0.0,0.0,0.0,0.0,0.0,0.0,0.0,0.0,0.0,0.0,0.0,0.0,0.0,0.0,0.0,0.0,0.0,0.0,-8.2323,-8.2307,-8.4378,-8.6626,-8.8656,-9.0552,-9.171,-9.1825,-9.2245,-9.2553,-9.2784,-9.3518,-9.4441,-9.5518,-9.6211,-9.6788,-9.7248,-9.8442,-9.9096,-9.9057,-10.0288,-10.0903,-10.1018,-10.009,-10.0087,-10.0701,-9.838,-9.7516,-9.7845,-9.6363,-9.5522,-9.5255,-9.5255,-9.4675,-9.3867,-9.3639,-9.3069,-9.2439,-9.255,-9.2307,-9.1906,0.0,0.0,0.0,0.0,0.0,0.0,0.0,0.0,0.0,0.0,-6.0933,-6.1021,-6.1131,-6.1274,-6.1417,-6.1602,-6.1569,-6.1868,-6.2594,0.0,0.0,0.0,0.0,-6.5091,-6.5582,-6.5974,-6.6547,-6.736,-6.8136,-6.9215,-7.0504,-7.1661,-7.2574,-7.341,-7.5121,-7.6093,-7.6521,-7.7848,-7.8608,-7.8823,-7.7611,-7.6962,-7.6626,-7.595,-7.5661,-7.5508,-7.4865,-7.4939,-7.5322,-7.4865,0.0,0.0,0.0,0.0,0.0,0.0,0.0,0.0,0.0,0.0,0.0,0.0,0.0,0.0,0.0,0.0,0.0,0.0,0.0,0.0,0.0,0.0,0.0,0.0,-8.412,-8.5743,-8.6047,-8.7281,-8.9088,-9.1561,-9.2718,-9.3489,-9.3952,-9.3952,-9.4227,-9.4975,-9.5403,-9.6174,-9.7404,-9.8019,-9.8286,-9.8275,-9.9621,-9.9974,-9.9402,-10.0673,-10.1289,-10.1096,-10.0595,-10.0593,-10.1093,-9.9166,-9.8354,-9.8304,-9.691,-9.5789,-9.4943,-9.4446,-9.3715,-9.3028,0.0,0.0,0.0,0.0,-9.129,-9.0951,0.0,0.0,0.0,0.0,0.0,0.0,0.0,0.0,0.0,0.0,0.0,-6.1059,-6.1169,-6.1252,-6.1369,-6.1568,-6.1451,-6.2065,0.0,0.0,0.0,-6.4129,-6.5049,-6.5677,-6.5893,-6.6561,-6.7382,-6.8392,-6.9054,-6.9908,-7.0943,-7.2516,-7.3661,-7.4457,-7.6028,-7.7235,-7.8118,-7.8917,-7.9742,-8.0559,-8.0637,-8.017,-7.9181,-7.7626,-7.7462,-7.7905,-7.6363,-7.5818,-7.5818,-7.5949,0.0,0.0,0.0,0.0,0.0,0.0,0.0,0.0,0.0,0.0,0.0,0.0,0.0,0.0,0.0,0.0,0.0,0.0,0.0,0.0,0.0,0.0,0.0,0.0,-8.7661,-9.0089,-9.1036,-9.1185,-9.2025,-9.4143,-9.4462,-9.4481,-9.4588,-9.4588,-9.52,-9.6705,-9.69,-9.7595,-9.9135,0.0,0.0,0.0,0.0,-10.0473,-10.02,-10.1095,-10.1404,-10.1289,-10.1212,-10.1212,-10.1096,-10.0096,-9.9173,-9.8289,-9.7155,-9.5713,-9.3982,-9.2748,-9.1964,-9.1672,-9.2176,-9.162,-9.052,-9.0041,-8.9815,-8.9922,0.0,0.0,0.0,0.0,0.0,0.0,0.0,0.0,0.0,-6.0843,-6.0933,-6.1018,-6.1059,-6.1208,-6.1337,-6.1342,-6.1318,-6.1486,0.0,0.0,-6.3417,-6.4081,-6.5003,-6.618,-6.7601,-6.7138,-6.7963,-7.0191,-6.9648,-7.0546,-7.2811,-7.3817,-7.4779,-7.5629,-7.6605,-7.7503,-7.8362,-7.9254,-8.0113,-8.0972,-8.1675,-8.1314,-8.0225,-7.9236,-7.8552,-7.8076,-7.7764,-7.7725,-7.7857,-7.8631,-7.8768,-7.8728,-7.9026,0.0,0.0,0.0,0.0,0.0,0.0,0.0,0.0,0.0,0.0,0.0,0.0,0.0,0.0,0.0,0.0,0.0,0.0,0.0,0.0,-8.85,-9.0905,-9.3413,-9.5631,-9.6532,-9.6774,-9.6319,-9.686,-9.7586,-9.8205,-9.8244,-9.833,-9.8656,-9.9243,-9.9713,-10.0022,-10.1495,-10.1606,-10.0311,-10.1804,-10.1903,-10.0283,-10.1094,-10.1519,-10.1289,0.0,0.0,-10.0289,-9.8673,-9.7789,-9.7328,-9.5696,-9.4485,-9.3562,-9.2328,-9.0809,-8.9294,-8.9553,-8.9978,-9.019,-8.92,-8.9625,-9.0762,0.0,0.0,0.0,0.0,0.0,0.0,0.0,0.0,0.0,0.0,-6.0911,-6.0955,-6.0997,-6.108,-6.1134,-6.122,-6.1601,0.0,0.0,-6.2399,-6.3371,-6.3923,-6.489,-6.6205,-6.789,-6.7585,-6.8463,-7.0601,-7.065,-7.1554,-7.3317,-7.4648,-7.5469,-7.5937,-7.7187,-7.8242,-7.9101,-7.9961,-8.0859,-8.1679,-8.2109,-8.1972,-8.1294,-8.0037,-7.9266,-7.8846,-7.8456,-7.8339,-7.8503,-7.9377,-7.9981,-8.0417,-8.085,-8.1279,-8.1592,0.0,0.0,0.0,0.0,0.0,0.0,0.0,0.0,0.0,0.0,0.0,0.0,0.0,0.0,-8.5293,0.0,0.0,-9.0351,-9.2004,-9.4396,-9.663,-9.8374,-9.9677,-9.9946,-9.8438,-9.8717,-9.9065,-9.9413,-9.9413,-9.9568,-9.9955,-10.069,-10.1278,-10.1819,-10.2985,-10.3101,-10.1896,-10.2701,-10.2483,-10.101,-10.1398,-10.1287,-10.0711,-10.0327,-9.9827,-9.9288,-9.7558,-9.6636,-9.629,-9.4314,-9.2855,-9.1739,-9.0097,-8.8635,-8.7413,-8.7851,-8.8362,-8.8865,-8.9366,-9.0081,-9.0891,0.0,0.0,0.0,0.0,0.0,0.0,0.0,0.0,0.0,0.0,-6.0911,-6.0933,-6.0976,-6.0976,-6.1,0.0,0.0,0.0,0.0,-6.2762,-6.3761,-6.4023,-6.4961,-6.6279,-6.8004,-6.7915,-6.8788,-7.0707,-7.1455,-7.2411,-7.3486,-7.5082,-7.5902,-7.6136,-7.7503,-7.8557,-7.9455,-8.0158,-8.0944,-8.173,-8.173,-8.1865,-8.1836,-8.0273,-7.9765,-7.9842,-7.9175,-7.8784,-7.8825,-7.9843,-8.0661,-8.1403,-8.2258,-8.3193,-8.3935,-8.362,-8.4632,0.0,0.0,0.0,0.0,0.0,0.0,0.0,0.0,0.0,-8.4302,-8.6014,-8.7063,-8.8329,-9.0516,-9.2273,-9.3951,-9.5596,-9.7849,-9.9716,-10.0584,-10.199,-10.2491,-10.1103,-10.0793,-10.0716,-10.0379,-10.0509,-10.0775,-10.1115,-10.199,-10.2804,-10.3372,-10.4332,-10.4287,-10.3297,-10.3374,-10.2996,-10.1819,-10.1606,-10.108,-10.0316,-9.9861,-9.9134,-9.8096,-9.6559,-9.5521,-9.4868,-9.2695,-9.1004,-8.9591,-8.7876,-8.6894,-8.6492,-8.7439,-8.7801,-8.8019,-8.9857,-9.0782,-9.1269,0.0,0.0,0.0,0.0,0.0,0.0,0.0,0.0,0.0,0.0,0.0,0.0,0.0,0.0,0.0,0.0,0.0,0.0,-6.2022,-6.2969,-6.3902,-6.4826,-6.5713,-6.7021,-6.8836,-6.8069,-6.8885,-7.1471,-7.1587,-7.2451,-7.4021,-7.5054,-7.5963,-7.6716,-7.691,-7.7456,-7.8273,-7.839,-7.8935,-7.9723,-7.9723,-8.024,-8.0875,-7.9899,-8.0094,-8.0831,-8.074,-8.0194,-7.9795,-8.1451,-8.2065,-8.2287,-8.3098,-8.4467,-8.5429,-8.3803,0.0,-8.4334,-8.2323,-8.2045,0.0,-8.5751,-8.5535,-8.5768,0.0,0.0,-8.9631,-9.1281,-9.234,-9.3279,-9.4336,-9.5937,-9.7654,-9.939,-10.1195,-10.2616,-10.3486,-10.4488,-10.5006,-10.4812,-10.4499,-10.3992,-10.3212,-10.3927,-10.37,-10.2276,-10.3684,-10.4321,-10.3707,-10.5106,-10.5323,-10.37,-10.4308,-10.3895,-10.2195,-10.1386,-10.0793,-10.048,-9.8856,-9.7573,-9.6628,-9.5482,-9.4173,-9.2715,-9.0339,-8.8672,-8.7706,-8.7592,-8.7514,-8.7587,-8.8915,-8.9452,-8.9524,-9.0328,-9.1469,-9.2821,0.0,0.0,0.0,0.0,0.0,0.0,0.0,0.0,0.0,0.0,0.0,0.0,0.0,0.0,0.0,0.0,0.0,0.0,-6.2155,-6.2982,-6.3896,-6.4967,-6.5721,-6.6999,-6.8819,-6.849,-6.9359,-7.1559,-7.2034,-7.2638,-7.3432,-7.4286,-7.5167,-7.6038,-7.6038,-7.6816,-7.81,-7.81,-7.8596,-7.9403,-7.9909,-8.0323,-8.0698,-8.0844,-8.0857,-8.0715,-8.0222,-7.9518,0.0,-8.074,-8.165,-8.222,-8.3063,-8.4139,-8.4864,-8.3626,-8.4202,0.0,-8.3657,0.0,0.0,0.0,-8.6597,-8.8209,-9.0312,-9.1015,-9.1565,-9.278,-9.4108,-9.5358,-9.6227,-9.7867,-9.9668,0.0,-10.2714,-10.3988,-10.5404,-10.5917,-10.621,-10.621,-10.6014,-10.5616,-10.4592,-10.4882,-10.4811,-10.4092,-10.4985,-10.5581,-10.5299,-10.6412,-10.6412,-10.5182,-10.5008,-10.4092,-10.2322,-10.1408,-10.008,-9.837,-9.7488,-9.6155,-9.4484,-9.2737,-9.0949,-8.9085,-8.8257,-8.7774,-8.7705,-8.7668,-8.8032,-8.891,-8.9454,-9.0207,-9.098,-9.1578,-9.2268,-9.2985,0.0,0.0,0.0,0.0,0.0,0.0,0.0,0.0,0.0,0.0,0.0,0.0,0.0,0.0,0.0,0.0,0.0,0.0,0.0,-6.3097,-6.4007,-6.5237,-6.5981,-6.71,-6.8756,-6.8966,-6.9843,-7.1417,-7.2231,-7.2831,-7.3168,-7.3989,-7.4861,-7.575,-7.575,-7.6449,-7.7654,-7.7654,-7.812,-7.8898,-7.9558,-8.0085,-8.0533,-8.094,-8.0708,-8.0107,-7.9848,-7.9204,-7.8676,-7.9865,-8.0841,-8.1653,-8.227,-8.3204,-8.3943,-8.3053,-8.3619,-8.4456,-8.399,0.0,0.0,-8.5621,-8.7778,-9.0128,-9.1147,-9.2288,-9.3369,-9.4256,-9.5465,-9.6586,-9.7461,-9.8903,-10.0509,-10.2195,-10.3309,-10.4499,-10.601,-10.6216,-10.6119,-10.5795,-10.5591,-10.5282,-10.4913,-10.5292,-10.5409,-10.4897,-10.5985,-10.6414,-10.5912,-10.6793,-10.6784,-10.5687,-10.4818,-10.3698,-10.2205,-10.0707,-9.89,-9.6876,-9.5632,-9.4163,-9.2444,-9.0189,-8.8448,-8.7149,-8.7292,-8.7518,-8.8033,-8.818,-8.8873,-8.9898,-9.0007,-9.0616,-9.1531,-9.2347,-9.2796,-9.3227,0.0,0.0,0.0,0.0,0.0,0.0,0.0,0.0,0.0,0.0,0.0,0.0,0.0,0.0,0.0,0.0,0.0,0.0,0.0,-6.3527,-6.426,-6.5986,-6.683,-6.7718,-6.8651,-6.9455,-7.0305,-7.1224,-7.2075,-7.2963,-7.3775,-7.4634,-7.5531,-7.6382,-7.6382,-7.6421,-7.6459,-7.6459,-7.6962,-7.7751,-7.779,-7.8757,-8.0135,-7.937,-7.9044,-7.9183,-8.0221,-8.0007,-7.9267,0.0,-7.9959,-8.0629,-8.0569,-8.1756,0.0,-8.194,-8.1654,0.0,0.0,0.0,-8.4948,-8.8312,-8.9831,-9.1488,-9.499,-9.5746,-9.5975,-9.6875,-9.7147,-9.7419,-9.8196,-9.911,-10.0293,-10.1904,-10.2893,-10.391,-10.4795,-10.5023,-10.4588,-10.3681,-10.2888,-10.2785,0.0,-10.5482,-10.6003,-10.4284,-10.6483,-10.6796,-10.4284,-10.5818,-10.5898,-10.4218,-10.3398,-10.2496,-10.1611,-9.8812,-9.7303,-9.7051,-9.3224,-9.1206,-9.08,-8.8432,-8.7712,-8.8362,-8.8031,-8.7957,-8.825,-8.9456,-9.0033,-9.0288,-9.0668,-9.0806,-9.0762,-9.1901,-9.3132,-9.4264,0.0,0.0,0.0,0.0,0.0,0.0,0.0,0.0,0.0,0.0,0.0,0.0,0.0,0.0,0.0,0.0,0.0,0.0,0.0,-6.3377,-6.4244,-6.5468,-6.6217,-6.7327,-6.88,-6.9052,-6.9843,-7.1269,-7.1487,-7.2066,-7.301,-7.321,-7.4123,-7.5546,-7.5546,-7.5856,-7.6436,-7.6968,-7.7369,-7.7717,-7.8838,-7.961,-8.0151,-8.0498,-7.9981,-7.9076,0.0,-7.8646,-7.7526,0.0,0.0,0.0,-7.9321,0.0,0.0,-7.9966,0.0,0.0,0.0,0.0,-8.618,-8.8393,-9.0074,-9.16,-9.3397,-9.4226,-9.4705,-9.5003,-9.508,-9.5337,-9.6241,-9.7148,-9.8339,-10.0102,-10.1603,-10.2887,-10.3772,-10.4382,-10.4015,-10.1894,-10.201,0.0,0.0,0.0,0.0,-10.479,-10.5591,-10.5795,-10.4906,-10.5019,-10.4519,-10.3281,-10.1905,-10.0383,-9.8899,-9.6702,-9.4814,-9.3284,-9.0221,-8.8378,-8.7626,-8.7117,-8.7093,-8.7479,-8.7809,-8.8545,-8.9605,-9.0078,-9.0361,-9.0486,-9.0643,-9.0528,-9.0393,-9.1763,-9.2597,-9.3086,0.0,0.0,0.0,0.0,0.0,0.0,0.0,0.0,0.0,0.0,0.0,0.0,0.0,0.0,0.0,0.0,0.0,0.0,0.0,0.0,-6.4259,-6.5168,-6.6256,-6.7355,-6.849,-6.8735,-6.9401,-7.0447,-7.0341,-7.0915,-7.2142,-7.2075,-7.2963,-7.4695,-7.4943,-7.5407,-7.5948,-7.6764,-7.7447,-7.8039,-7.881,-7.9478,-8.0018,-8.0022,-7.9392,0.0,-7.8128,-7.7365,-7.6521,0.0,0.0,0.0,0.0,0.0,0.0,0.0,0.0,0.0,0.0,-8.482,-8.7172,-8.8875,-9.0532,-9.2029,-9.2943,-9.3367,-9.3599,-9.3925,-9.3276,-9.2936,-9.381,-9.4518,-9.5417,-9.6849,-9.8571,-10.0117,-10.127,-10.1906,-10.1608,-9.9886,-9.9952,-9.9875,0.0,0.0,0.0,-10.3586,-10.4102,-10.3885,-10.3017,-10.2881,-10.2119,-10.0585,-9.9104,-9.7582,-9.6024,-9.403,-9.1842,-8.9521,-8.7927,-8.6769,-8.605,-8.6393,-8.6905,-8.7541,-8.8102,-8.9021,-9.0185,-9.0324,-9.0497,-9.0631,-9.0704,-9.0552,-9.0501,-9.2014,-9.2532,-9.2636,0.0,0.0,0.0,0.0,0.0,0.0,0.0,0.0,0.0,0.0,0.0,0.0,0.0,0.0,0.0,0.0,0.0,0.0,0.0,0.0,0.0,-6.5115,-6.6828,-6.7762,-6.7827,-6.8574,-6.894,-6.889,-6.882,-6.9652,-7.1214,-7.1214,-7.2142,-7.3806,-7.4509,-7.4833,-7.491,-7.5723,-7.6955,-7.8363,-7.7631,-7.8228,-7.9438,-7.7911,-7.7379,-7.7279,-7.6508,-7.6273,0.0,0.0,0.0,0.0,0.0,0.0,0.0,0.0,0.0,-8.1799,-8.3355,-8.5606,-8.7918,-8.9613,-9.1164,-9.2588,-9.3528,-9.3076,-9.2661,-9.3489,-9.1775,-9.0325,0.0,0.0,-9.1759,-9.2595,-9.4259,-9.6048,-9.7665,-9.7936,-9.7871,0.0,0.0,0.0,0.0,0.0,0.0,-10.0721,0.0,-10.1283,-9.9016,-9.9627,-9.8878,-9.6406,-9.5144,-9.4093,-9.3221,-9.0982,-8.8647,-8.6138,-8.6455,-8.6401,-8.6181,-8.6301,-8.7107,-8.8488,-8.8945,-8.9459,-9.0073,-9.045,-9.0552,-9.0637,-9.099,-9.0944,-9.1044,-9.2639,-9.3014,-9.2921,0.0,0.0,0.0,0.0,0.0,0.0,0.0,0.0,0.0,0.0,0.0,0.0,0.0,0.0,0.0,0.0,0.0,0.0,0.0,0.0,0.0,0.0,0.0,0.0,0.0,0.0,0.0,0.0,0.0,-6.9324,-7.0324,-7.0281,-7.086,-7.1988,-7.2159,-7.2584,-7.328,-7.4011,-7.4925,-7.5954,-7.6299,-7.6734,-7.707,-7.6673,-7.6121,-7.5568,-7.5388,0.0,0.0,0.0,0.0,0.0,0.0,0.0,-7.8579,0.0,0.0,-8.267,-8.4358,-8.6152,-8.7858,-8.8938,-8.9485,-8.9909,-9.014,-8.9998,-8.9734,-8.9325,-8.8256,-8.75,0.0,0.0,0.0,-9.1726,-9.4373,0.0,-9.7645,-9.8378,0.0,-9.696,0.0,-9.6861,-9.5223,-9.5342,0.0,0.0,-9.7731,-9.8296,-9.7751,-9.6917,-9.6052,-9.5222,-9.2325,-9.0779,-9.0802,-8.8995,-8.7201,-8.5461,-8.6025,-8.6234,-8.6074,-8.6664,-8.7615,-8.8765,-8.9271,-8.988,-9.045,-9.0385,-9.0511,-9.079,-9.0851,-9.1128,-9.1534,-9.2532,-9.2834,-9.2886,0.0,0.0,0.0,0.0,0.0,0.0,0.0,0.0,0.0,0.0,0.0,0.0,0.0,0.0,0.0,0.0,0.0,0.0,0.0,0.0,0.0,0.0,0.0,0.0,0.0,0.0,0.0,0.0,0.0,0.0,-6.9033,-6.9013,-6.9439,-7.0368,-7.066,-7.1106,-7.161,-7.2362,-7.3192,0.0,0.0,-7.4309,-7.4679,-7.4663,-7.4375,-7.4048,0.0,0.0,0.0,0.0,0.0,-7.7653,-7.7988,-7.8683,-7.9571,-8.0806,0.0,-8.347,-8.4783,-8.6336,-8.7734,-8.8197,-8.8622,-8.8815,-8.8405,-8.8065,-8.7655,-8.7166,-8.5873,0.0,-8.5406,0.0,0.0,0.0,0.0,0.0,-9.6645,-9.6924,-9.6769,0.0,-9.6212,0.0,-9.4336,-9.4447,-9.428,0.0,-9.4794,-9.5477,-9.5268,-9.3666,-9.2334,-9.1404,-8.9205,-8.8128,-8.8301,-8.6957,-8.6026,-8.5507,-8.5812,-8.6111,-8.6297,-8.6966,-8.7852,-8.8967,-8.9283,-8.9778,-9.0331,-9.0491,-9.0612,-9.0864,-9.1462,-9.1849,-9.2193,-9.3067,-9.3333,-9.3369,0.0,0.0,0.0,0.0,0.0,0.0,0.0,0.0,0.0,0.0,0.0,0.0,0.0,0.0,0.0,0.0,0.0,0.0,0.0,0.0,0.0,0.0,0.0,0.0,0.0,0.0,0.0,0.0,0.0,0.0,0.0,0.0,0.0,0.0,0.0,0.0,0.0,0.0,-7.1409,-7.2129,-7.1392,-7.1547,-7.2224,0.0,0.0,0.0,0.0,0.0,0.0,0.0,-7.7079,-7.8103,-7.8992,-7.9881,-8.0924,-8.2532,-8.3498,-8.4259,-8.5092,-8.6375,-8.7494,-8.761,-8.8112,-8.8382,-8.7649,-8.6847,-8.62,-8.6008,0.0,-8.3045,-8.3699,-8.4708,-8.6086,-8.7989,0.0,-9.272,-9.5299,-9.4884,-9.4613,-9.5303,-9.4795,-9.4292,-9.42,-9.3586,-9.2791,-9.1944,-9.2382,-9.2487,-9.2053,-9.0398,-8.8539,-8.6514,-8.6274,-8.6084,-8.5895,-8.5403,-8.5395,-8.5872,-8.5964,-8.6236,-8.6647,-8.7265,-8.8082,-8.9023,-8.9131,-8.94,-8.9953,-9.038,-9.0645,-9.0815,-9.2084,-9.2675,-9.2886,-9.3745,-9.3995,-9.3959,0.0,0.0,0.0,0.0,0.0,0.0,0.0,0.0,0.0,0.0,-6.0426,-6.0955,0.0,0.0,0.0,0.0,0.0,0.0,0.0,0.0,0.0,0.0,0.0,0.0,0.0,0.0,0.0,0.0,0.0,0.0,0.0,0.0,0.0,0.0,0.0,0.0,0.0,0.0,-6.8894,-6.97,-6.9439,-6.9472,-6.9731,0.0,0.0,0.0,0.0,0.0,0.0,0.0,-7.7539,-7.9966,-8.0769,-8.2122,-8.3515,-8.461,-8.4972,-8.5256,-8.6197,-8.6571,-8.6942,-8.7677,-8.7406,-8.697,-8.6803,-8.6159,0.0,0.0,-8.3314,-8.2902,-8.2454,-8.3579,0.0,-8.892,0.0,0.0,0.0,0.0,-9.4667,0.0,0.0,0.0,0.0,0.0,0.0,0.0,0.0,-8.8515,-8.9016,-8.8045,-8.6316,-8.3785,-8.4957,-8.5172,-8.4223,-8.569,-8.6227,-8.5795,-8.7064,-8.7304,-8.6774,-8.8179,-8.8851,-8.8932,-8.9295,-8.9485,-8.9457,-8.955,-8.982,-9.0303,-9.139,-9.2192,-9.2886,-9.3745,-9.3995,-9.3959,0.0,0.0,0.0,0.0,0.0,0.0,0.0,-5.8072,-5.9078,-5.961,-6.0828,-6.1504,-6.108,-6.1274,-6.1429,0.0,0.0,0.0,0.0,0.0,0.0,0.0,0.0,0.0,0.0,0.0,-6.7253,-6.6783,0.0,-6.7195,-6.6759,-6.6697,-6.6736,-6.6759,-6.6689,-6.69,-6.7329,-6.7257,-6.7501,-6.7948,-6.7837,-6.7842,0.0,0.0,0.0,0.0,0.0,0.0,0.0,0.0,-7.7453,-8.0776,-8.1945,-8.3468,-8.5095,-8.6364,-8.6416,-8.6197,-8.7035,-8.6931,-8.6672,-8.7002,-8.6837,-8.6324,-8.5449,0.0,0.0,0.0,-8.252,-8.2465,-8.2114,0.0,0.0,0.0,0.0,0.0,0.0,0.0,0.0,0.0,0.0,0.0,0.0,0.0,0.0,0.0,0.0,-8.7229,-8.7596,-8.5933,-8.4381,-8.3056,-8.3963,-8.4683,-8.5142,-8.6185,-8.6691,-8.6644,-8.7559,-8.7829,-8.7628,-8.8419,-8.8828,-8.9091,-8.9192,-8.9162,-8.911,-8.9573,-8.9823,-9.016,-9.1212,-9.2085,-9.2814,-9.3119,-9.3404,-9.3781,0.0,0.0,0.0,0.0,0.0,0.0,0.0,-5.7786,-5.8718,-5.9934,-6.1402,-6.2116,-6.1524,-6.1627,-6.1733,0.0,0.0,0.0,0.0,0.0,0.0,0.0,0.0,0.0,0.0,0.0,0.0,-6.66,-6.7441,0.0,0.0,0.0,0.0,0.0,-6.6856,-6.6852,-6.6912,-6.6839,-6.6839,0.0,0.0,-6.6973,0.0,0.0,0.0,0.0,0.0,0.0,0.0,0.0,-7.7472,-8.0807,-8.2209,-8.3893,-8.5674,-8.7095,-8.7008,-8.661,-8.7383,-8.7058,-8.65,-8.6443,-8.6346,-8.586,-8.4379,-8.4056,0.0,0.0,-8.2038,-8.2143,-8.2154,0.0,0.0,0.0,0.0,0.0,0.0,0.0,0.0,0.0,0.0,0.0,0.0,0.0,0.0,0.0,-8.6599,-8.6282,-8.6273,-8.4399,-8.3301,-8.3276,-8.3992,-8.4949,-8.6232,-8.6673,-8.7012,-8.7263,-8.7739,-8.8085,-8.8277,-8.8505,-8.8764,-8.9198,-8.8987,-8.8899,-8.8881,-8.9574,-8.9805,-8.9839,-9.089,-9.1711,-9.2264,-9.2351,-9.2794,-9.3306,0.0,0.0,0.0,0.0,0.0,0.0,0.0,-5.779,-5.8953,-6.0765,-6.1927,-6.2588,-6.2629,-6.2659,-6.2396,0.0,0.0,0.0,0.0,0.0,0.0,0.0,0.0,0.0,0.0,0.0,0.0,-6.5702,-6.6582,0.0,0.0,0.0,0.0,0.0,0.0,-6.6895,-6.6917,-6.6895,0.0,0.0,0.0,0.0,0.0,0.0,0.0,0.0,0.0,0.0,0.0,0.0,0.0,-7.9938,-8.0844,-8.2727,-8.4864,-8.5737,0.0,0.0,-8.6684,-8.6726,-8.6583,-8.6583,-8.6056,-8.5268,-8.4443,0.0,0.0,-8.2268,-8.2131,-8.2211,-8.2264,-8.2421,0.0,0.0,0.0,-8.6666,0.0,0.0,0.0,0.0,0.0,0.0,0.0,0.0,0.0,-8.7096,-8.5091,-8.3937,-8.3928,-8.3974,-8.4012,-8.4041,-8.5789,-8.6458,-8.5778,-8.723,-8.742,-8.6413,-8.7716,-8.8206,-8.7919,-8.8805,-8.9126,-8.8899,-8.8899,-8.8846,-8.8667,-8.8881,-8.8917,-8.8809,-8.9839,-9.0264,-9.0514,-9.171,-9.2294,-9.2505,0.0,0.0,0.0,0.0,0.0,0.0,-5.7061,-5.7872,-5.8915,-6.0328,-6.2196,-6.3249,-6.289,-6.3271,-6.3054,-6.1765,0.0,0.0,0.0,0.0,0.0,0.0,0.0,0.0,0.0,0.0,-6.6716,-6.6361,-6.7263,0.0,0.0,0.0,0.0,0.0,0.0,-6.7377,-6.6895,-6.6901,0.0,0.0,0.0,0.0,0.0,0.0,0.0,0.0,0.0,0.0,0.0,0.0,0.0,0.0,-7.8671,-8.0023,0.0,0.0,-8.4958,-8.5164,-8.6451,-8.6713,-8.6649,-8.6635,-8.5681,-8.461,-8.4405,0.0,0.0,-8.2226,-8.2211,-8.2265,-8.2292,-8.2285,-8.2636,0.0,0.0,0.0,0.0,0.0,0.0,0.0,0.0,0.0,0.0,0.0,0.0,-8.4978,-8.3869,-8.3434,-8.3732,-8.3834,-8.3938,-8.3838,-8.4893,-8.5591,-8.5675,-8.6801,-8.7264,-8.7192,-8.8335,-8.8734,-8.8331,-8.8792,-8.8934,-8.8667,-8.8178,-8.7994,-8.7901,-8.7959,-8.8002,-8.8063,-8.8544,-8.9414,-9.0277,-9.0148,-9.0809,-9.1614,0.0,0.0,0.0,0.0,0.0,-5.6056,-5.7081,-5.7949,-5.9016,-6.0358,-6.2315,-6.3492,-6.3311,-6.3577,-6.3311,-6.2184,-6.3204,0.0,0.0,0.0,0.0,0.0,0.0,0.0,0.0,0.0,-6.6913,-6.6912,-6.7773,-6.832,0.0,0.0,-6.914,-6.8555,0.0,0.0,0.0,0.0,0.0,0.0,0.0,0.0,0.0,0.0,0.0,0.0,0.0,0.0,0.0,0.0,0.0,0.0,0.0,0.0,0.0,0.0,-8.3777,-8.4132,-8.5991,-8.6457,-8.6418,-8.638,-8.533,-8.4262,0.0,0.0,0.0,-8.2214,-8.2265,-8.2285,-8.2299,-8.2293,-8.2293,-8.2287,0.0,-8.2872,0.0,0.0,0.0,0.0,0.0,0.0,0.0,0.0,0.0,-8.2975,-8.2872,-8.3124,-8.3624,-8.3833,-8.4022,-8.4316,-8.5062,-8.5678,-8.6073,-8.6688,-8.7279,-8.7726,-8.8294,-8.8544,-8.8396,-8.8632,-8.8542,-8.7994,-8.762,-8.73,-8.7205,-8.7196,-8.7422,-8.7654,-8.7763,-8.8707,-8.9919,-8.9301,-8.9825,-9.0813,0.0,0.0,0.0,0.0,0.0,0.0,-5.7168,-5.8048,-5.9279,-6.1245,-6.226,-6.3154,-6.4073,-6.3403,-6.2935,-6.2969,-6.3008,0.0,0.0,0.0,0.0,0.0,0.0,0.0,0.0,0.0,-6.6904,-6.6901,-6.7772,-6.8594,-6.9375,-6.9414,-6.9414,-6.9336,0.0,0.0,0.0,0.0,0.0,0.0,0.0,0.0,0.0,0.0,0.0,0.0,0.0,0.0,0.0,0.0,0.0,0.0,0.0,0.0,0.0,0.0,-8.2168,-8.2657,-8.5161,-8.5751,-8.5692,-8.5702,-8.5097,-8.4294,0.0,0.0,-8.2219,-8.2276,-8.2293,-8.2293,-8.2293,-8.2293,-8.2287,-8.2226,-8.2187,0.0,0.0,0.0,0.0,0.0,0.0,0.0,0.0,0.0,-8.1717,-8.1625,-8.2104,0.0,-8.3192,-8.3852,-8.4611,-8.5645,-8.7179,-8.7643,-8.6845,-8.7248,-8.755,-8.7726,-8.732,-8.7382,-8.7808,-8.8396,-8.7901,-8.6622,-8.7205,-8.7109,-8.6587,-8.6629,-8.6989,-8.7744,-8.7709,-8.8181,-8.8901,-8.9373,-8.977,-9.0154,0.0,0.0,0.0,0.0,0.0,0.0,0.0,-5.7295,-5.8298,-5.9538,-6.0983,-6.227,-6.3218,-6.3023,-6.2875,-6.2993,-6.35,0.0,0.0,0.0,0.0,0.0,0.0,0.0,0.0,-6.7312,-6.7703,-6.7703,-6.9195,-7.0031,-7.0312,-7.0898,-7.0859,-7.0273,-7.0039,-6.957,0.0,0.0,0.0,0.0,0.0,0.0,0.0,0.0,0.0,0.0,0.0,0.0,0.0,0.0,0.0,0.0,0.0,0.0,0.0,0.0,0.0,0.0,-8.2881,-8.4073,-8.4948,-8.4999,-8.3955,-8.3031,-8.3436,0.0,-8.1547,-8.2182,-8.2293,-8.2293,-8.2293,-8.2241,-8.2226,-8.221,-8.2153,0.0,0.0,0.0,0.0,0.0,0.0,0.0,0.0,0.0,-8.177,-8.1818,-8.2575,-8.318,-8.3636,-8.4251,-8.4541,-8.4429,-8.484,-8.5092,-8.5199,-8.5762,-8.6214,-8.6464,-8.6989,-8.7091,-8.6789,-8.7109,-8.695,-8.6359,-8.6125,-8.5923,-8.5822,-8.5786,-8.63,-8.7156,-8.6968,-8.7779,-8.8999,-8.8632,-8.8903,-8.9455,0.0,0.0,0.0,0.0,0.0,0.0,0.0,-5.7457,-5.8363,-5.9309,-6.0672,-6.1907,-6.2836,-6.2594,-6.2648,-6.3422,-6.3929,0.0,0.0,0.0,0.0,0.0,0.0,0.0,-6.6887,-6.7698,-6.8279,-6.8591,-7.0348,-7.1182,-7.1205,-7.2067,-7.203,-7.117,-7.0859,-7.0389,0.0,0.0,0.0,0.0,0.0,0.0,-7.2065,0.0,0.0,0.0,0.0,0.0,0.0,0.0,0.0,0.0,0.0,0.0,0.0,0.0,0.0,0.0,0.0,-8.3304,-8.4215,-8.4563,-8.3665,0.0,0.0,0.0,-8.1609,-8.2163,-8.228,-8.2273,-8.2273,-8.2226,-8.2201,-8.2101,-8.2038,0.0,0.0,0.0,0.0,0.0,0.0,0.0,0.0,-8.1048,-8.1486,-8.227,-8.2754,-8.3223,-8.3783,-8.4018,-8.3877,-8.3385,-8.3948,-8.4472,-8.4786,-8.5054,-8.5461,-8.6026,-8.6394,-8.6345,-8.6159,-8.6359,-8.6159,-8.5686,-8.5446,-8.5479,0.0,-8.5577,-8.6224,-8.7283,-8.7147,-8.7953,-8.9038,-8.8588,-8.8723,-8.9353,0.0,0.0,0.0,0.0,0.0,0.0,0.0,-5.818,-5.9143,-6.0075,-6.1017,-6.1933,-6.2792,-6.2116,-6.2317,-6.4062,0.0,0.0,0.0,0.0,0.0,0.0,0.0,0.0,-6.6904,-6.7746,-6.8591,-6.9405,-7.1167,-7.2026,-7.2104,-7.2869,-7.2798,-7.2059,-7.1171,-7.077,0.0,0.0,0.0,0.0,-7.2885,-7.2768,0.0,0.0,0.0,0.0,0.0,0.0,0.0,0.0,0.0,0.0,0.0,0.0,0.0,0.0,0.0,0.0,0.0,0.0,0.0,0.0,0.0,0.0,0.0,0.0,0.0,-8.2171,-8.2201,-8.2182,-8.2172,-8.2172,-8.2101,-8.1797,-8.1804,0.0,0.0,0.0,0.0,0.0,0.0,0.0,0.0,-7.9933,-8.0983,-8.2773,-8.2602,-8.2819,-8.3472,-8.3297,-8.2941,-8.2488,-8.4215,-8.524,-8.534,-8.4873,-8.5159,-8.6122,-8.5401,-8.5371,-8.572,-8.6059,-8.5583,-8.464,-8.5168,-8.5611,-8.579,-8.5892,-8.665,-8.8038,-8.7955,-8.8453,-8.9072,-8.9072,-8.9319,-8.9556,0.0,0.0,0.0,0.0,0.0,0.0,0.0,0.0,0.0,0.0,-6.0106,-6.1023,-6.1894,-6.1822,-6.2106,0.0,0.0,0.0,0.0,0.0,0.0,0.0,0.0,0.0,-6.6913,-6.8349,-6.9195,-6.9405,-7.1167,-7.2339,-7.2963,-7.25,-7.2544,-7.2974,-7.2088,-7.1679,0.0,0.0,0.0,0.0,-7.2444,-7.2516,0.0,0.0,0.0,0.0,-7.5194,-7.5755,0.0,0.0,0.0,0.0,0.0,0.0,0.0,0.0,-8.0661,0.0,-8.1779,0.0,-8.2209,-8.2474,-8.2387,-8.2284,0.0,0.0,0.0,0.0,0.0,-8.1905,-8.1765,-8.1804,-8.1502,-8.0605,-8.1065,0.0,0.0,0.0,0.0,0.0,0.0,0.0,0.0,-8.0359,-8.1378,-8.224,-8.2787,-8.2944,-8.2761,-8.267,-8.2488,-8.1896,-8.2112,-8.2665,-8.3459,-8.3873,-8.4368,-8.4796,-8.5172,-8.5172,-8.4924,-8.4924,-8.4819,-8.464,-8.5356,-8.5729,-8.5824,-8.6433,-8.7152,-8.7946,-8.8007,-8.8473,-8.9072,-8.9072,-8.9106,-8.9397,0.0,0.0,0.0,0.0,0.0,0.0,0.0,0.0,0.0,0.0,0.0,0.0,0.0,0.0,0.0,0.0,0.0,0.0,0.0,0.0,0.0,0.0,0.0,-6.6895,-6.6914,-6.8553,-6.9401,-6.9405,-7.1558,-7.2622,-7.2713,-7.2606,-7.2609,-7.2684,-7.2183,-7.1988,-7.2008,-7.1969,-7.247,-7.325,-7.3126,0.0,0.0,0.0,0.0,0.0,-7.6357,-7.6965,0.0,-7.878,-7.9272,-7.9369,0.0,0.0,0.0,0.0,-8.1328,-8.1585,-8.1585,-8.1656,-8.1757,-8.1776,-8.1813,-8.1865,-8.1843,0.0,0.0,0.0,0.0,-8.1621,-8.1097,-8.1289,-8.1204,-8.0113,-8.0613,0.0,0.0,0.0,0.0,0.0,0.0,0.0,0.0,-8.1056,-8.1769,-8.2276,-8.2606,-8.267,-8.2176,-8.2176,-8.1802,-8.1194,-8.1342,-8.1756,-8.2542,-8.2952,-8.3432,-8.3892,-8.4403,-8.45,-8.4211,-8.4764,-8.4899,-8.4966,-8.5851,-8.6501,-8.6839,-8.7245,-8.7897,-8.8473,-8.8473,-8.8777,-8.9072,-8.9072,-8.9421,-9.0018,0.0,0.0,0.0,0.0,0.0,0.0,0.0,0.0,0.0,0.0,0.0,0.0,0.0,0.0,0.0,0.0,0.0,0.0,0.0,0.0,0.0,0.0,-6.6887,-6.6979,-6.7109,-6.8594,-6.9488,-6.9616,-7.208,-7.299,-7.2381,-7.3084,-7.2964,-7.2185,-7.2245,-7.2177,-7.1987,-7.2049,-7.2596,-7.3454,-7.4186,0.0,0.0,0.0,0.0,0.0,0.0,0.0,0.0,-8.0285,-8.0754,-8.083,-8.1586,0.0,0.0,0.0,0.0,0.0,-8.1698,-8.1812,-8.1846,-8.1751,-8.1716,-8.1738,-8.1756,0.0,0.0,0.0,0.0,0.0,0.0,-8.0895,0.0,0.0,0.0,0.0,0.0,0.0,0.0,0.0,0.0,0.0,-8.1176,-8.1802,-8.2225,-8.2509,-8.2488,-8.2176,-8.1612,-8.1715,-8.1331,-8.0442,-8.1156,-8.18,-8.2132,-8.2267,-8.269,-8.3443,-8.3775,-8.3951,-8.4085,-8.5018,-8.5464,-8.5599,-8.6628,-8.7414,-8.7989,-8.8125,-8.8531,-8.9072,-8.9072,-8.9072,-8.9106,-8.9421,-9.0008,-9.1023,0.0,0.0,0.0,0.0,0.0,0.0,0.0,0.0,0.0,0.0,0.0,0.0,0.0,0.0,0.0,0.0,0.0,0.0,0.0,0.0,0.0,-6.6912,-6.6913,-6.7265,-6.7969,-6.8906,-6.9765,-7.0507,-7.2382,-7.3593,-7.4132,-7.4243,-7.3833,-7.3055,-7.3774,-7.3289,-7.1954,-7.2704,-7.3493,-7.4312,-7.4363,0.0,0.0,0.0,0.0,0.0,0.0,0.0,0.0,-8.044,-8.0754,-8.0844,-8.1689,0.0,0.0,0.0,0.0,0.0,-8.1716,-8.2195,-8.2544,-8.1871,-8.163,-8.1562,-8.1635,-8.1523,0.0,0.0,0.0,0.0,0.0,0.0,0.0,0.0,0.0,0.0,0.0,0.0,0.0,0.0,0.0,-8.132,-8.1484,-8.1887,-8.2225,-8.2509,-8.2488,-8.2118,-8.1166,-8.1684,-8.1421,-7.9904,-8.101,-8.1537,-8.1317,-8.2167,-8.3154,-8.4102,-8.4102,-8.4405,-8.5119,-8.5472,-8.602,-8.6662,-8.7516,-8.7888,-8.8057,-8.8666,-8.897,-8.9072,-8.9072,-8.9072,-8.9319,-9.0673,-9.1261,-9.1732,0.0,0.0,0.0,0.0,0.0,0.0,0.0,0.0,0.0,0.0,0.0,0.0,0.0,0.0,0.0,0.0,0.0,0.0,0.0,0.0,-6.709,-6.7539,-6.7572,-6.7807,-6.8203,-6.9447,-7.0533,-7.1392,-7.3111,-7.4101,-7.4381,-7.4342,-7.4147,-7.3865,-7.4285,-7.4002,-7.3261,-7.3661,-7.4333,-7.5191,0.0,0.0,0.0,0.0,0.0,0.0,0.0,0.0,0.0,0.0,-8.1538,-8.1594,-8.1977,0.0,0.0,0.0,0.0,0.0,-8.1776,-8.1945,-8.2205,-8.2333,-8.2282,-8.2109,-8.1654,-8.1414,-8.1319,0.0,0.0,0.0,0.0,0.0,0.0,0.0,0.0,0.0,0.0,0.0,0.0,0.0,0.0,-8.1697,-8.2001,-8.24,-8.2731,-8.2637,-8.2707,-8.2404,-8.1766,-8.2106,-8.1834,-8.1013,-8.1738,-8.2059,-8.1951,-8.2686,-8.322,-8.3775,-8.4143,-8.4511,-8.5101,-8.6273,-8.6957,-8.7328,-8.8149,-8.8564,-8.8598,-8.8937,-8.9072,-8.9072,-8.9072,-8.959,-9.0649,-9.2685,-9.3728,-9.4352,0.0,0.0,0.0,0.0,0.0,0.0,0.0,0.0,0.0,0.0,0.0,0.0,0.0,0.0,0.0,0.0,0.0,0.0,0.0,-6.6223,-6.706,-6.8047,-6.8151,-6.846,-6.9062,-7.0366,-7.1507,-7.2594,-7.4024,-7.4909,-7.5223,-7.5171,-7.5129,-7.5026,-7.5026,-7.4792,-7.4441,-7.4636,-7.5221,-7.6118,0.0,0.0,0.0,0.0,0.0,0.0,0.0,0.0,0.0,0.0,0.0,0.0,0.0,0.0,0.0,-8.2153,-8.2038,-8.1913,-8.1792,-8.1812,-8.1988,-8.2437,-8.252,-8.2406,-8.2122,-8.1799,-8.1571,-8.1543,0.0,0.0,0.0,0.0,0.0,0.0,0.0,0.0,0.0,0.0,0.0,-8.081,-8.1612,-8.2298,-8.2643,-8.3121,-8.3341,-8.2967,-8.3018,-8.2973,-8.258,-8.2681,-8.2472,-8.1989,-8.2684,-8.2979,-8.2703,-8.3187,-8.351,-8.371,-8.4356,-8.4935,-8.556,-8.7038,-8.7756,-8.7958,-8.8723,-8.9072,-8.9072,-8.9072,-8.9261,-8.9449,-8.9542,-9.0734,-9.2817,-9.4602,-9.5948,-9.6921,0.0,0.0,0.0,0.0,0.0,0.0,0.0,0.0,0.0,0.0,0.0,0.0,0.0,0.0,0.0,0.0,0.0,0.0,0.0,-6.5661,-6.6406,-6.8047,-6.8082,-6.925,-7.1669,-7.1841,-7.2704,-7.4312,-7.5117,-7.6339,-7.7935,-7.7958,-7.7599,-7.6886,-7.6847,-7.595,-7.4546,-7.5365,-7.6184,-7.7082,-7.7901,0.0,0.0,0.0,0.0,0.0,0.0,0.0,0.0,0.0,0.0,0.0,0.0,0.0,0.0,-8.2052,-8.2012,-8.1968,-8.1737,-8.2319,-8.2746,-8.1774,-8.1478,-8.1891,-8.3373,-8.3007,-8.2332,-8.224,-8.2144,0.0,0.0,0.0,0.0,0.0,0.0,0.0,0.0,0.0,-8.2691,-8.2831,-8.34,-8.3677,-8.3524,-8.3965,-8.4061,-8.3601,-8.3789,-8.3655,-8.3191,-8.3362,-8.3013,-8.2023,-8.3369,-8.3591,-8.2703,-8.3406,-8.4143,-8.4812,-8.5034,-8.6028,-8.7408,-8.7845,-8.8361,-8.9004,-8.9072,-8.9072,-8.9072,-8.9072,-8.9567,-9.0291,-9.072,-9.286,-9.5649,-9.6054,-9.7231,-9.8527,0.0,0.0,0.0,0.0,0.0,0.0,0.0,0.0,0.0,0.0,0.0,0.0,0.0,0.0,0.0,0.0,0.0,0.0,0.0,-6.5807,-6.7171,-6.8847,-6.8922,-6.9894,-7.1963,-7.2539,-7.3882,-7.6115,-7.735,-7.778,-7.7467,-7.7961,-7.7501,-7.631,-7.6778,-7.6652,-7.6067,-7.6435,-7.7106,-7.7926,-7.8246,-7.837,0.0,0.0,0.0,0.0,0.0,0.0,0.0,0.0,0.0,0.0,0.0,0.0,0.0,0.0,-8.1929,-8.1865,-8.1716,-8.1879,-8.2056,-8.2146,-8.1716,-8.16,-8.2814,-8.2728,-8.2378,-8.2317,-8.2188,-8.1869,0.0,0.0,0.0,0.0,0.0,0.0,0.0,-8.2929,-8.3359,-8.3315,-8.3697,-8.3995,-8.4229,-8.4316,-8.4607,-8.4959,-8.5116,-8.5013,-8.4558,-8.4968,-8.5002,-8.4352,-8.5514,-8.5616,-8.4588,-8.6059,-8.681,-8.6904,-8.629,-8.6644,-8.7912,-8.8463,-8.8835,-8.9072,-8.9072,-8.9373,-8.9887,-8.9887,-9.0357,-9.123,-9.2964,-9.4667,-9.6239,-9.7359,-9.8146,-9.867,0.0,0.0,0.0,0.0,0.0,0.0,0.0,0.0,0.0,0.0,0.0,0.0,0.0,0.0,0.0,0.0,0.0,0.0,-6.4672,-6.5829,-6.7224,-6.8903,-6.8981,-6.9918,-7.1948,-7.2846,-7.4396,-7.6677,-7.8553,-7.8753,-7.7401,-7.7946,-7.7638,-7.6646,-7.7184,-7.7301,-7.7067,-7.7348,-7.7863,-7.8416,-7.8696,-7.8663,0.0,0.0,0.0,0.0,0.0,0.0,0.0,0.0,0.0,0.0,0.0,0.0,0.0,0.0,-8.1898,-8.183,-8.1691,-8.1577,-8.1594,-8.2052,-8.1687,-8.1427,-8.2224,-8.2579,-8.2701,-8.2644,-8.2099,-8.1576,-8.1212,0.0,0.0,0.0,0.0,0.0,0.0,-8.3466,-8.3789,-8.3753,-8.4136,-8.4471,-8.4828,-8.5092,-8.5561,-8.6242,-8.6238,-8.62,-8.599,-8.6467,-8.6705,-8.6536,-8.7461,-8.76,-8.6915,-8.8118,-8.8775,-8.8812,-8.808,-8.817,-8.917,-8.9355,-8.9593,-8.9887,-8.9887,-9.0177,-9.0674,-9.0674,-9.1369,-9.2678,-9.4689,-9.6046,-9.7087,-9.8238,-9.867,-9.867,0.0,0.0,0.0,0.0,0.0,0.0,0.0,0.0,0.0,0.0,0.0,0.0,0.0,0.0,0.0,0.0,0.0,0.0,-6.5547,-6.5609,-6.6366,-6.801,-6.8083,-6.9333,-7.1909,-7.2846,-7.4128,-7.5826,-7.8347,-7.9101,-7.8184,-7.8339,-7.837,-7.839,-7.839,-7.7921,-7.7179,-7.8038,-7.839,-7.8468,-7.9326,-7.917,-7.8507,0.0,0.0,0.0,0.0,0.0,0.0,0.0,0.0,0.0,0.0,0.0,0.0,-8.1848,-8.1887,-8.1926,-8.16,-8.1608,0.0,0.0,0.0,0.0,-8.1892,-8.2702,-8.3389,-8.3285,-8.203,-8.087,-8.0641,-8.0464,0.0,0.0,-8.2032,-8.3084,-8.4388,-8.4263,-8.4163,-8.4585,-8.5086,-8.533,-8.5108,-8.6347,-8.7085,-8.7085,-8.7141,-8.7178,-8.7431,-8.7645,-8.7929,-8.8091,-8.8955,-8.9373,-8.9373,-8.9373,-8.9757,-9.0388,-9.0388,-9.0771,-9.1502,-9.0674,-9.0779,-9.1502,-9.1502,-9.1502,-9.1502,-9.1502,-9.2849,-9.4855,-9.5901,-9.7159,-9.8291,-9.8609,-9.867,-9.867,0.0,0.0,0.0,0.0,0.0,0.0,0.0,0.0,0.0,0.0,0.0,0.0,0.0,0.0,0.0,0.0,0.0,0.0,-6.4726,-6.5812,-6.6742,-6.7249,-6.8405,-6.9372,-7.0152,-7.2221,-7.4708,-7.7621,-7.8386,-7.8291,-7.7414,-7.7458,-7.7185,-7.6661,-7.7229,-7.7335,-7.7101,-7.7375,-7.7843,-7.8429,-7.8663,-7.9014,-7.9287,0.0,0.0,0.0,0.0,0.0,0.0,0.0,0.0,0.0,0.0,0.0,0.0,-8.1869,-8.1833,-8.1815,-8.1577,0.0,0.0,0.0,0.0,0.0,0.0,-8.2102,-8.2411,-8.2399,-8.2384,-8.2319,-8.1777,-8.2272,0.0,-8.2876,-8.3472,-8.4098,-8.4344,-8.4499,-8.4729,-8.4783,-8.5169,-8.5629,-8.6111,-8.6807,-8.7532,-8.8133,-8.8199,-8.824,-8.8416,-8.8885,-8.9366,-8.9799,-9.0893,-9.1223,-9.047,-9.1658,-9.2046,-9.1573,-9.1677,-9.1731,-9.1502,-9.1298,-9.1298,-9.1502,-9.1502,-9.1805,-9.2505,-9.3686,-9.4787,-9.5937,-9.6827,-9.7682,-9.8609,-9.8706,-9.867,-9.8706,0.0,0.0,0.0,0.0,0.0,0.0,0.0,0.0,0.0,0.0,-6.6398,-6.6513,0.0,0.0,0.0,0.0,0.0,0.0,-6.4883,-6.6131,-6.691,-6.691,-6.8219,-6.9411,-7.0426,-7.2651,-7.4987,-7.7355,-7.7706,-7.727,-7.6123,-7.714,-7.7161,-7.643,-7.7971,-7.8272,-7.7648,-7.7999,-7.8233,-7.8429,-7.878,-7.9248,-7.9678,0.0,0.0,0.0,0.0,0.0,0.0,0.0,0.0,0.0,0.0,0.0,0.0,-8.1757,-8.1738,-8.1757,-8.1528,0.0,0.0,0.0,0.0,0.0,0.0,0.0,0.0,0.0,-8.2774,-8.2729,-8.2519,-8.2425,0.0,-8.3588,-8.3953,-8.4313,-8.4889,-8.5261,-8.5526,-8.5526,-8.6085,-8.6688,-8.7187,-8.7674,-8.8224,-8.8721,-8.8951,-8.9123,-8.9364,-9.0277,-9.1027,-9.1396,-9.2204,-9.2296,-9.1615,-9.2438,-9.2545,-9.19,-9.2365,-9.2399,-9.1978,-9.1999,-9.2238,-9.2532,-9.2532,-9.2999,-9.3959,-9.4773,-9.5908,-9.7001,-9.7314,-9.8087,-9.8896,-9.8861,-9.8896,-9.8968,0.0,0.0,0.0,0.0,0.0,0.0,0.0,0.0,0.0,0.0,-6.5641,-6.5996,0.0,0.0,0.0,0.0,0.0,0.0,0.0,-6.6406,-6.6914,-6.6914,-6.7955,-6.9689,-7.2188,-7.371,-7.4843,-7.5579,-7.636,-7.6086,-7.4876,-7.7126,-7.7836,-7.7317,-7.9801,-7.9951,-7.8468,-7.9248,-7.9131,-7.8468,-7.9366,-7.9756,-7.9912,-8.0615,0.0,0.0,0.0,0.0,0.0,0.0,0.0,0.0,0.0,0.0,-8.1887,-8.1575,-8.1635,-8.1737,0.0,0.0,0.0,0.0,0.0,0.0,0.0,0.0,0.0,0.0,0.0,-8.2613,-8.3001,-8.1884,-8.1579,-8.3806,-8.3919,-8.4243,-8.5801,-8.6211,-8.6441,-8.6513,-8.7431,-8.8107,-8.8107,-8.8683,-8.9058,-8.8987,-8.9502,-8.9998,-9.0214,-9.1762,-9.2636,-9.2782,-9.2782,-9.2746,-9.2675,-9.1961,-9.1604,-9.1604,-9.2425,-9.2782,-9.2817,-9.292,-9.3274,-9.3995,-9.3995,-9.4606,-9.5503,-9.5336,-9.6358,-9.7867,-9.7658,-9.8253,-9.9085,-9.9107,-9.9272,-9.9416,0.0,0.0,0.0,0.0,0.0,0.0,0.0,0.0,0.0,0.0,0.0,0.0,0.0,0.0,0.0,0.0,0.0,0.0,0.0,-6.6406,-6.6914,-6.6914,-6.9648,-7.2066,-7.4006,-7.3754,-7.3666,-7.3822,-7.4017,-7.4954,-7.656,-7.6462,-7.7048,-7.8161,-7.9405,-7.9405,-7.839,-7.8585,-7.8585,-7.8468,-7.9366,-8.0107,-8.0654,-8.0185,-7.9756,0.0,0.0,0.0,0.0,0.0,0.0,0.0,-8.1794,-8.1757,-8.1718,-8.153,-8.1484,0.0,0.0,0.0,0.0,0.0,0.0,0.0,0.0,0.0,0.0,0.0,0.0,0.0,-8.424,-8.4222,-8.4462,-8.5482,-8.5479,-8.5616,-8.6439,-8.6456,-8.6576,-8.706,-8.7705,-8.8107,-8.8107,-8.9392,-8.9963,-8.9493,-9.0569,-9.1265,-9.1567,-9.2282,-9.2817,-9.2782,-9.2782,-9.2496,-9.1854,-9.1711,-9.1604,-9.1604,-9.2425,-9.2782,-9.2817,-9.342,-9.3868,-9.3995,-9.4141,-9.4606,-9.5336,-9.5815,-9.6636,-9.7658,-9.849,-9.8848,-9.9085,-9.9329,-9.935,-9.9405,0.0,0.0,0.0,0.0,0.0,0.0,0.0,0.0,0.0,0.0,0.0,0.0,0.0,0.0,0.0,0.0,0.0,0.0,0.0,0.0,-6.7422,-6.8672,-7.164,-7.3475,-7.3973,-7.3924,-7.372,-7.3315,-7.2885,-7.3588,-7.5305,-7.6102,-7.7156,-7.8468,-7.9756,-7.9834,-7.9053,-7.9483,-7.9405,-7.9092,-7.9951,-8.0576,-8.0927,-8.0431,-7.9721,-7.8885,-7.8258,0.0,0.0,0.0,0.0,0.0,0.0,0.0,-8.1546,-8.1375,-8.1323,0.0,0.0,0.0,0.0,0.0,0.0,0.0,0.0,0.0,0.0,0.0,0.0,0.0,0.0,-8.456,-8.4935,-8.5918,-8.5661,-8.5652,-8.6577,-8.6809,-8.7187,-8.7765,-8.8433,-8.8814,-8.8814,-8.9686,-9.0273,-9.0201,-9.0867,-9.1388,-9.1781,-9.2086,-9.2211,-9.2211,-9.189,-9.1497,-9.1069,-9.0712,-9.0498,-9.0534,-9.1675,-9.2639,-9.3388,-9.3781,-9.3995,-9.3995,-9.4231,-9.4696,-9.5392,-9.6271,-9.7187,-9.7975,-9.8856,-9.9329,-9.9457,-9.9513,-9.966,-9.9804,0.0,0.0,0.0,0.0,0.0,0.0,0.0,0.0,0.0,0.0,0.0,0.0,0.0,0.0,0.0,0.0,0.0,0.0,0.0,0.0,0.0,-7.0584,-7.3201,-7.4255,-7.3543,-7.4243,-7.4154,-7.3315,-7.2573,-7.2729,-7.3783,-7.6047,-7.7726,-7.8897,-8.0341,-8.0491,-7.9704,-8.025,-8.0165,-7.969,-8.0275,-8.0665,-8.0891,-8.0641,-7.9645,-7.8453,-7.9034,-7.9337,-7.9554,-8.0125,0.0,0.0,0.0,0.0,-8.135,-8.1234,-8.1205,0.0,0.0,0.0,0.0,0.0,0.0,0.0,0.0,0.0,0.0,0.0,0.0,0.0,0.0,-8.4275,-8.4609,-8.6063,-8.555,-8.5504,-8.6902,-8.7601,-8.8229,-8.8816,-8.9413,-8.9879,-9.0071,-9.0169,-9.042,-9.104,-9.1025,-9.1189,-9.1657,-9.1604,-9.1533,-9.1426,-9.0819,-9.0427,-9.0284,-8.9641,-8.932,-8.932,-9.089,-9.2479,-9.3872,-9.4015,-9.4086,-9.3959,-9.4231,-9.4751,-9.5539,-9.6671,-9.7552,-9.8343,-9.9189,-9.9605,-9.9786,-9.9876,-9.9965,-10.034,0.0,0.0,0.0,0.0,0.0,0.0,0.0,0.0,0.0,0.0,-6.5698,-6.6453,0.0,0.0,0.0,0.0,0.0,0.0,0.0,0.0,0.0,-7.0631,-7.3208,-7.4545,-7.4442,-7.454,-7.4179,-7.3315,-7.3197,-7.3939,-7.5501,-7.6594,-7.835,-8.0654,-8.0888,-8.0431,-7.9481,-7.8857,-7.8893,-7.9311,-7.8727,-7.935,-8.0557,-7.9803,-7.9375,-7.9151,-7.9097,-7.9523,-8.014,-8.01,-8.064,0.0,0.0,0.0,-8.1205,-8.1214,-8.1085,0.0,0.0,0.0,0.0,0.0,0.0,0.0,0.0,0.0,0.0,0.0,0.0,0.0,0.0,-8.5043,-8.5227,-8.6673,-8.6625,-8.6974,-8.8562,-8.9138,-8.9677,-9.0672,-9.0681,-9.1004,-9.1821,-9.1367,-9.138,-9.2376,-9.2109,-9.1972,-9.2216,-9.1781,-9.1319,-9.0676,-9.0569,-9.0177,-8.9499,-8.9356,-8.932,-8.932,-9.1066,-9.237,-9.3354,-9.4212,-9.4321,-9.3959,-9.441,-9.4965,-9.5539,-9.6671,-9.7552,-9.8307,-9.9371,-9.9786,-9.9786,-10.0127,-10.0303,-10.0442,0.0,0.0,0.0,0.0,0.0,0.0,0.0,0.0,0.0,0.0,0.0,-6.6424,0.0,0.0,0.0,-6.4375,-6.5098,-6.5815,-6.6289,-6.7847,0.0,-7.0586,-7.2209,-7.3289,-7.3766,-7.3748,-7.331,-7.247,-7.247,-7.3835,-7.6448,-7.7333,-7.8916,-8.1005,-8.1005,-8.0704,-8.0202,-7.9899,-7.9578,-7.9321,-7.9533,-7.9714,-7.989,-7.9887,-7.9618,-7.9251,-7.9597,-7.9935,-8.0314,-8.0718,-8.1038,-8.1291,-8.1273,0.0,0.0,0.0,-8.0991,0.0,0.0,0.0,0.0,0.0,0.0,0.0,0.0,0.0,0.0,0.0,0.0,0.0,0.0,-8.581,-8.6425,-8.6887,-8.7317,-8.8028,-8.9537,-8.9914,-9.0432,-9.1655,-9.1403,-9.138,-9.1788,-9.1269,-9.1125,-9.1955,-9.1427,-9.1187,-9.1448,-9.1004,-9.0524,-8.9994,-9.0165,-9.0022,-8.9664,-9.0094,-9.0774,-9.1634,-9.2489,-9.2992,-9.335,-9.3797,-9.4192,-9.4446,-9.4675,-9.4979,-9.5162,-9.6342,-9.6971,-9.7191,-9.8756,-9.915,-9.8998,-10.0028,-10.0201,-10.0081,0.0,0.0,0.0,0.0,0.0,0.0,0.0,0.0,0.0,0.0,0.0,0.0,0.0,0.0,0.0,0.0,-6.4756,-6.5624,-6.6479,-6.7551,0.0,0.0,-7.129,-7.2145,-7.2744,-7.2977,-7.269,-7.1817,-7.2011,-7.3882,-7.7233,-7.8174,-7.989,-8.2218,-8.1758,-8.1421,-8.1076,-8.0709,-8.0285,-7.9904,-8.0039,-7.9778,-7.9342,-8.0144,-8.001,-7.9502,-8.0351,-8.0609,-8.0589,-8.1221,-8.1374,-8.1234,-8.1146,-8.1085,0.0,0.0,0.0,-8.1214,0.0,0.0,0.0,0.0,0.0,0.0,0.0,0.0,0.0,0.0,0.0,0.0,0.0,-8.6574,-8.7366,-8.7829,-8.8366,-8.9228,-9.0773,-9.0908,-9.1331,-9.2616,-9.2016,-9.1666,-9.2146,-9.1225,-9.0935,-9.1821,-9.0872,-9.0491,-9.0946,-9.0348,-8.9917,-8.9713,-9.0097,-9.0216,-9.0001,-9.0792,-9.1655,-9.2711,-9.3193,-9.3265,-9.3169,-9.3434,-9.3867,-9.4445,-9.4445,-9.4467,-9.4633,-9.5772,-9.6327,-9.6531,-9.8115,-9.8554,-9.8359,-9.9742,-9.9947,-9.9568,0.0,0.0,0.0,0.0,0.0,0.0,0.0,0.0,0.0,0.0,0.0,-6.646,-6.5615,-6.5545,-6.4922,-6.3203,-6.3802,-6.4619,-6.5425,-6.7064,-6.8388,-6.9253,-7.0901,0.0,-7.1856,-7.2674,-7.2674,-7.1817,-7.2635,-7.4778,-7.8168,-7.9026,-8.1624,-8.5478,-8.3882,-8.2701,-8.1817,-8.01,-8.0201,-8.1298,-7.9109,-7.8608,-7.9227,-8.0198,-8.0455,-8.0345,-8.1307,-8.1507,-8.1323,-8.1319,-8.1234,-8.1146,-8.0991,-8.0888,-8.0926,0.0,0.0,0.0,0.0,0.0,0.0,0.0,0.0,0.0,0.0,0.0,0.0,0.0,0.0,0.0,0.0,-8.7112,-8.7756,-9.0038,-9.0312,-9.0809,-9.2564,-9.2448,-9.2688,-9.3975,-9.2507,-9.2182,-9.3867,-9.1958,-9.1269,-9.2827,-9.1243,-9.0655,-9.1449,-9.0516,-9.0001,-9.0001,-9.072,-9.0756,-9.0001,-9.0792,-9.0912,-9.0511,-9.2192,-9.2763,-9.2199,-9.3164,-9.3644,-9.3601,-9.3034,-9.3338,-9.4265,-9.5109,-9.599,-9.6919,-9.7839,-9.8214,-9.85,-9.9375,-9.9276,-9.9082,0.0,0.0,0.0,0.0,0.0,0.0,0.0,0.0,0.0,0.0,0.0,0.0,0.0,-6.6402,-6.6195,-6.557,-6.6243,-6.7022,-6.7866,-6.846,-6.911,-6.995,-7.1121,-7.199,-7.2507,-7.2818,-7.2818,-7.2507,-7.2803,-7.4437,-7.7282,-7.8737,-8.08,-8.3298,-8.3324,-8.3441,-8.3423,-8.1282,-8.0571,-8.0764,-8.0053,-7.9865,-8.0027,-8.0901,-8.1209,-8.1243,-8.2173,-8.2341,-8.2245,-8.2775,-8.2526,-8.1955,-8.1798,-8.1349,-8.0855,-8.072,-8.0924,-8.1346,-8.1863,0.0,0.0,0.0,0.0,0.0,0.0,0.0,0.0,0.0,0.0,0.0,0.0,-8.947,-8.9603,-9.0473,-9.1406,-9.2455,-9.3624,-9.3168,-9.3313,-9.4949,-9.308,-9.2247,-9.3461,-9.1785,-9.0835,-9.1414,-9.0863,-9.0565,-9.0728,-9.052,-9.0547,-9.097,-9.1341,-9.1929,-9.2688,-9.26,-9.2682,-9.2981,-9.3296,-9.2976,-9.2254,-9.2624,-9.2633,-9.2198,-9.1926,-9.2533,-9.3922,-9.5231,-9.5713,-9.564,-9.7032,-9.7333,-9.7319,-9.8554,-9.9046,-9.9176,0.0,0.0,0.0,0.0,0.0,0.0,0.0,0.0,-6.855,-6.855,0.0,0.0,0.0,0.0,-6.7555,-6.7188,-6.7671,-6.8319,-6.9101,-6.9399,-7.0021,-7.112,-7.2041,-7.2912,-7.3717,-7.401,-7.401,-7.3739,-7.401,-7.5139,-7.7138,-7.8901,-8.0784,-8.2689,-8.3127,-8.3895,-8.4754,-8.2883,-8.1905,-8.162,-8.0995,-8.0614,-8.0552,-8.2068,-8.2417,-8.2234,-8.3419,-8.3513,-8.3189,-8.3691,-8.3442,-8.2832,-8.2611,-8.1939,-8.1103,-8.069,-8.1041,-8.1647,-8.1805,-8.1783,0.0,0.0,0.0,0.0,0.0,0.0,0.0,0.0,0.0,0.0,0.0,0.0,-9.1974,-9.1813,-9.28,-9.3742,-9.4576,-9.4078,-9.4014,-9.5231,-9.3405,-9.2235,-9.2823,-9.1792,-9.0951,-9.0697,-9.0915,-9.0951,-9.0537,-9.0661,-9.1248,-9.2175,-9.2083,-9.2671,-9.4014,-9.3296,-9.3201,-9.3455,-9.3358,-9.2929,-9.2238,-9.2238,-9.2021,-9.1583,-9.1726,-9.2527,-9.3764,-9.4744,-9.5218,-9.5407,-9.6465,-9.6734,-9.6636,-9.7991,-9.8547,-9.8851,0.0,0.0,0.0,0.0,0.0,0.0,0.0,0.0,-6.9492,-6.9492,0.0,0.0,0.0,0.0,0.0,-6.8024,-6.7891,-6.8247,-6.9033,-6.9847,-7.1068,-7.2696,-7.3665,-7.4595,-7.5449,-7.6303,-7.6303,-7.5449,-7.6206,-7.7038,-7.7891,-7.9597,-8.1685,-8.4079,-8.3406,-8.4106,-8.5693,-8.4592,-8.4139,-8.3984,-8.1739,-8.0707,-8.0803,-8.3611,-8.3968,-8.3264,-8.5097,-8.5053,-8.4147,-8.4093,-8.3972,-8.3856,-8.3427,-8.2604,-8.1614,-8.0773,-8.1041,-8.1492,0.0,0.0,0.0,0.0,0.0,0.0,0.0,0.0,0.0,0.0,0.0,0.0,0.0,0.0,-9.4693,-9.4322,-9.4368,-9.4786,-9.5586,-9.5167,-9.4817,-9.4817,-9.3431,-9.2368,-9.2169,-9.2169,-9.1806,-9.1043,-9.1697,-9.1806,-9.097,-9.1166,-9.1972,-9.3504,-9.2847,-9.2847,-9.3577,-9.2811,-9.2085,-9.1545,-9.2313,-9.2352,-9.1803,-9.1803,-9.1803,-9.184,-9.2721,-9.3379,-9.3887,-9.3691,-9.4719,-9.6375,-9.6375,-9.6531,-9.6795,-9.7603,-9.7897,-9.8154,0.0,0.0,0.0,0.0,0.0,-7.2475,-7.3061,-7.2631,-7.2193,0.0,0.0,0.0,-7.0188,-7.0628,-7.1583,-7.3135,-7.2707,-7.2673,-7.3472,-7.3161,-7.3433,-7.4518,-7.543,-7.6283,-7.7136,-7.7369,-7.7098,-7.6283,-7.6496,-7.6708,-7.6897,-7.8646,-8.0506,-8.2336,-8.3304,-8.4072,-8.4552,-8.3134,-8.2862,-8.3311,-8.2059,-8.2293,-8.3291,-8.3426,-8.364,-8.41,-8.5778,-8.6041,-8.5805,-8.7108,-8.7017,-8.6049,-8.393,-8.2641,-8.1729,-8.1423,-8.1679,-8.1989,-8.1527,0.0,0.0,0.0,0.0,0.0,0.0,0.0,0.0,0.0,0.0,0.0,0.0,0.0,0.0,-9.5531,-9.5531,-9.5684,-9.5903,-9.5247,-9.5115,-9.5894,-9.4385,-9.3618,-9.428,-9.365,-9.317,-9.2915,-9.2939,-9.2685,-9.2041,-9.2628,-9.2884,-9.2738,-9.365,-9.3978,-9.3613,-9.2965,-9.253,-9.2386,-9.217,-9.195,-9.1803,-9.1803,-9.1803,-9.184,-9.2721,-9.3529,-9.4224,-9.4772,-9.5285,-9.5838,-9.6388,-9.6608,-9.6795,-9.7603,-9.8264,-9.8924,0.0,0.0,0.0,0.0,0.0,-7.4509,-7.5006,-7.4897,-7.4655,0.0,0.0,0.0,-7.25,-7.3177,-7.4225,-7.5702,-7.5333,-7.539,-7.6239,-7.5851,-7.5929,-7.6798,-7.7694,-7.8353,-7.8818,-7.9205,-7.8973,-7.812,-7.8137,-7.7921,-7.7566,-7.8928,-8.009,-8.105,-8.238,-8.3024,-8.3018,-8.2104,-8.2261,-8.2999,-8.2572,-8.296,-8.3893,-8.4435,-8.4876,-8.5405,-8.7088,-8.7736,-8.802,-8.9022,-8.8925,-8.7948,-8.5197,-8.4327,-8.4058,-8.2409,-8.3063,-8.4032,-8.2874,-8.3077,-8.3595,-8.3497,0.0,0.0,-8.5037,-8.5557,-8.6485,0.0,0.0,0.0,0.0,0.0,0.0,-9.5668,-9.5705,-9.5894,-9.6143,-9.5857,-9.5716,-9.6018,-9.5057,-9.4545,-9.4655,-9.4139,-9.3806,-9.3842,-9.3321,-9.2815,-9.2165,-9.2856,-9.3075,-9.2676,-9.359,-9.3846,-9.3408,-9.2681,-9.2353,-9.2353,-9.195,-9.1803,-9.1803,-9.1803,-9.1803,-9.184,-9.2721,-9.3565,-9.4336,-9.518,-9.5694,-9.6098,-9.6906,-9.7199,-9.7309,-9.808,-9.8924,-9.9659,0.0,0.0,-7.5819,-7.4999,-7.5547,-7.6077,-7.6127,-7.6741,-7.6902,0.0,-7.5874,-7.5774,-7.5856,-7.6405,-7.6853,-7.6962,-7.6862,-7.7132,-7.7968,-7.7906,-7.8216,-7.9105,-7.9888,-8.0338,-8.0415,-8.1213,-8.1174,-8.0299,-8.0213,-7.9801,-7.9028,-7.984,-8.0188,-8.0227,-8.1092,-8.1478,-8.1504,-8.1478,-8.2056,-8.3009,-8.3038,-8.3134,-8.3552,-8.6029,-8.6854,-8.697,-8.871,-8.9784,-9.0326,-9.0466,-9.0406,-8.9877,-8.7235,-8.7312,-8.768,-8.4171,-8.511,-8.6858,-8.4904,-8.5226,-8.6362,-8.7295,-8.5964,0.0,-8.8239,-8.7362,-8.6885,-9.0081,0.0,0.0,0.0,0.0,0.0,-9.4622,-9.5028,-9.5618,-9.6343,-9.6682,-9.6539,-9.5731,-9.5731,-9.5361,-9.4402,-9.4219,-9.4146,-9.4183,-9.334,-9.2536,-9.195,-9.2536,-9.2903,-9.2941,-9.3051,-9.3051,-9.2978,-9.217,-9.1803,-9.1803,-9.1803,-9.1803,-9.1803,-9.1803,-9.1803,-9.184,-9.2831,-9.3639,-9.4373,-9.5254,-9.6025,-9.6759,-9.7493,-9.7823,-9.8007,-9.8814,-9.9622,-10.0283,-7.4759,-7.5852,-7.6873,-7.6653,-7.7299,-7.8021,-7.8709,-7.8896,-7.8831,-7.8621,-7.7875,-7.7821,-7.9105,-7.8796,-7.9052,-8.0454,-7.9864,-7.9555,-7.9796,-7.9129,-7.9105,-7.9918,-8.0111,-8.0561,-8.1257,-8.1451,-8.1103,-8.0213,-8.0227,-7.9801,-7.9028,-7.984,-8.0188,-8.0227,-8.1066,-8.1453,-8.1478,-8.1374,-8.1929,-8.2869,-8.2902,-8.3739,-8.5071,-8.6248,-8.6996,-8.7775,-9.0111,-9.0989,-9.1287,-9.3141,-9.3715,-9.3169,-9.0961,-9.053,-9.0479,-8.8356,-8.8172,-8.8668,-8.8596,-8.8456,-8.8228,-8.7868,-8.8774,0.0,-8.6384,-8.6458,-8.6832,0.0,0.0,0.0,0.0,0.0,0.0,0.0,-9.3235,-9.5034,-9.6425,-9.7236,-9.7346,-9.6575,-9.7052,-9.7126,-9.6242,-9.5697,-9.5479,-9.5479,-9.4153,-9.3233,-9.2794,-9.3015,-9.2867,-9.206,-9.2721,-9.2758,-9.206,-9.1877,-9.1803,-9.1803,-9.1803,-9.1803,-9.1803,-9.1803,-9.1803,-9.1877,-9.3418,-9.4153,-9.441,-9.5878,-9.6575,-9.6722,-9.6869,-9.7309,-9.8007,-9.8814,-9.9622,-10.0393,-7.6575,-7.7542,-7.844,-7.8419,-7.9049,-7.987,-8.0728,-8.1096,-8.125,-8.1193,-8.0725,-8.0561,-8.0903,-8.0981,-8.1159,-8.1608,-8.1252,-8.1019,-8.0988,-8.0585,-8.0522,-8.0895,-8.0871,-8.1039,-8.1504,-8.1504,-8.131,-8.0846,-8.0846,-8.0628,-8.0216,-8.0628,-8.1028,-8.14,-8.14,-8.1659,-8.2045,-8.154,-8.1876,-8.2857,-8.3244,-8.4405,-8.6029,-8.7234,-8.8421,-8.9646,-9.1703,-9.3213,-9.4177,-9.4177,-9.4903,-9.5313,-9.2284,-9.2924,-9.4202,-9.1432,-9.162,-9.2333,-9.054,-9.0164,-9.0239,-9.0239,-9.0106,0.0,0.0,-8.7365,-8.6885,-8.7194,0.0,0.0,0.0,0.0,0.0,-9.0482,-9.2354,-9.4116,-9.5441,-9.6578,-9.7239,-9.6911,-9.7206,-9.7355,-9.7026,-9.5958,-9.5146,-9.4741,-9.4335,-9.3821,-9.3343,-9.283,-9.2425,-9.2128,-9.2462,-9.2389,-9.1948,-9.1948,-9.1876,-9.1803,-9.1803,-9.2024,-9.2464,-9.2464,-9.2684,-9.3125,-9.4373,-9.4887,-9.4997,-9.6208,-9.6685,-9.6795,-9.7566,-9.8154,-9.8631,-9.9842,-10.0796,-10.1604,-7.8422,-7.9083,-7.9742,-7.991,-8.048,-8.118,-8.2011,-8.2582,-8.3078,-8.3328,-8.3324,-8.313,-8.2766,-8.3193,-8.3387,-8.3019,-8.2415,-8.2182,-8.2495,-8.2018,-8.1669,-8.1615,-8.1553,-8.1504,-8.1504,-8.1504,-8.1504,-8.1478,-8.1478,-8.1453,-8.14,-8.1427,-8.1787,-8.2361,-8.1849,-8.2108,-8.288,-8.2101,-8.2621,-8.4016,-8.4579,-8.539,-8.6394,-8.8506,-9.0042,-9.1367,-9.3409,-9.5747,-9.7584,-9.5442,-9.6245,-9.7499,-9.393,-9.5477,-9.792,-9.4386,-9.5112,-9.6261,-9.2903,-9.2551,-9.3165,-9.3016,-9.2068,-9.1157,0.0,0.0,0.0,-8.9233,0.0,0.0,0.0,0.0,0.0,0.0,0.0,0.0,0.0,-9.5295,0.0,-9.6584,-9.6805,-9.6953,-9.6842,-9.5327,-9.4142,-9.3546,-9.385,-9.3853,-9.3477,-9.2531,-9.2091,-9.2409,-9.2015,-9.1944,-9.2091,-9.1944,-9.1801,-9.1803,-9.195,-9.2427,-9.3125,-9.3272,-9.3675,-9.4336,-9.5144,-9.5511,-9.5584,-9.6392,-9.6795,-9.7052,-9.8374,-9.8961,-9.9292,-10.0686,-10.1898,-10.2705,-7.8539,-7.9098,-7.9959,-8.0733,-8.0886,-8.1195,-8.2046,-8.2169,-8.265,-8.4156,-8.435,-8.4844,-8.6232,-8.5871,-8.6065,-8.752,-8.4816,-8.3739,-8.532,-8.3131,-8.1785,-8.1683,-8.1615,-8.1553,-8.1504,-8.1504,-8.1478,-8.14,-8.14,-8.14,-8.14,-8.1347,-8.1424,-8.1567,-8.2168,-8.2912,-8.3645,0.0,-8.5252,-8.8143,-8.8122,-8.7017,-8.5738,-8.9601,-9.1048,-9.1562,-9.5284,-9.8222,-10.0212,-9.9128,-9.9924,-10.0977,-9.8617,-9.9315,-10.0608,-9.8064,-9.8272,-9.8933,-9.7554,-9.8207,-9.8463,-9.497,-9.7012,-9.8092,-9.1385,0.0,-9.0674,-8.8368,0.0,0.0,0.0,0.0,0.0,0.0,0.0,0.0,-9.1639,-9.3558,-9.5034,-9.5034,-9.6179,-9.6511,-9.5253,-9.3805,-9.2943,-9.307,-9.2439,-9.2262,-9.2795,-9.2653,-9.2547,-9.2409,-9.1499,-9.1392,-9.2091,-9.125,-9.1106,-9.1803,-9.2574,-9.3015,-9.3125,-9.3822,-9.4189,-9.4336,-9.5144,-9.5511,-9.5584,-9.6392,-9.7126,-9.7787,-9.797,-9.8484,-9.9218,-10.0099,-10.1384,-10.2705,-7.9998,-8.0625,-8.1328,-8.1678,0.0,-8.199,-8.285,-8.413,-8.5103,-8.5307,-8.6631,-8.7637,-8.7846,-8.8032,-8.8213,-8.8462,-8.7153,-8.6217,-8.5907,-8.4338,-8.3641,-8.4048,-8.2488,-8.2282,-8.3762,-8.2288,-8.171,-8.2134,-8.1671,-8.1347,-8.1263,-8.1291,-8.2073,-8.3441,-8.3286,0.0,-8.6639,0.0,-8.6724,0.0,-8.9652,-8.9369,-8.8596,-9.2479,-9.5098,-9.6852,-9.8522,-10.0383,-10.192,-10.0122,-10.0497,-10.1703,-10.0596,-10.09,-10.1509,-10.1012,-10.0691,-10.0141,-9.8423,-9.9196,-9.9779,-9.7044,-9.7831,-9.82,-9.3867,-9.2129,-9.1212,-9.0403,0.0,0.0,0.0,0.0,0.0,0.0,-9.0531,-9.2045,0.0,0.0,-9.3591,-9.4212,0.0,0.0,-9.3054,-9.3374,-9.3441,-9.3025,-9.2588,-9.2224,-9.2113,-9.1912,-9.1845,-9.1845,-9.1375,-9.1422,-9.2091,-9.1689,-9.1875,-9.2574,-9.2941,-9.3602,-9.4483,-9.485,-9.5254,-9.5731,-9.6539,-9.6982,-9.7059,-9.7389,-9.8091,-9.8943,-9.8943,-9.9305,-9.9916,-10.0845,-10.2169,-10.3647,-8.1323,-8.1874,-8.2304,-8.2304,-8.2304,-8.25,-8.3086,-8.4706,-8.5956,-8.6254,-8.7972,-8.9354,-8.9881,-9.0312,-9.0585,-9.0672,-8.9852,-8.8987,-8.8149,-8.6378,-8.5702,-8.6519,-8.4339,-8.3892,-8.5505,-8.384,-8.296,-8.3064,-8.2378,-8.2101,-8.2254,-8.2015,-8.3141,-8.5241,0.0,-8.6499,-8.9426,0.0,-8.9388,-9.0551,-9.2541,-9.3581,-9.4189,-9.5983,-9.8657,-10.1385,-10.1568,-10.2676,-10.367,-10.1805,-10.2103,-10.3192,-10.269,-10.2613,-10.2792,-10.3263,-10.2808,-10.1817,-9.9683,-10.0424,-10.1201,-9.8234,-9.7989,-9.78,-9.5253,-9.3631,-9.2795,-9.3213,-9.1684,0.0,0.0,0.0,-9.0016,-8.9988,0.0,-9.2584,0.0,-9.1943,0.0,0.0,0.0,0.0,0.0,-9.2951,-9.3285,-9.2691,-9.2076,-9.1668,-9.139,-9.1128,-9.1172,-9.1498,-9.1259,-9.1528,-9.2091,-9.202,-9.2389,-9.3125,-9.3565,-9.4373,-9.5511,-9.5731,-9.6282,-9.7129,-9.7717,-9.8238,-9.8574,-9.8611,-9.9129,-9.9981,-9.9981,-10.0346,-10.0882,-10.1591,-10.2886,-10.436,-8.2098,-8.2295,-8.2304,-8.2304,0.0,-8.2304,-8.2344,-8.2422,-8.3631,-8.6912,-8.7414,-8.9054,-9.3192,-9.2958,-9.3504,-9.5925,-9.312,-9.1892,-9.3554,-8.9604,-8.757,-8.8365,-8.7454,-8.6553,-8.5704,-8.6242,-8.5661,-8.3963,-8.3712,-8.4065,-8.4874,-8.3933,-8.4465,-8.6191,-8.6935,-8.8709,-9.1171,-9.1979,-9.421,-9.725,-9.8173,-10.0519,-10.2899,-9.9827,-10.0591,-10.3487,-10.4201,-10.4997,-10.5801,-10.562,-10.6106,-10.6603,-10.58,-10.551,-10.518,-10.4605,-10.4773,-10.4799,-10.238,-10.3476,-10.3986,-9.8154,-9.8339,-9.8818,-9.4528,-9.5295,-9.6724,-9.6117,-9.6304,-9.6325,-9.538,-9.4105,-9.3152,-9.2942,-9.3449,0.0,0.0,-9.1604,0.0,-9.061,-9.1242,0.0,0.0,-9.2245,-9.1762,-9.1725,-9.0276,-8.9756,-9.0499,-9.0536,-9.0843,-9.1461,-9.1259,-9.1528,-9.2091,-9.1948,-9.2244,-9.3125,-9.4703,-9.5474,-9.5547,-9.6318,-9.7242,-9.813,-9.8167,-9.876,-9.9649,-9.9649,-10.0092,-10.0867,-10.0867,-10.1311,-10.2049,-10.2123,-10.3194,-10.4598,-8.2254,-8.231,-8.2281,-8.2281,0.0,-8.2487,-8.3086,-8.3631,0.0,0.0,0.0,0.0,0.0,-9.666,-9.7167,-9.8065,-9.7051,-9.617,-9.5664,-9.3601,-9.2802,-9.37,-9.1626,-9.0891,-9.1778,-9.0107,-8.898,-8.8429,-8.6935,-8.6709,-8.7601,-8.5998,-8.644,-8.8666,0.0,-9.0479,0.0,0.0,0.0,0.0,0.0,-10.2405,-10.6018,-10.3132,-10.3315,-10.5103,-10.479,-10.6016,-10.7626,-10.7005,-10.6882,-10.7265,-10.8069,-10.7188,-10.5992,-10.6882,-10.6499,-10.5801,-10.5409,-10.67,-10.7225,-10.2789,-10.2194,-10.1598,-9.7262,-9.7627,-9.8475,-9.7158,-9.8215,-9.8743,-9.6734,-9.5945,-9.5477,-9.4833,-9.4887,-9.449,0.0,-9.0681,-8.8785,-8.8495,-8.9485,0.0,0.0,0.0,-9.0775,-9.0527,-8.9759,-8.9198,-8.8938,-8.9421,-8.9962,-9.0446,-9.0415,-9.1163,-9.2721,-9.2794,-9.3565,-9.4927,-9.5553,-9.6179,-9.6695,-9.6953,-9.758,-9.8429,-9.9313,-10.0269,-10.1188,-10.1502,-10.1987,-10.2595,-10.1895,-10.1978,-10.2501,-10.2277,-10.3017,-10.4202,-8.3582,-8.3152,-8.2645,-8.2332,-8.2567,-8.2969,0.0,0.0,0.0,0.0,-9.2241,0.0,-9.7812,0.0,-9.9133,0.0,-9.9765,-9.9327,-9.7921,-9.7173,-9.7082,-9.7737,-9.5966,-9.5245,-9.5862,-9.4485,-9.3092,-9.1583,-9.0411,-9.0011,-9.0265,-8.8348,-8.8671,-9.0825,0.0,-9.2249,-9.4788,0.0,-9.8709,0.0,0.0,-10.4982,-10.7683,-10.6218,-10.621,-10.7,-10.6688,-10.7532,-10.86,-10.8592,-10.8707,-10.8784,-10.9896,-10.8899,-10.7595,-10.8707,-10.8477,-10.7787,-10.7695,-10.8921,-10.9284,-10.598,-10.5216,-10.4223,-10.0403,-10.0976,-10.19,-10.0283,-10.1308,-10.1995,-10.0595,-9.899,-9.7684,-9.7026,-9.6102,-9.463,0.0,-9.0018,-8.8329,-8.7319,-8.8785,0.0,0.0,-9.0595,-9.0707,-9.0193,-8.9344,-8.8436,-8.7474,-8.8479,-8.9262,-8.9662,-9.0483,-9.1675,-9.3271,-9.4148,-9.5103,-9.6066,-9.6681,-9.7228,-9.7711,-9.778,-9.8407,-9.9518,-10.0113,-10.1097,-10.238,-10.2637,-10.281,-10.3035,-10.2714,-10.2696,-10.2934,-10.2611,-10.3168,-10.443,-8.5924,-8.4831,-8.3504,-8.2645,-8.3068,0.0,0.0,0.0,-8.9371,0.0,-9.3849,-9.6439,-9.9047,-9.9307,-9.9664,-10.0508,-10.1299,-10.1406,-10.0703,-10.0398,-10.0395,-10.0615,-10.0409,-9.9654,-9.8057,-9.928,-9.7908,-9.3724,-9.4044,-9.3778,-9.2883,-9.0975,-9.1018,-9.2633,-9.2633,0.0,-9.648,-9.9095,-10.1674,-10.4405,-10.7122,-10.8305,-10.8504,-10.9093,-10.9186,-10.9101,-10.97,-10.9502,-10.9118,-11.0594,-11.1085,-11.1085,-11.1085,-11.0633,-10.9904,-10.9904,-11.0518,-11.0825,-10.9329,-11.0134,-11.0577,-10.7886,-10.7284,-10.6605,-10.3907,-10.5293,-10.6706,-10.5414,-10.5587,-10.621,-10.6669,-10.3094,-9.9995,-9.9405,-9.7139,-9.4081,-9.0004,-8.9692,-8.9135,-8.7248,-8.9098,-9.0976,0.0,-9.1996,-9.1423,-9.0404,-8.9008,0.0,0.0,-8.7792,-8.8832,-8.9044,-9.1454,-9.3054,-9.3698,-9.5706,-9.666,-9.6697,-9.7937,-9.8504,-9.8567,-9.8655,-9.9704,-10.1294,-10.0639,-10.1302,-10.3007,-10.3007,-10.2699,-10.2399,-10.3185,-10.356,-10.3455,-10.2975,-10.3799,-10.5322,-8.6041,-8.6298,-8.6147,-8.5267,-8.3738,-8.3269,0.0,0.0,0.0,0.0,-9.7368,-10.0193,-10.3397,-10.3789,-10.3785,-10.4092,-10.4197,-10.4487,-10.4927,-10.4678,-10.4989,-10.5706,-10.5573,-10.5106,-10.4194,-10.2894,-10.1891,-10.121,-9.7509,-9.641,-9.7567,-9.4266,-9.3323,-9.4433,0.0,0.0,-9.6656,-9.9856,-10.3511,-10.7199,-10.7997,-10.949,-11.1097,-11.0678,-11.0801,-11.1173,-10.9724,-10.9902,-11.0709,-11.0474,-11.0897,-11.1396,-11.1396,-11.1204,-11.1089,-11.1089,-11.1588,-11.2319,-11.2421,-11.3297,-11.3711,-11.2079,-11.0815,-10.9399,-10.7514,-10.8509,-10.9465,-10.7973,-10.9294,-10.9792,-10.6805,-10.4712,-10.2685,-9.9975,-9.7277,-9.4562,-9.1591,-9.0721,-9.0288,-9.0115,-9.038,-9.0304,-8.9692,-9.0925,-9.0774,-8.8388,-8.8671,-8.8315,-8.6689,-8.8248,-8.942,-8.9967,-9.2367,-9.4257,-9.5532,-9.6768,-9.7717,-9.8392,-9.8825,-9.902,-9.902,-9.9079,-9.9682,-10.0684,-10.088,-10.1881,-10.3529,-10.3416,-10.3466,-10.3728,-10.3828,-10.4279,-10.4907,-10.4384,-10.4608,-10.5322,-8.772,-8.8206,-8.8485,-8.839,-8.7498,0.0,-8.8702,0.0,0.0,-9.6432,-9.957,0.0,-10.4085,-10.56,-10.6513,-10.6393,-10.6677,-10.6981,-10.6975,-10.7987,-10.859,-10.8918,-10.9383,-10.921,-10.8205,-10.6788,-10.5294,-10.3705,-10.0412,-9.8779,-9.8571,0.0,0.0,0.0,0.0,-9.6034,0.0,-10.1484,-10.4915,-10.748,-10.9111,-11.0379,0.0,-11.1482,-11.1893,-11.2088,-11.0794,-11.069,-11.1074,-11.0881,-11.1186,-11.1522,-11.1522,-11.1522,-11.1598,-11.1906,-11.2599,-11.3401,-11.4195,-11.5002,-11.5502,-11.4793,-11.3999,-11.2896,-11.1114,-11.1421,-11.189,-11.097,-11.1276,-11.1276,-10.9589,-10.679,-10.3372,-9.9146,-9.6872,-9.472,-9.216,-9.1395,-9.1081,-9.0981,-9.1381,-9.1119,-8.9686,-9.0257,-8.9868,-8.7889,-8.8357,-8.798,-8.6123,-8.862,-9.0032,-8.9883,-9.335,-9.5649,-9.6476,-9.8253,-9.9235,-9.9291,-9.9573,-9.9736,-9.9736,-9.979,-10.0283,-10.108,-10.1382,-10.2284,-10.3502,-10.3831,-10.3905,-10.3983,-10.4719,-10.5393,-10.6101,-10.6302,-10.6406,-10.6277,-9.0023,-9.0452,-9.0843,-9.1396,-9.2546,0.0,0.0,-9.4676,0.0,-9.8404,0.0,-10.4116,-10.4108,-10.6801,-10.8607,-10.84,-10.9199,-10.9316,-10.8602,-11.0595,-11.1588,-11.109,-11.2206,-11.23,-11.0979,-11.0478,-10.831,-10.4293,-10.2902,-10.0819,-9.8074,0.0,0.0,0.0,0.0,0.0,0.0,-10.3104,-10.5925,-10.68,-11.0089,-11.1003,-11.0712,-11.2206,-11.2697,-11.2608,-11.2602,-11.1925,-11.0994,-11.1689,-11.1925,-11.1791,-11.1791,-11.1791,-11.2022,-11.2714,-11.3483,-11.433,-11.5002,-11.5778,-11.64,-11.6205,-11.63,-11.597,-11.4325,-11.4026,-11.4111,-11.4018,-11.2781,-11.2167,-11.328,-10.8791,-10.3301,-9.8342,-9.6719,-9.5375,-9.3115,-9.2618,-9.2236,-9.1663,-9.2771,0.0,-9.1132,-9.0326,-8.9447,-8.8186,-8.8186,-8.7413,-8.5513,-8.8935,-9.0532,-8.9667,-9.4319,-9.6928,-9.7138,-9.9683,-10.0587,-9.998,-10.0304,-10.0375,-10.0375,-10.071,-10.1215,-10.1903,-10.2018,-10.2591,-10.3584,-10.4109,-10.4201,-10.4188,-10.5783,-10.6714,-10.7177,-10.8309,-10.8492,-10.7973,-9.1194,-9.2756,-9.381,-9.2606,0.0,-9.886,-10.171,-10.171,-10.2007,-10.3788,-10.7686,-11.0313,-11.0206,-11.1416,-11.2188,-11.2208,-11.2202,-11.2398,-11.2888,-11.32,-11.3716,-11.441,-11.4595,-11.4623,-11.4614,-11.2191,-11.0401,-10.9195,-10.5007,-10.2007,-10.0327,0.0,0.0,0.0,0.0,0.0,-10.0423,-10.3005,0.0,-10.8609,-11.0014,-11.13,-11.2481,-11.3476,-11.3886,-11.3905,-11.4393,-11.3824,-11.2693,-11.2809,-11.3197,-11.3599,-11.3599,-11.3599,-11.3599,-11.3714,-11.4407,-11.5099,-11.5215,-11.5907,-11.6477,-11.63,-11.63,-11.6185,-11.5869,-11.5839,-11.5878,-11.597,-11.5824,-11.5016,-11.3209,-10.9085,-10.4697,-10.0885,-9.9491,-9.8714,-9.812,-9.6859,-9.6254,-9.6877,-9.6522,-9.538,-9.3136,-9.32,-9.193,-8.8377,-8.8721,-8.8641,-8.7607,-8.8867,-9.016,-9.1337,-9.496,-9.7553,-9.8926,-10.0118,-10.0996,-10.1492,-10.0939,-10.0595,-10.0595,-10.133,-10.1788,-10.1903,-10.2705,-10.3813,-10.5178,-10.4226,-10.4584,-10.5897,-10.6884,-10.7963,-10.8918,-10.9094,-10.9481,-10.9885,0.0,0.0,0.0,0.0,0.0,0.0,0.0,-10.8294,0.0,-10.7601,-10.9611,-11.1198,-11.1221,-11.3095,-11.4404,-11.4282,-11.4296,-11.441,-11.4798,-11.519,-11.5618,-11.6083,-11.6417,-11.6398,-11.618,-11.439,-11.2289,-11.0193,-10.6603,-10.3399,-10.0796,-9.8957,0.0,0.0,0.0,-9.8974,0.0,0.0,-10.6085,-10.7893,-11.0706,-11.2188,-11.3109,-11.4386,-11.478,-11.4781,-11.5107,-11.491,-11.4499,-11.4005,-11.393,-11.3984,-11.3984,-11.3984,-11.4099,-11.4484,-11.4984,-11.5407,-11.5701,-11.6208,-11.6477,-11.6309,-11.6386,-11.6393,-11.6393,-11.6393,-11.6393,-11.6522,-11.6484,-11.5715,-11.3214,-10.9513,-10.6199,-10.4006,-10.2107,-10.0901,-10.0773,-9.9656,-9.8854,-9.8987,-9.8178,-9.6691,-9.4328,-9.4362,-9.2557,-8.7925,-8.8729,-8.8882,-8.754,-8.9108,-9.06,-9.1862,-9.5146,-9.7516,-9.8822,-10.0497,-10.1521,-10.1903,-10.1521,-10.1521,-10.1979,-10.24,-10.2591,-10.2591,-10.389,-10.4692,-10.5036,-10.5295,-10.6297,-10.7897,-10.8278,-10.9123,-11.0118,-11.0028,-11.0205,-11.0481,0.0,-9.8833,0.0,0.0,-10.4912,0.0,-11.0583,-11.3498,-11.4209,-11.1101,-11.1385,-11.1993,-11.1993,-11.45,-11.6199,-11.5999,-11.6089,-11.6077,-11.5994,-11.6687,-11.7183,-11.7183,-11.7709,-11.7787,-11.7508,-11.6477,-11.4419,-11.0995,-10.8579,-10.5395,-10.1388,-9.9949,0.0,0.0,0.0,0.0,-10.21,-10.5102,-10.6884,-10.7989,-11.1812,-11.3425,-11.3711,-11.5393,-11.6006,-11.5891,-11.6002,-11.6169,-11.6373,-11.5281,-11.4817,-11.4609,-11.4609,-11.4609,-11.4802,-11.5605,-11.5913,-11.5984,-11.6462,-11.6701,-11.6715,-11.6386,-11.6393,-11.6484,-11.6484,-11.6484,-11.6484,-11.6484,-11.6484,-11.5715,-11.3214,-11.0781,-10.8509,-10.6468,-10.4725,-10.3404,-10.2976,-10.2081,-10.1201,-10.0607,-9.9529,-9.7733,-9.4751,-9.4291,-9.2296,-8.7768,-8.8614,-8.8807,-8.7543,-8.9228,-9.0683,-9.1717,-9.496,-9.7216,-9.8298,-10.0688,-10.2018,-10.2209,-10.2209,-10.2514,-10.3202,-10.3393,-10.3508,-10.3508,-10.5189,-10.5686,-10.5303,-10.6985,-10.8398,-10.9392,-10.9621,-11.0118,-11.0691,-11.0691,-11.0691,-11.0716,0.0,0.0,0.0,0.0,0.0,0.0,-11.2717,-11.5802,-11.7294,-11.539,-11.591,-11.6413,-11.6413,-11.7389,-11.8014,-11.8004,-11.8004,-11.8004,-11.7887,-11.7989,-11.8119,-11.8002,-11.8119,-11.8509,-11.921,-11.8414,-11.6707,-11.4013,-11.2101,-10.8519,-10.362,-10.2495,-10.1193,0.0,-9.9795,-10.1295,-10.3992,-10.5787,-10.8401,-11.1495,-11.3396,-11.4711,-11.5505,-11.7222,-11.7793,-11.7881,-11.829,-11.8488,-11.8287,-11.7018,-11.6593,-11.6476,-11.6476,-11.6476,-11.6707,-11.7468,-11.7699,-11.7694,-11.7677,-11.7715,-11.7484,-11.6715,-11.6484,-11.6484,-11.6484,-11.6484,-11.6484,-11.6484,-11.6484,-11.5715,-11.3214,-11.3714,-11.2709,-10.7082,-10.7313,-10.7615,-10.5908,-10.4911,-10.4068,-10.3392,-10.181,-9.8894,-9.4251,-9.3024,-9.1412,-8.8752,-8.8534,-8.8768,-8.9343,-8.8883,-8.9343,-9.0954,-9.4206,-9.6691,-9.8298,-10.0688,-10.2285,-10.3087,-10.3087,-10.3087,-10.3202,-10.4004,-10.431,-10.4386,-10.6106,-10.7214,-10.8016,-10.9697,-11.0003,-10.9506,-11.0309,-11.0614,-11.0691,-11.0691,-11.0691,-11.0806,0.0,0.0,0.0,0.0,0.0,0.0,0.0,-11.7413,-11.8201,-11.8097,-11.8788,-11.9283,-11.9301,-11.9184,-11.9295,-11.9795,-11.8904,-11.8507,-11.899,-11.9009,-11.9009,-11.8998,-11.9488,-11.9995,-12.0303,-11.9998,-11.8598,-11.6021,-11.3619,-11.0393,-10.6294,-10.3803,-10.232,-10.1718,-10.3318,-10.49,-10.6597,-10.932,-11.13,-11.2783,-11.5492,-11.6506,-11.6584,-11.821,-11.8885,-11.8817,-11.8988,-11.931,-11.9603,-11.9092,-11.8009,-11.6786,-11.6786,-11.6786,-11.6902,-11.7208,-11.7283,-11.7283,-11.7202,-11.7202,-11.7083,-11.6693,-11.6616,-11.6611,-11.6529,-11.6484,-11.6484,-11.6484,-11.6484,-11.6176,-11.5215,-11.4291,-11.3099,-11.1209,-11.0084,-10.931,-10.8536,-10.718,-10.5799,-10.4624,-10.1088,-9.7672,-9.4788,-9.229,-9.0905,-9.0979,-8.9947,-8.9184,-8.8919,-8.9111,-8.9764,-9.0915,-9.3596,-9.5849,-9.7619,-9.9969,-10.1788,-10.3202,-10.3202,-10.3699,-10.4692,-10.5495,-10.6412,-10.7405,-10.7596,-10.8398,-10.9697,-10.9889,-11.0003,-11.0194,-11.0576,-11.0691,-11.0691,-11.0691,-11.0997,-11.1493,-11.0089,0.0,-11.079,0.0,-11.45,-11.4706,-11.8092,-11.8814,-11.9194,-11.9878,-12.0908,-12.1403,-12.1013,-12.011,-11.9911,-12.0806,-11.9508,-11.9106,-11.9887,-12.0004,-12.001,-11.9981,-12.0596,-12.098,-12.1299,-12.1314,-12.0302,-11.8115,-11.5787,-11.2916,-10.9402,-10.6278,-10.4912,-10.5185,-10.7013,-10.8488,-10.9699,-11.2296,-11.3886,-11.4901,-11.7493,-11.8207,-11.7789,-11.9484,-12.0005,-11.9782,-11.9916,-12.0312,-12.072,-12.0383,-11.8976,-11.7398,-11.7403,-11.7405,-11.729,-11.729,-11.7212,-11.7212,-11.7211,-11.7211,-11.7133,-11.682,-11.6701,-11.6697,-11.6611,-11.6529,-11.6484,-11.6606,-11.6611,-11.6573,-11.6567,-11.5105,-11.3719,-11.3291,-11.2088,-11.0699,-10.9508,-10.8191,-10.6693,-10.482,-10.0286,-9.6636,-9.4788,-9.1979,-9.0902,-9.2402,-9.1364,-9.0367,-8.9681,-9.0027,-9.0565,-9.141,-9.3983,-9.6048,-9.7587,-10.0084,-10.1979,-10.3202,-10.389,-10.4883,-10.6106,-10.6908,-10.8093,-10.9392,-10.8819,-10.9392,-11.0691,-11.0003,-11.0118,-11.0691,-11.0691,-11.0691,-11.0691,-11.0691,-11.1302,-11.199,-11.3311,-11.3904,-11.5082,-11.8606,-11.8489,-11.83,-11.9293,-12.0083,-12.0601,-12.0815,-12.2308,-12.2716,-12.1109,-12.0114,-12.0,-12.0781,-12.0088,-11.9998,-12.0781,-12.0898,-12.0896,-12.088,-12.0896,-12.1282,-12.22,-12.2219,-12.1718,-12.0898,-11.9094,-11.6505,-11.299,-11.0413,-10.971,-11.0491,-11.0495,-11.1494,-11.3095,-11.3993,-11.5906,-11.8287,-11.9107,-11.9497,-11.9692,-12.141,-12.1488,-12.0893,-12.1498,-12.1803,-12.1592,-12.0582,-11.9699,-11.8897,-11.8693,-11.8685,-11.8586,-11.8408,-11.8295,-11.8295,-11.81,-11.8098,-11.7905,-11.7018,-11.6704,-11.6697,-11.6697,-11.6611,-11.649,-11.6736,-11.6781,-11.6784,-11.6701,-11.6697,-11.5499,-11.2099,-11.2906,-11.2483,-10.829,-10.7713,-10.679,-10.4212,-10.0096,-9.6519,-9.3941,-9.2172,-9.1556,-9.2441,-9.2479,-9.2441,-9.2441,-9.1672,-9.1595,-9.2441,-9.552,-9.7626,-9.8508,-10.1622,-10.3202,-10.3202,-10.5686,-10.6908,-10.6908,-10.7787,-10.8589,-10.9392,-10.9392,-10.9889,-11.0691,-11.0691,-11.0691,-11.0691,-11.0691,-11.0691,-11.0691,-11.0691,-11.1302,-11.2105,-11.5119,-11.5823,-11.6596,-11.7789,-11.7878,-11.8103,-11.9008,-11.9416,-11.9803,-12.0484,-12.1214,-12.1407,-12.092,-12.0583,-12.0802,0.0,-11.9919,-11.9283,-12.0785,-12.0894,-12.121,-12.1795,-12.1796,-12.2186,-12.3117,-12.2499,-12.2109,-12.1797,-11.9999,-11.7108,-11.32,-11.2889,-11.3006,-11.3202,-11.4409,-11.5602,-11.6686,-11.6882,-11.7506,-11.8404,-11.9185,-11.9185,-11.8912,-12.059,-12.0981,-12.0903,-12.1692,-12.2383,-12.2812,-12.2515,-12.2189,-12.181,-12.039,-11.9005,-11.7802,-11.7709,-11.7622,-11.7482,-11.7521,-11.7483,-11.7406,-11.6982,-11.6904,-11.6903,-11.6784,-11.6704,-11.6704,-11.6823,-11.6283,-11.609,-11.6624,-11.5696,-11.4498,-11.3368,-11.3214,-11.2022,-10.8983,-10.7521,-10.5597,-10.252,-9.8904,-9.5903,-9.3903,-9.271,-9.2476,-9.3393,-9.2861,-9.2479,-9.2479,-9.3326,-9.3403,-9.2518,-9.6751,-9.9168,-9.9475,-10.198,-10.3917,-10.4989,-10.5696,-10.6985,-10.8589,-10.8895,-10.9506,-11.0309,-11.0309,-11.0385,-11.0691,-11.0691,-11.078,-11.0793,-11.0704,-11.078,-11.0869,-11.143,-11.2105,-11.2907,-11.6395,-11.6921,-11.7477,-11.7831,-11.7705,-11.7893,-11.882,-11.9014,-11.9193,-11.9923,-12.0288,-12.0626,-12.0693,-12.0521,-12.0716,-12.1509,-11.9917,-11.9414,-12.0791,-12.0894,-12.1093,-12.1718,-12.1718,-12.2109,-12.3008,-12.25,-12.2383,-12.2695,-12.0898,-11.8711,-11.6093,-11.6289,-11.6406,-11.6406,-11.75,-11.8081,-11.8292,-11.8592,-11.8811,-11.8912,-11.9692,-11.9692,-11.938,-12.0785,-12.1293,-12.141,-12.2308,-12.2894,-12.3401,-12.3401,-12.3011,-12.2181,-12.0993,-11.9318,-11.7581,-11.7504,-11.7511,-11.7392,-11.7392,-11.7368,-11.7302,-11.7192,-11.7204,-11.7096,-11.6904,-11.6904,-11.6905,-11.6904,-11.6287,-11.5785,-11.6207,-11.5085,-11.4003,-11.3685,-11.3104,-11.1714,-10.8906,-10.6982,-10.4713,-10.1289,-9.8404,-9.6211,-9.4826,-9.4788,-9.5132,-9.5668,-9.5516,-9.5211,-9.4864,-9.4941,-9.4941,-9.4864,-9.8442,-10.0783,-10.1782,-10.3525,-10.4997,-10.6413,-10.6881,-10.8093,-10.9889,-10.9889,-11.0194,-11.0691,-11.0691,-11.0704,-11.0831,-11.0831,-11.0881,-11.0979,-11.093,-11.0881,-11.1007,-11.1787,-11.2386,-11.2792,-11.721,-11.7297,-11.7608,0.0,-11.7879,0.0,-11.8796,-11.8825,-11.881,-11.9014,-11.9704,-12.0293,-12.0383,-11.969,-11.9576,-12.0503,-11.9881,-11.9911,-12.0781,-12.0781,-12.0781,-12.0898,-12.0781,-12.1211,-12.2187,-12.2109,-12.2617,-12.3515,-12.1797,-12.1015,-12.1015,-12.0117,-11.9687,-11.9687,-11.9609,-11.9101,-11.8398,-11.929,-11.962,-11.9701,-12.0482,-12.0912,-12.0912,-12.18,-12.2113,-12.2191,-12.3089,-12.3401,-12.3401,-12.3284,-12.2191,-12.0903,-12.0707,-11.9484,-11.8083,-11.7779,-11.7675,-11.7714,-11.7714,-11.7698,-11.7594,-11.7594,-11.7491,-11.7308,-11.7096,-11.7094,-11.7094,-11.702,-11.64,-11.5779,-11.5668,-11.482,-11.3891,-11.2999,-11.2684,-11.1291,-10.8098,-10.6097,-10.3713,-10.0289,-9.8596,-9.7326,-9.648,-9.7942,-9.8942,-9.8904,-9.9635,-9.9712,-9.8827,-9.6634,-9.648,-9.8827,-10.0595,-10.2665,-10.5127,-10.5786,-10.649,-10.7294,-10.8792,-10.9889,-11.0691,-11.0691,-11.0691,-11.0691,-11.0691,-11.0831,-11.0892,-11.0892,-11.1028,-11.1085,-11.1085,-11.1037,-11.0969,-11.1887,-11.2105,-11.2118,0.0,0.0,-11.7313,-11.7506,-11.739,-11.7467,-11.842,-11.8614,-11.8679,-11.8782,-11.8981,-11.8991,-11.8482,-11.8306,-11.8305,-11.8606,-11.8609,-11.9014,-11.9881,-11.9903,-12.019,-12.0898,-12.0312,-12.0586,-12.2187,-12.1484,-12.1992,-12.3515,-12.2383,-12.1914,-12.1914,-12.1015,-12.0586,-12.0586,-11.9883,-11.9492,-11.9297,-11.9492,-11.9607,-11.9683,-12.0489,-12.0908,-12.0987,-12.1818,-12.2113,-12.2191,-12.3089,-12.3401,-12.3284,-12.2581,-12.2113,-12.1605,-12.02,-11.9488,-11.8988,-11.8216,-11.7819,-11.7714,-11.7714,-11.7691,-11.7707,-11.7707,-11.7608,-11.7482,-11.7314,-11.7297,-11.7201,-11.7207,-11.6008,-11.5083,-11.5591,-11.3892,-11.2619,-11.2924,-11.1305,-10.9301,-10.7103,-10.4793,-10.2094,-9.8669,-9.9016,-9.894,-9.7365,-9.9327,-10.0519,-9.9902,-9.9981,-9.975,-9.8939,-9.948,-9.9788,-9.9788,-10.3288,-10.548,-10.6095,-10.739,-10.8401,-10.9016,-10.9901,-11.05,-11.0691,-11.0691,-11.0691,-11.0691,-11.0793,-11.0881,-11.0892,-11.0989,-11.1132,-11.1224,-11.1093,-11.1093,-11.1293,-11.2005,-11.234,-11.2292,-11.6904,-11.6982,-11.702,-11.7096,-11.7096,-11.7326,-11.7787,-11.7901,-11.8009,-11.7994,-11.809,-11.7977,-11.7698,-11.7707,-11.7792,-11.7916,-11.8091,-11.8414,-11.8912,-11.9014,-11.919,-11.9712,-11.929,-11.9802,-12.1601,-12.0781,-12.1015,-12.2304,-12.2187,-12.2187,-12.2187,-12.2109,-12.1718,-12.0898,-12.039,-11.9804,-11.8984,-11.9414,-11.9414,-11.9101,-11.9997,-12.0308,-12.0383,-12.1192,-12.1611,-12.1716,-12.2497,-12.2599,-12.2191,-12.2113,-12.18,-12.1293,-12.0395,-11.981,-11.9293,-11.8391,-11.8286,-11.8512,-11.8512,-11.8478,-11.8403,-11.7877,-11.7797,-11.7691,-11.762,-11.75,-11.7392,-11.7297,-11.5919,-11.4732,-11.5085,-11.3387,-11.1807,-11.1385,-10.9803,-10.7682,-10.5215,-10.3401,-10.1395,-9.9129,-10.0015,-10.0518,-9.9865,-10.1789,-10.2713,-10.1905,-10.229,-10.229,-10.1789,-10.2983,-10.3098,-10.1904,-10.4789,-10.7021,-10.8098,-10.9195,-10.9896,-11.0203,-11.0563,-11.0793,-11.0793,-11.0881,-11.093,-11.0892,-11.0979,-11.0989,-11.1123,-11.117,-11.1262,-11.1396,-11.1307,-11.1307,-11.1423,-11.2099,-11.2091,-11.189,-11.6784,-11.6825,-11.6826,-11.6905,-11.6982,-11.6982,-11.7096,-11.7094,-11.7094,-11.7094,-11.7204,-11.7302,-11.7306,-11.7482,-11.7594,-11.7605,-11.7897,-11.7988,-11.8101,-11.819,-11.8317,-11.8287,-11.8279,-11.9087,-12.0702,-12.0116,-12.0195,-12.1093,-12.1797,-12.2304,-12.2383,-12.289,-12.2304,-12.0898,-12.0586,-11.9687,-11.8398,-11.9218,-11.9218,-11.8593,-11.9414,-11.9804,-11.9883,-12.0586,-12.0896,-12.1001,-12.1704,-12.1494,-12.0998,-12.1692,-12.141,-12.0785,-12.059,-12.0083,-11.9419,-11.8716,-11.9107,-11.9614,-11.9419,-11.9311,-11.8977,-11.8216,-11.7989,-11.8011,-11.7917,-11.7691,-11.7621,-11.7394,-11.5895,-11.4573,-11.4577,-11.2998,-11.1187,-10.9719,-10.8295,-10.6328,-10.3205,-10.1894,-10.0929,-10.009,-10.0978,-10.202,-10.2904,-10.4405,-10.5097,-10.4714,-10.5293,-10.5601,-10.5522,-10.641,-10.6178,-10.4713,-10.6213,-10.8098,-11.0406,-11.0878,-11.1076,-11.0979,-11.0903,-11.0892,-11.0941,-11.0999,-11.1085,-11.1085,-11.1085,-11.1216,-11.1307,-11.1314,-11.1396,-11.1522,-11.1522,-11.1401,-11.1429,-11.2075,-11.1799,-11.14,-11.6701,-11.6823,-11.6786,-11.6826,-11.6826,-11.6826,-11.6903,-11.6903,-11.6903,-11.6903,-11.702,-11.7096,-11.7088,-11.7308,-11.7406,-11.7384,-11.7594,-11.7691,-11.7819,-11.8005,-11.8093,-11.8092,-11.8218,-11.8811,-11.9795,-12.0406,-12.1086,-12.1992,-12.2109,-12.2617,-12.3281,-12.1914,-12.1211,-12.0781,-11.9414,-11.8593,-11.8398,-11.9218,-11.9492,-11.9492,-12.0312,-12.0703,-12.0703,-12.0781,-12.0898,-12.0898,-12.1015,-12.1014,-12.0896,-12.0987,-12.0881,-12.0707,-11.9888,-11.9614,-11.9497,-11.9419,-11.9888,-12.0317,-11.8912,-11.8521,-11.8395,-11.8307,-11.8184,-11.8091,-11.8005,-11.7878,-11.7691,-11.75,-11.5978,-11.4802,-11.4573,-11.2604,-11.0636,-10.9603,-10.6894,-10.4222,-10.219,-10.0607,-9.9492,-9.9309,-10.1208,-10.3098,-10.4597,-10.5597,-10.6792,-10.8182,-10.7718,-10.7292,-10.7373,-10.8103,-10.8367,-10.8098,-10.9098,-11.0214,-11.1291,-11.1314,-11.13,-11.1224,-11.1085,-11.1076,-11.1076,-11.1123,-11.1085,-11.1085,-11.1178,-11.1307,-11.1269,-11.1396,-11.1522,-11.1522,-11.1522,-11.1522,-11.1478,-11.1594,-11.1594,-11.1632,-11.6611,-11.6616,-11.6697,-11.6704,-11.6704,-11.6781,-11.6825,-11.6786,-11.6786,-11.6786,-11.6903,-11.6905,-11.6981,-11.7094,-11.7204,-11.7274,-11.7297,-11.7392,-11.7489,-11.7797,-11.7888,-11.8015,-11.8118,-11.8609,-11.9614,-12.0498,-12.1098,-12.15,-12.1989,-12.2383,-12.2812,-12.1992,-12.1289,-12.0781,-11.9609,-11.8711,-11.8281,-11.8711,-11.8906,-11.8906,-11.9297,-11.9492,-11.9609,-12.0,-11.9883,-11.9609,-12.0,-11.9883,-11.9609,-11.9986,-12.0186,-12.0122,-11.9692,-11.9888,-12.0083,-11.9692,-11.981,-12.0005,-11.9692,-11.899,-11.8287,-11.8287,-11.8307,-11.8207,-11.8196,-11.7998,-11.7702,-11.7096,-11.5898,-11.4697,-11.4189,-11.2705,-11.11,-10.9673,-10.6614,-10.3984,-10.2676,-10.1014,-10.0325,-10.1083,-10.3398,-10.5329,-10.641,-10.7412,-10.8299,-10.9109,-10.8801,-10.8762,-10.9186,-10.961,-10.9917,-11.0297,-11.0718,-11.1098,-11.1522,-11.139,-11.1307,-11.1307,-11.1224,-11.1178,-11.1178,-11.1307,-11.1307,-11.1269,-11.1435,-11.1396,-11.1396,-11.1478,-11.1522,-11.1522,-11.1522,-11.1522,-11.1522,-11.1522,-11.1791,-11.2291,-11.5907,-11.6099,-11.6298,-11.6423,-11.65,-11.6697,-11.6704,-11.6704,-11.6704,-11.6704,-11.6823,-11.6825,-11.6904,-11.6982,-11.702,-11.7094,-11.7207,-11.7204,-11.7313,-11.7489,-11.7775,-11.7915,-11.7998,-11.8496,-11.9205,-11.9878,-12.0395,-12.059,-12.1309,-12.1717,-12.1914,-12.1718,-12.1211,-12.0586,-11.9687,-11.8906,-11.8281,-11.8281,-11.8281,-11.8281,-11.8281,-11.8281,-11.8398,-11.8984,-11.8906,-11.8398,-11.9101,-11.8906,-11.8398,-11.929,-11.9614,-11.9614,-11.9584,-11.9983,-12.0412,-11.9497,-11.9302,-11.9419,-12.0005,-11.9302,-11.8287,-11.8287,-11.8092,-11.8014,-11.8014,-11.7689,-11.7311,-11.6501,-11.55,-11.4512,-11.38,-11.2729,-11.1298,-10.9624,-10.6795,-10.4509,-10.3502,-10.232,-10.1997,-10.3416,-10.5701,-10.7484,-10.8377,-10.9108,-10.9609,-10.9802,-10.9878,-11.0223,-11.0805,-11.0767,-11.1115,-11.1614,-11.1606,-11.1526,-11.1526,-11.1401,-11.1435,-11.1314,-11.1314,-11.1314,-11.1314,-11.1517,-11.1522,-11.1522,-11.1522,-11.1522,-11.1522,-11.1522,-11.1522,-11.1522,-11.1522,-11.1522,-11.1522,-11.1522,-11.2022,-11.2791,-11.4214,-11.4791,-11.5407,-11.5368,-11.5984,-11.6529,-11.6529,-11.6529,-11.6529,-11.6529,-11.6616,-11.6697,-11.6701,-11.6903,-11.6982,-11.6982,-11.7096,-11.7207,-11.7207,-11.7308,-11.753,-11.7722,-11.8011,-11.808,-11.821,-11.8424,-11.8912,-11.9692,-11.9818,-12.0205,-12.1015,-12.0195,-11.9804,-11.9687,-11.8789,-11.8398,-11.8281,-11.8281,-11.8281,-11.8281,-11.8281,-11.8281,-11.8281,-11.8398,-11.8398,-11.8281,-11.8398,-11.8398,-11.8398,-11.9297,-11.9595,-11.9584,-11.962,-11.9586,-11.9503,-11.8686,-11.8404,-11.8404,-11.8482,-11.8404,-11.8287,-11.8287,-11.7701,-11.7116,-11.7116,-11.6491,-11.5799,-11.5502,-11.4809,-11.4096,-11.3901,-11.2517,-11.0783,-10.9093,-10.7303,-10.5514,-10.3919,-10.3987,-10.4594,-10.5618,-10.7098,-10.8598,-11.0221,-11.0491,-11.08,-11.1612,-11.1692,-11.1693,-11.1805,-11.1693,-11.1693,-11.1809,-11.1691,-11.1612,-11.1612,-11.1571,-11.1491,-11.1522,-11.1522,-11.1522,-11.1522,-11.1522,-11.1522,-11.1522,-11.1522,-11.1522,-11.1522,-11.1522,-11.1522,-11.1522,-11.1522,-11.1522,-11.1522,-11.1522,-11.2022,-11.2791,-11.3984,-11.4714,-11.5291,-11.5291,-11.5984,-11.6484,-11.6484,-11.6484,-11.6484,-11.6484,-11.649,-11.6573,-11.6697,-11.682,-11.6902,-11.702,-11.702,-11.7096,-11.7207,-11.7204,-11.7406,-11.7698,-11.78,-11.82,-11.8899,-11.9003,-11.9389,-12.0317,-12.0317,-12.049,-12.0908,-11.9997,-11.9609,-11.9609,-11.8711,-11.8281,-11.8281,-11.8281,-11.8008,-11.75,-11.75,-11.75,-11.75,-11.75,-11.7812,-11.8281,-11.8281,-11.8281,-11.8398,-11.8711,-11.8814,-11.8803,-11.8811,-11.9184,-11.9508,-11.9194,-11.899,-11.8912,-11.8404,-11.8287,-11.8287,-11.8287,-11.7584,-11.6999,-11.6999,-11.6296,-11.5506,-11.489,-11.4413,-11.3912,-11.3395,-11.2601,-11.1916,-11.1293,-10.929,-10.7811,-10.7617,-10.6872,-10.671,-10.7503,-10.91,-11.029,-11.0895,-11.139,-11.1794,-11.2104,-11.1985,-11.1996,-11.1993,-11.1921,-11.1923,-11.1923,-11.1808,-11.1809,-11.1692,-11.1692,-11.1691,-11.1568,-11.1612,-11.1609,-11.1522,-11.1529,-11.1487,-11.1522,-11.2022,-11.2214,-11.2214,-11.2214,-11.2295,-11.2299,-11.1799,-11.1571,-11.1691,-11.1691,-11.219,-11.2877,-11.3214,-11.3907,-11.4599,-11.4791,-11.5599,-11.6176,-11.6484,-11.6484,-11.6484,-11.6484,-11.6484,-11.649,-11.6616,-11.6697,-11.682,-11.6903,-11.6982,-11.702,-11.7132,-11.7171,-11.7302,-11.7594,-11.7707,-11.8092,-11.8902,-11.8988,-11.9315,-11.9985,-11.9995,-12.0005,-12.0083,-11.9517,-11.9217,-11.9218,-11.8593,-11.8281,-11.8281,-11.8008,-11.75,-11.6992,-11.6718,-11.6601,-11.6601,-11.6914,-11.7383,-11.789,-11.8203,-11.8281,-11.8281,-11.8281,-11.8313,-11.8286,-11.8286,-11.8716,-11.9184,-11.9116,-11.8912,-11.8599,-11.8014,-11.7701,-11.7506,-11.7819,-11.7194,-11.6491,-11.6218,-11.5515,-11.4695,-11.411,-11.3915,-11.3594,-11.3087,-11.2898,-11.2676,-11.2403,-11.0901,-10.981,-11.0083,-10.9386,-10.8882,-10.9096,-11.0712,-11.1626,-11.1311,-11.1997,-11.2427,-11.2281,-11.2212,-11.2124,-11.2101,-11.1993,-11.1996,-11.1996,-11.1687,-11.1496,-11.1499,-11.1692,-11.1809,-11.1691,-11.1809,-11.1692,-11.1568,-11.1573,-11.1612,-11.1568,-11.2184,-11.2376,-11.2376,-11.2376,-11.2536,-11.25,-11.1884,-11.1692,-11.1809,-11.1809,-11.231,-11.2886,-11.1522,-11.2099,-11.2983,-11.3791,-11.4714,-11.5599,-11.6407,-11.6484,-11.6484,-11.6484,-11.6484,-11.6484,-11.6484,-11.6573,-11.6697,-11.6697,-11.6903,-11.702,-11.702,-11.7096,-11.7201,-11.7399,-11.7594,-11.7683,-11.7792,-11.7989,-11.8119,-11.8119,-11.8179,-11.8287,-11.8287,-11.8286,-11.8313,-11.8281,-11.8281,-11.8281,-11.8203,-11.7383,-11.6992,-11.6914,-11.6015,-11.5703,-11.5781,-11.6718,-11.6992,-11.7109,-11.8008,-11.8281,-11.8281,-11.8281,-11.8281,-11.8281,-11.8281,-11.8306,-11.8287,-11.8287,-11.7701,-11.6999,-11.6999,-11.6413,-11.5906,-11.6804,-11.6296,-11.5515,-11.4617,-11.368,-11.3095,-11.3095,-11.3095,-11.3095,-11.3095,-11.3095,-11.2783,-11.2002,-11.1807,-11.1494,-11.0596,-11.111,-11.1291,-11.0512,-11.1814,-11.2387,-11.1491,-11.2192,-11.2616,-11.2309,-11.2281,-11.2204,-11.2101,-11.2101,-11.2101,-11.2101,-11.1289,-11.0786,-11.0786,-11.1493,-11.1923,-11.1809,-11.1809,-11.1809,-11.1809,-11.1809,-11.1809,-11.1809,-11.1809,-11.1809,-11.1809,-11.1809,-11.1809,-11.1809,-11.1809,-11.1809,-11.1809,-11.1809,-11.2311,-11.3005,-11.1522,-11.2099,-11.2983,-11.3791,-11.4214,-11.4907,-11.6292,-11.5984,-11.5907,-11.6407,-11.6484,-11.6484,-11.6484,-11.599,-11.5995,-11.662,-11.5702,-11.5089,-11.5205,-11.5897,-11.6276,-11.6411,-11.7081,-11.7594,-11.7792,-11.7896,-11.7993,-11.8119,-11.8106,-11.8207,-11.8287,-11.8286,-11.8313,-11.8281,-11.8281,-11.8008,-11.7383,-11.7109,-11.6289,-11.5195,-11.5,-11.5195,-11.5703,-11.6015,-11.6914,-11.789,-11.8203,-11.8281,-11.8281,-11.8281,-11.8281,-11.8281,-11.8281,-11.8319,-11.8196,-11.7594,-11.7218,-11.6882,-11.6296,-11.5906,-11.5789,-11.5984,-11.5398,-11.4695,-11.45,-11.368,-11.3095,-11.3095,-11.3095,-11.3095,-11.3095,-11.3095,-11.3017,-11.2783,-11.2704,-11.2392,-11.1494,-11.2101,-11.2091,-11.0608,-11.1406,-11.1707,-11.0888,-11.1486,-11.1914,-11.1821,-11.2089,-11.2292,-11.2204,-11.2202,-11.2101,-11.2101,-11.1289,-11.0786,-11.0786,-11.0984,-11.1068,-11.0996,-11.1725,-11.1921,-11.1809,-11.1808,-11.1808,-11.1809,-11.2388,-11.2619,-11.2619,-11.2619,-11.2697,-11.2695,-11.2116,-11.1921,-11.1996,-11.1996,-11.2075,-11.2193,-11.1522,-11.1906,-11.2522,-11.3291,-11.3483,-11.3907,-11.5291,-11.5099,-11.4984,-11.5407,-11.5484,-11.5599,-11.5984,-11.5599,-11.5528,-11.6072,-11.4964,-11.4277,-11.4509,-11.5121,-11.5579,-11.5991,-11.6212,-11.6685,-11.7608,-11.7707,-11.7818,-11.7915,-11.7998,-11.8118,-11.8209,-11.8286,-11.8118,-11.7812,-11.7812,-11.7304,-11.6484,-11.6093,-11.539,-11.4492,-11.4101,-11.4297,-11.4804,-11.5117,-11.6093,-11.7383,-11.7695,-11.8008,-11.8281,-11.8281,-11.8281,-11.8281,-11.8281,-11.8086,-11.7695,-11.7183,-11.651,-11.591,-11.5305,-11.4899,-11.4695,-11.4695,-11.45,-11.4305,-11.3993,-11.3485,-11.3095,-11.3095,-11.3095,-11.3017,-11.2587,-11.29,-11.29,-11.2197,-11.2392,-11.2314,-11.1416,-11.1689,-11.1611,-11.0206,-11.0792,-11.0987,-11.0089,-11.0704,-11.1279,-11.1588,-11.1799,-11.2103,-11.2414,-11.1699,-11.1381,-11.1807,-11.0605,-10.9984,-10.9984,-10.9984,-11.0174,-11.0717,-11.1293,-11.1683,-11.1884,-11.1996,-11.1996,-11.1884,-11.2386,-11.2579,-11.2579,-11.2579,-11.2693,-11.2691,-11.2225,-11.1993,-11.2101,-11.2101,-11.1989,-11.2031,-11.1522,-11.1522,-11.1791,-11.2599,-11.2599,-11.2906,-11.3907,-11.3907,-11.3907,-11.3984,-11.4099,-11.4407,-11.5099,-11.5176,-11.5176,-11.5176,-11.462,-11.4318,-11.4432,-11.439,-11.4921,-11.588,-11.51,-11.5404,-11.7174,-11.7492,-11.759,-11.7581,-11.7876,-11.7989,-11.8014,-11.8091,-11.7805,-11.6992,-11.6914,-11.6406,-11.539,-11.4687,-11.4297,-11.4218,-11.3398,-11.3203,-11.3398,-11.4218,-11.5,-11.5898,-11.6601,-11.7383,-11.8086,-11.8086,-11.8086,-11.8086,-11.8086,-11.75,-11.6914,-11.6797,-11.5585,-11.4411,-11.4314,-11.3704,-11.3095,-11.3095,-11.368,-11.411,-11.329,-11.3095,-11.3095,-11.3017,-11.3017,-11.2704,-11.1807,-11.2314,-11.2314,-11.0792,-11.1182,-11.1416,-11.0518,-11.0518,-11.0206,-10.9308,-10.9894,-11.0089,-10.9308,-11.0011,-11.0803,-11.1486,-11.151,-11.1704,-11.2404,-11.0904,-11.0377,-11.1216,-10.962,-10.8725,-10.8725,-10.8608,-10.9281,-11.0698,-11.0814,-11.1284,-11.2097,-11.2097,-11.2101,-11.2024,-11.2024,-11.1908,-11.1908,-11.1908,-11.1908,-11.2024,-11.2024,-11.2024,-11.2024,-11.2101,-11.2101,-11.2024,-11.1522,-11.1522,-11.1791,-11.2599,-11.2214,-11.2291,-11.3791,-11.3407,-11.3214,-11.3907,-11.4599,-11.4791,-11.4291,-11.4291,-11.4291,-11.4291,-11.419,-11.4006,-11.343,-11.339,-11.4196,-11.5927,-11.4486,-11.4486,-11.6194,-11.6491,-11.6584,-11.6687,-11.7503,-11.7599,-11.7116,-11.7193,-11.7102,-11.6992,-11.6289,-11.5117,-11.3711,-11.3593,-11.3086,-11.2383,-11.2304,-11.3008,-11.4218,-11.4414,-11.5,-11.5781,-11.6015,-11.6093,-11.6289,-11.6289,-11.6289,-11.6289,-11.6289,-11.6093,-11.5898,-11.5195,-11.4716,-11.4296,-11.3611,-11.3203,-11.3095,-11.3095,-11.3212,-11.329,-11.3095,-11.3095,-11.29,-11.2197,-11.208,-11.1807,-11.0909,-11.0909,-11.0909,-11.0596,-11.0714,-11.0518,-10.9699,-11.0089,-10.9894,-10.8488,-10.8996,-10.9191,-10.841,-10.962,-11.0588,-11.0686,-11.189,-11.2009,-11.0878,-11.0887,-11.0826,-11.0299,-10.9309,-10.8725,-10.8725,-10.8102,-10.8583,-11.0213,-11.0887,-11.1583,-11.2298,-11.2298,-11.1808,-11.1095,-11.1095,-11.0709,-11.009,-11.009,-11.0515,-11.1095,-11.1095,-11.1095,-11.1211,-11.1792,-11.1714,-11.1211,-11.1522,-11.1522,-11.1598,-11.2099,-11.1791,-11.1791,-11.2714,-11.2406,-11.2291,-11.2714,-11.3214,-11.3483,-11.3407,-11.3407,-11.3407,-11.3407,-11.3493,-11.331,-11.2504,-11.3313,-11.4083,-11.4616,-11.3877,-11.4027,-11.5312,-11.5127,-11.5172,-11.5675,-11.622,-11.6395,-11.6101,-11.6199,-11.6115,-11.5703,-11.5312,-11.4218,-11.2617,-11.2617,-11.2304,-11.1914,-11.1914,-11.2695,-11.3906,-11.3906,-11.4414,-11.5195,-11.5195,-11.539,-11.5703,-11.5703,-11.5703,-11.5703,-11.5703,-11.5508,-11.5,-11.4609,-11.4205,-11.3689,-11.3203,-11.3111,-11.3095,-11.3095,-11.3095,-11.3095,-11.3095,-11.2783,-11.2392,-11.1885,-11.1494,-11.0987,-11.0089,-11.0284,-11.0284,-10.9386,-10.9699,-10.9581,-10.8801,-10.8996,-10.8996,-10.8098,-10.841,-10.8488,-10.802,-10.9191,-10.9894,-10.9894,-11.0715,-11.1005,-11.0419,-11.0004,-10.9702,-10.9702,-10.8805,-10.8415,-10.8415,-10.7908,-10.84,-10.9598,-11.0302,-11.1126,-11.178,-11.178,-11.152,-11.1011,-11.0507,-11.0097,-10.9593,-10.9465,-10.9819,-11.0206,-11.0206,-11.0206,-11.0206,-11.0709,-11.0593,-11.0206,-11.1522,-11.1522,-11.1522,-11.1522,-11.1522,-11.1522,-11.1522,-11.1522,-11.1522,-11.1522,-11.1598,-11.1906,-11.2406,-11.2522,-11.2522,-11.2522,-11.2607,-11.25,-11.2002,-11.3391,-11.4005,-11.3494,-11.3378,-11.3687,-11.4383,-11.3601,-11.37,-11.4693,-11.4887,-11.5082,-11.5095,-11.5276,-11.4993,-11.4296,-11.4296,-11.3281,-11.1718,-11.1718,-11.1601,-11.1484,-11.1601,-11.2187,-11.3008,-11.3008,-11.3398,-11.4101,-11.4101,-11.4492,-11.5117,-11.4883,-11.4804,-11.4883,-11.5117,-11.4492,-11.3906,-11.4218,-11.3701,-11.2994,-11.3103,-11.3095,-11.3095,-11.29,-11.29,-11.29,-11.2713,-11.2205,-11.1689,-11.1385,-11.08,-11.0097,-10.9199,-10.9707,-10.9699,-10.8215,-10.8605,-10.8801,-10.8098,-10.802,-10.802,-10.802,-10.802,-10.802,-10.802,-10.8801,-10.9191,-10.9113,-10.9308,-10.9699,-11.0089,-10.8918,-10.8488,-10.9113,-10.841,-10.802,-10.802,-10.802,-10.8285,-10.8997,-10.9592,-11.0381,-11.1314,-11.1314,-11.1198,-11.1,-11.0005,-10.9514,-10.9409,-10.9206,-10.9189,-10.9311,-10.9311,-10.9277,-10.9316,-10.9316,-10.9316,-10.9316,-11.1478,-11.1522,-11.1522,-11.1522,-11.1522,-11.1522,-11.1522,-11.1522,-11.1522,-11.1522,-11.2099,-11.2291,-11.1714,-11.1714,-11.1714,-11.1714,-11.1675,-11.2033,-11.2812,-11.3082,-11.3622,-11.4422,-11.3687,-11.3378,-11.3494,-11.2681,-11.2711,-11.3706,-11.4591,-11.4693,-11.412,-11.4177,-11.4308,-11.4314,-11.3708,-11.2383,-11.0781,-11.0781,-11.0312,-10.9687,-11.0508,-11.1289,-11.2109,-11.2109,-11.2109,-11.2304,-11.2304,-11.2304,-11.2304,-11.1484,-11.1289,-11.1406,-11.2187,-11.1797,-11.1406,-11.289,-11.2812,-11.2183,-11.3001,-11.3095,-11.29,-11.2197,-11.208,-11.1893,-11.1106,-11.14,-11.1503,-10.9895,-10.9588,-10.9193,-10.8289,-10.8309,-10.8293,-10.802,-10.8098,-10.8098,-10.802,-10.802,-10.802,-10.802,-10.802,-10.802,-10.802,-10.8801,-10.8996,-10.8215,-10.9503,-10.9816,-10.841,-10.8801,-10.8801,-10.8215,-10.8098,-10.802,-10.802,-10.802,-10.8098,-10.8207,-10.9017,-11.0083,-11.1507,-11.1507,-11.0985,-11.0087,-10.921,-10.8382,-10.7585,-10.7599,-10.7996,-10.8485,-10.8485,-10.8492,-10.8504,-10.8504,-10.8504,-10.8581,-11.1435,-11.1401,-11.1522,-11.1522,-11.1522,-11.1522,-11.1522,-11.1522,-11.1522,-11.1522,-11.1791,-11.1906,-11.1522,-11.1522,-11.1522,-11.1522,-11.1906,-11.2184,-11.2311,-11.3198,-11.3584,-11.3223,-11.33,-11.3107,-11.2604,-11.2295,-11.2295,-11.2711,-11.3228,-11.331,-11.2996,-11.3088,-11.299,-11.2715,-11.2383,-11.1393,-10.9917,-10.9882,-10.9687,-10.9297,-10.9687,-11.039,-11.1211,-11.1211,-11.1211,-11.1211,-11.1211,-11.1211,-11.1093,-11.0703,-11.0586,-11.0703,-11.1093,-11.0898,-11.0781,-11.1484,-11.1484,-11.1289,-11.1592,-11.1697,-11.1602,-11.129,-11.1198,-11.0909,-11.0112,-11.0214,-11.0206,-10.9487,-10.8889,-10.8509,-10.8104,-10.8003,-10.802,-10.802,-10.802,-10.802,-10.802,-10.802,-10.802,-10.802,-10.802,-10.802,-10.802,-10.8293,-10.841,-10.802,-10.8684,-10.8801,-10.802,-10.841,-10.841,-10.802,-10.802,-10.802,-10.802,-10.802,-10.802,-10.802,-10.8918,-10.9603,-11.029,-11.029,-11.0005,-10.9614,-10.8618,-10.7889,-10.7477,-10.7309,-10.7507,-10.7687,-10.7687,-10.7695,-10.7602,-10.7608,-10.7614,-10.7614]}]]